     2              OBSERVATION DATA    GPS                 RINEX VERSION / TYPE
TRRINEXO V2.4.6 UX                                          PGM / RUN BY / DATE
                                                            COMMENT
Original Marker Name: sm01                                  COMMENT
Campaign Name: STRC 1995                                    COMMENT
4-Character Station Name: SM01                              COMMENT
6-Character Antenna Code: TRMSST                            COMMENT
Vertical Measurement Point: TGP                             COMMENT
Vertical Offset to Rinex Ref. Point: 0.0629                 COMMENT
Radial Measurement Point: NGP                               COMMENT
Radial Offset to Rinex Ref. Point: 0.2334                   COMMENT
Antenna Height from Field Measurement: 1.2461 m             COMMENT
Original XYZ: -2369281.6521 -4893488.0111 3325469.7018      COMMENT
New XYZ position is based on association with SCEC monument COMMENT
E1C2U9Q8+0011. Position of that monument is believed to be  COMMENT
valid to within 1 m horizontally; vertical accuracy         COMMENT
should be no worse than 3-times this value.                 COMMENT
                                                            COMMENT
Revised Rinex header created by UCSD GPS archive for        COMMENT
GSAC on 05-Apr-1999 (1999:095) 17:41:20 GMT                 COMMENT
For assistance contact dagnew@ucsd.edu or hjohnson@ucsd.edu COMMENT
                                                            COMMENT
LDGO 1 1974                                                 MARKER NAME
SAN MIGUEL F                                                MARKER NUMBER
NULL CICESE (ENSENADA)                                      OBSERVER / AGENCY
3056 TRIMBLE 4000 SSE 6.10                                  REC # / TYPE / VERS
68262 TR 4000SST L1/L2 GEO                                  ANT # / TYPE
 -2369297.0000 -4893538.0000  3325510.0000                  APPROX POSITION XYZ
        1.1611        0.0000        0.0000                  ANTENNA: DELTA H/E/N
     1     1     0                                          WAVELENGTH FACT L1/2
     5    C1    L1    L2    P2    P1                        # / TYPES OF OBSERV
    30                                                      INTERVAL
  1995     2    12    16     0   30.000000                  TIME OF FIRST OBS
  1995     2    13     0     0    0.000000                  TIME OF LAST OBS
     0                                                      # OF SATELLITES
                                                            END OF HEADER
 95  2 12 16  0 30.0000000  0  7  1 14 15 21 22 25 29
  24151332.430     4470835.02516   3391233.74159  24151334.6214
  22418701.164    -2224503.98117  -1684404.11159  22418702.3124
  21356819.844     2415053.60617   1840478.37459  21356821.3204
  24595190.125      252466.05213     63426.27559  24595193.9804
  23629449.008    -1086894.28715   -782477.28459  23629451.9734
  21142867.484     2823129.84318   2148224.81859  21142867.7664
  23879994.836     -687653.80815   -504028.63759  23879995.4224
 95  2 12 16  1  0.0000000  0  7  1 14 15 21 22 25 29
  24170654.555     4572372.472 6   3470353.77349  24170656.4304
  22409541.430    -2272639.936 7  -1721912.63549  22409542.3324
  21369807.305     2483303.167 7   1893659.82449  21369808.6994
  24619688.344      381197.135 4    163736.09148  24619693.2074
  23618701.773    -1143373.913 6   -826487.35549  23618704.5044
  21157083.703     2897836.031 8   2206437.42649  21157084.0434
  23874727.375     -715335.998 6   -525599.19349  23874728.1134
 95  2 12 16  1 30.0000000  0  7  1 14 15 21 22 25 29
  24189981.664     4673935.080 6   3549493.40149  24189983.8094
  22400409.953    -2320626.691 7  -1759304.89549  22400411.1724
  21382908.484     2552149.716 7   1947306.45649  21382910.0084
  24644232.000       21509.27614    264240.74947  24644235.0354
  23607977.484    -1199728.045 6   -870399.64849  23607980.3674
  21171381.641     2972971.603 8   2264984.61149  21171381.8874
  23869480.953     -742905.558 6   -547081.98149  23869481.8914
 95  2 12 16  2  0.0010000  0  7  1 14 15 21 22 25 29
  24209312.099     4775517.262 6   3628648.29549  24209314.2084
  22391302.021    -2368486.756 7  -1796598.44249  22391303.0994
  21396119.731     2621575.703 7   2001404.60149  21396121.1964
  24668820.974      150717.531 4    364922.38247  24668825.0404
  23597273.083    -1255982.606 6   -914234.36449  23597275.9664
  21185758.849     3048525.850 8   2323858.03849  21185759.2004
  23864250.192     -770395.240 6   -568502.53249  23864251.0714
 95  2 12 16  2 30.0010000  0  6  1 14 15 22 25 29
  24228647.528     4877124.632 6   3707822.81749  24228649.4744
  22382219.560    -2416218.299 7  -1833791.83449  22382220.5324
  21409439.544     2691571.661 7   2055946.88249  21409440.9504
  23586588.630    -1312127.727 6   -957983.78049  23586591.3724
  21200216.997     3124503.596 8   2383061.46649  21200217.2554
  23859035.442     -797798.455 6   -589855.68049  23859036.1694
 95  2 12 16  3  0.0010000  0  6  1 14 15 22 25 29
  24247993.130     4978791.296 6   3787043.53749  24247995.0174
  22373166.466    -2463791.969 7  -1870862.20949  22373167.4624
  21422873.466     2762167.351 7   2110956.48349  21422875.0364
  23575931.106    -1368133.150 6  -1001624.36249  23575934.0244
  21214765.185     3200954.225 8   2442633.38049  21214765.3604
  23853843.036     -825085.366 6   -611118.22549  23853843.7514
 95  2 12 16  3 30.0010000  0  6  1 14 15 22 25 29
  24267345.630     5080490.614 6   3866289.70949  24267348.4894
  22364145.591    -2511196.160 7  -1907800.53749  22364146.4464
  21436420.458     2833357.286 7   2166429.13749  21436422.2044
  23565299.685    -1424000.238 6  -1045157.14449  23565302.5914
  21229405.591     3277889.664 8   2502583.06449  21229405.6384
  23848669.521     -852268.898 6   -632300.19049  23848670.0954
 95  2 12 16  4  0.0010000  0  7  1 14 15 21 22 25 29
  24286701.169     5182202.333 6   3945545.52949  24286703.0324
  22355158.622    -2558424.787 7  -1944602.04249  22355159.2434
  21450079.966     2905138.096 7   2222362.20849  21450081.5714
  24767576.778       47706.85614
  23554696.856    -1479722.089 6  -1088576.74449  23554699.9384
  21244139.521     3355317.452 8   2562916.40149  21244139.6854
  23843518.802     -879336.232 6   -653391.59349  23843520.1264
 95  2 12 16  4 30.0010000  0  6  1 14 15 22 25 29
  24306056.599     5283915.712 6   4024802.66449  24306058.7434
  22346203.716    -2605482.796 7  -1981270.60449  22346204.5134
  21463850.692     2977503.300 7   2278750.65449  21463852.2284
  23544119.747    -1535301.147 6  -1131885.08249  23544122.6184
  21258965.216     3433227.843 8   2623625.78849  21258965.3804
  23838391.724     -906277.654 6   -674384.88949  23838393.1534
 95  2 12 16  5  0.0010000  0  7  1 14 15 21 22 25 29
  24325409.388     5385610.053 6   4104044.95049  24325411.4974
  22337283.263    -2652359.546 7  -2017797.92549  22337284.1184
  21477732.591     3050454.185 7   2335595.47349  21477734.0914
  24817196.661       21757.03815
  23533570.263    -1590741.265 6  -1175085.16349  23533573.5914
  21273882.646     3511618.000 8   2684709.01749  21273882.7864
  23833290.763     -933087.341 6   -695275.50849  23833291.3724
 95  2 12 16  5 30.0010000  0  7  1 14 15 21 22 25 29
  24344757.778     5487291.203 6   4183276.94949  24344759.9934
  22328398.317    -2699049.695 7  -2054179.84849  22328399.1034
  21491725.864     3123988.172 7   2392894.65449  21491727.2004
  24842067.161      152451.670 5
  23523047.372    -1646042.255 6  -1218176.81849  23523050.2554
  21288888.630     3590474.361 8   2746155.51949  21288888.7354
  23828212.661     -959772.402 6   -716069.00849  23828213.4934
 95  2 12 16  6  0.0010000  0  7  1 14 15 21 22 25 29
  24364109.653     5588979.825 6   4262514.77549  24364111.8454
  22319549.919    -2745548.273 7  -2090412.48149  22319550.5634
  21505831.052     3198111.455 7   2450653.02849  21505832.2704
  24866979.450      283364.906 5     78219.38259  24866984.7824
  23512551.083    -1701198.802 6  -1261155.92749  23512553.6964
  21303984.700     3669805.285 8   2807971.81049  21303984.8294
  23823159.083     -986327.750 6   -736761.44249  23823159.6814
 95  2 12 16  6 30.0010000  0  6  1 14 15 22 25 29
  24383459.560     5690666.358 6   4341750.98049  24383461.9744
  22310735.208    -2791869.861 7  -2126507.21249  22310736.0404
  21520044.606     3272803.598 7   2508854.67049  21520045.8844
  23502080.685    -1756219.940 6  -1304029.52049  23502083.4974
  21319167.614     3749591.748 8   2870143.06749  21319167.7434
  23818127.747    -1012768.719 6   -757364.72449  23818128.4154
 95  2 12 16  7  0.0010000  0  6  1 14 15 22 25 29
  24402808.536     5792347.238 6   4420982.77849  24402810.4114
  22301953.989    -2838015.723 7  -2162465.01049  22301954.5284
  21534364.286     3348053.367 7   2567490.82849  21534365.8334
  23491637.896    -1811095.142 6  -1346789.38449  23491640.5444
  21334435.028     3829822.696 8   2932660.68249  21334435.2044
  23813114.911    -1039109.874 6   -777890.25149  23813116.5634
 95  2 12 16  7 30.0010000  0  6  1 14 15 22 25 29
  24422162.528     5894054.650 6   4500235.24549  24422164.5564
  22293208.216    -2883976.530 7  -2198278.60749  22293208.9424
  21548790.661     3423865.794 7   2626565.41849  21548792.2904
  23481227.521    -1865805.986 6  -1389421.18849  23481230.6734
  21349786.513     3910495.799 8   2995522.82849  21349786.8534
  23808123.567    -1065339.576 6   -798328.93249  23808125.1264
 95  2 12 16  8  0.0010000  0  6  1 14 15 22 25 29
  24441520.505     5995777.125 6   4579499.45749  24441522.8604
  22284493.255    -2929772.002 7  -2233963.38549  22284494.2394
  21563321.888     3500226.860 7   2686067.52149  21563323.4114
  23470846.161    -1920359.118 6  -1431930.08249  23470848.8334
  21365217.435     3991586.322 8   3058710.23549  21365217.5874
  23803153.755    -1091455.183 5   -818678.69249  23803155.4314
 95  2 12 16  8 30.0010000  0  6  1 14 15 22 25 29
  24460877.083     6097496.851 6   4658761.51649  24460879.1104
  22275810.403    -2975401.991 7  -2269519.21149  22275811.3414
  21577955.544     3577127.508 7   2745990.07649  21577956.8924
  23460494.958    -1974754.898 6  -1474316.37049  23460496.9854
  21380722.403     4073063.223 8   3122198.71249  21380722.5444
  23798203.130    -1117469.766 5   -838949.73249  23798204.9584
 95  2 12 16  9  0.0010000  0  6  1 14 15 22 25 29
  24480231.841     6199208.823 6   4738017.51149  24480234.5714
  22267159.872    -3020859.831 7  -2304940.90049  22267160.7164
  21592691.411     3654565.059 7   2806330.99349  21592692.9704
  23450171.403    -2029006.636 6  -1516590.43549  23450174.0874
  21396298.716     4154917.184 8   3185981.00749  21396298.8334
  23793267.169    -1143407.264 5   -859160.71649  23793268.8564
 95  2 12 16  9 30.0010000  0  6  1 14 15 22 25 29
  24499583.802     6300901.068 6   4817258.17849  24499585.9464
  22258542.122    -3066146.609 7  -2340229.28749  22258543.2354
  21607527.927     3732532.578 7   2867084.88649  21607529.5794
  23439871.458    -2083134.557 6  -1558767.99249  23439874.4114
  21411944.599     4237137.026 8   3250048.40549  21411944.8804
  23788344.497    -1169280.210 6   -879321.40849  23788346.3134
 95  2 12 16 10  0.0010000  0  6  1 14 15 22 25 29
  24518927.052     6402552.155 6   4896466.74749  24518929.1494
  22249955.856    -3111267.114 7  -2375388.12249  22249956.7594
  21622464.028     3811022.085 7   2928245.51749  21622465.9744
  23429592.380    -2137145.704 6  -1600854.57349  23429594.8764
  21427658.927     4319717.007 8   3314396.43349  21427659.1264
  23783426.552    -1195120.045 6   -899456.29249  23783427.5484
 95  2 12 16 10 30.0010000  0  6  1 14 15 22 25 29
  24538262.317     6504162.551 6   4975643.63049  24538264.8954
  22241406.036    -3156196.015 7  -2410397.64549  22241406.8684
  21637499.341     3890032.716 7   2989812.21449  21637501.0174
  23419336.981    -2191039.786 6  -1642849.94149  23419339.3134
  21443445.919     4402676.539 8   3379040.20949  21443446.0954
  23778514.505    -1220935.385 6   -919572.10549  23778515.4424
 95  2 12 16 11  0.0010000  0  6  1 14 15 22 25 29
  24557593.872     6605746.976 6   5054800.26249  24557596.3804
  22232893.669    -3200930.307 7  -2445255.52449  22232894.7354
  21652634.442     3969566.778 7   3051786.79049  21652636.2944
  23409102.896    -2244816.814 6  -1684754.08149  23409105.9424
  21459309.333     4486040.401 8   3443999.05949  21459309.4854
  23773611.091    -1246701.923 6   -939649.88049  23773612.6034
 95  2 12 16 11 30.0010000  0  6  1 14 15 22 25 29
  24576919.442     6707307.109 5   5133937.97749  24576921.3994
  22224416.489    -3245478.116 7  -2479968.09449  22224417.3924
  21667868.388     4049620.861 7   3114166.57349  21667869.9234
  23398894.216    -2298466.941 6  -1726559.34449  23398897.1454
  21475249.310     4569804.293 8   3509269.61149  21475249.5214
  23768720.294    -1272406.041 6   -959679.02449  23768721.1144
 95  2 12 16 12  0.0010000  0  6  1 14 15 22 25 29
  24596239.317     6808828.720 5   5213045.64449  24596241.9544
  22215970.380    -3289863.050 7  -2514553.74049  22215971.3174
  21683197.817     4130177.753 7   3176938.16949  21683199.3064
  23388706.700    -2351996.702 6  -1768270.81249  23388709.9934
  21491262.810     4653956.252 8   3574842.55749  21491263.0674
  23763838.856    -1298054.662 6   -979664.92049  23763839.7824
 95  2 12 16 12 30.0010000  0  6  1 14 15 22 25 29
  24615551.560     6910319.078 5   5292128.97049  24615553.8684
  22207555.271    -3334085.622 7  -2549012.88249  22207556.1034
  21698622.981     4211236.838 7   3240101.06949  21698624.2474
  23378546.192    -2405393.388 6  -1809878.59849  23378549.6494
  21507349.005     4738490.144 8   3640713.10649  21507349.2044
  23758976.216    -1323610.523 6   -999578.55049  23758977.2944
 95  2 12 16 13  0.0010000  0  6  1 14 15 22 25 29
  24634856.997     7011766.992 5   5371179.21149  24634859.6924
  22199164.169    -3378180.142 7  -2583372.24449  22199164.9664
  21714141.388     4292785.417 7   3303645.39149  21714143.0634
  23368411.841    -2458650.151 6  -1851377.35249  23368415.3924
  21523502.114     4823374.657 8   3706856.86749  21523502.2434
  23754127.622    -1349087.378 6  -1019430.62549  23754127.8804
 95  2 12 16 13 30.0010000  0  6  1 14 15 22 25 29
  24654156.731     7113184.295 5   5450205.60649  24654159.3804
  22190799.958    -3422135.402 7  -2617623.08849  22190800.8134
  21729755.497     4374839.262 7   3367583.42649  21729757.1494
  23358310.731    -2511734.745 6  -1892741.95449  23358313.8134
  21539723.013     4908616.692 8   3773279.21849  21539723.1654
  23749296.825    -1374476.109 6  -1039214.01049  23749297.5994
 95  2 12 16 14  0.0010000  0  6  1 14 15 22 25 29
  24673450.020     7214578.310 5   5529213.85249  24673452.6924
  22182465.497    -3465933.713 7  -2651751.63349  22182465.9894
  21745467.349     4457405.727 7   3431920.90349  21745468.7674
  23348245.106    -2564627.445 6  -1933957.02149  23348247.7674
  21556014.896     4994230.534 8   3839991.28849  21556015.0364
  23744484.052    -1399765.879 6  -1058920.29649  23744484.1464
 95  2 12 16 14 30.0010000  0  6  1 14 15 22 25 29
  24692735.114     7315918.618 5   5608180.25949  24692737.6814
  22174157.935    -3509590.042 7  -2685769.53949  22174158.8724
  21761269.458     4540446.841 7   3496628.23949  21761270.9934
  23338211.606    -2617356.288 6  -1975044.40649  23338214.4194
  21572370.841     5080181.992 8   3906966.43049  21572371.0174
  23739680.146    -1425009.411 6  -1078590.55349  23739680.9074
 95  2 12 16 15  0.0010000  0  6  1 14 15 22 25 29
  24712013.333     7417228.728 5   5687123.11949  24712016.7434
  22165882.450    -3553078.104 7  -2719656.34149  22165883.1304
  21777165.981     4623981.652 7   3561720.27749  21777167.4234
  23328211.700    -2669904.494 6  -2015991.03249  23328214.8064
  21588796.825     5166500.613 8   3974227.67649  21588796.9894
  23734884.833    -1450208.470 6  -1098226.15849  23734885.4314
 95  2 12 16 15 30.0010000  0  6  1 14 15 22 25 29
  24731284.591     7518496.200 5   5766032.76249  24731287.6614
  22157640.489    -3596389.131 7  -2753405.18349  22157641.2044
  21793152.958     4707995.977 7   3627185.96249  21793154.1884
  23318241.708    -2722300.916 6  -2056819.39049  23318244.2984
  21605291.575     5253180.945 8   4041770.77049  21605291.8454
  23730096.161    -1475373.218 6  -1117835.01649  23730097.0754
 95  2 12 16 16  0.0010000  0  6  1 14 15 22 25 29
  24750547.622     7619724.696 5   5844912.03549  24750550.8454
  22149434.880    -3639510.554 7  -2787006.28749  22149435.5834
  21809230.255     4792480.829 7   3693018.29649  21809231.6264
  23308297.583    -2774557.179 6  -2097538.52549  23308300.2434
  21621853.138     5340212.464 8   4109587.51849  21621853.4074
  23725310.614    -1500521.994 6  -1137431.44249  23725310.9194
 95  2 12 16 16 30.0010000  0  6  1 14 15 22 25 29
  24769807.653     7720934.018 5   5923776.34749  24769810.2554
  22141267.466    -3682430.969 7  -2820450.75949  22141267.9814
  21825397.661     4877441.414 7   3759221.32249  21825399.3134
  23298380.521    -2826668.765 6  -2138144.93449  23298383.3564
  21638481.833     5427597.534 8   4177679.76249  21638481.9974
  23720528.856    -1525652.236 6  -1157013.41649  23720529.0564
 95  2 12 16 17  0.0010000  0  6  1 14 15 22 25 29
  24789065.747     7822132.656 6   6002632.34149  24789068.2204
  22133138.474    -3725148.332 7  -2853737.01549  22133139.2594
  21841658.114     4962892.205 7   3825806.33049  21841659.6614
  23288494.138    -2878622.582 6  -2178628.40949  23288497.2904
  21655179.325     5515342.622 8   4246052.54349  21655179.5134
  23715757.278    -1550727.046 6  -1176552.19949  23715757.5604
 95  2 12 16 17 30.0010000  0  6  1 14 15 22 25 29
  24808323.138     7923333.909 6   6081490.35749  24808325.6574
  22125051.958    -3767642.226 7  -2886849.13749  22125052.6384
  21858013.661     5048840.152 7   3892778.73449  21858015.1034
  23278640.294    -2930406.303 6  -2218979.33049  23278643.1064
  21671947.817     5603462.508 8   4314717.37149  21671948.0994
  23710998.763    -1575731.265 6  -1196035.98249  23710999.7944
 95  2 12 16 18  0.0010000  0  6  1 14 15 22 25 29
  24827578.388     8024519.405 6   6160336.10049  24827580.9894
  22117003.825    -3809937.146 7  -2919806.20849  22117004.7284
  21874459.216     5135260.783 7   3960119.46749  21874460.6224
  23268816.419    -2982028.981 6  -2259204.77449  23268819.4314
  21688783.802     5691935.673 8   4383657.48249  21688784.0604
  23706250.122    -1600682.641 6  -1215478.57049  23706251.2004
 95  2 12 16 18 30.0010000  0  6  1 14 15 22 25 29
  24846827.388     8125673.869 6   6239157.69049  24846829.7904
  22108989.731    -3852050.549 7  -2952621.84249  22108990.5874
  21890994.169     5222153.201 7   4027827.81549  21890995.8804
  23259024.161    -3033485.617 6  -2299300.82949  23259026.8454
  21705685.833     5780755.965 8   4452868.08149  21705686.0914
  23701515.388    -1625565.409 6  -1234867.71449  23701516.2674
 95  2 12 16 19  0.0010000  0  6  1 14 15 22 25 29
  24866065.599     8226773.188 6   6317936.28849  24866068.3534
  22101008.106    -3893992.739 7  -2985304.07049  22101009.1614
  21907617.700     5309510.246 7   4095898.20849  21907619.4584
  23249265.614    -3084769.965 6  -2339262.65249  23249268.5324
  21722653.786     5869923.255 8   4522349.06349  21722654.0444
  23696793.411    -1650379.658 6  -1254203.46349  23696794.2554
 95  2 12 16 19 30.0010000  0  6  1 14 15 22 25 29
  24885293.974     8327820.532 6   6396674.38749  24885296.7044
  22093060.794    -3935756.913 7  -3017847.58649  22093061.6734
  21924328.958     5397330.083 7   4164329.21749  21924330.5994
  23239542.255    -3135867.084 6  -2379078.57949  23239545.0444
  21739688.192     5959438.192 8   4592100.94449  21739688.4274
  23692083.333    -1675130.482 6  -1273489.80349  23692083.8374
 95  2 12 16 20  0.0010000  0  6  1 14 15 22 25 29
  24904511.856     8428806.164 6   6475364.39149  24904514.1884
  22085144.263    -3977359.321 7  -3050265.04749  22085145.2004
  21941128.255     5485609.583 7   4233118.40649  21941129.8374
  23229858.192    -3186757.598 6  -2418733.50849  23229861.4744
  21756783.950     6049279.588 8   4662107.20549  21756784.2674
  23687385.724    -1699817.453 6  -1292726.37149  23687386.5914
 95  2 12 16 20 30.0010000  0  6  1 14 15 22 25 29
  24923713.325     8529711.972 6   6553992.20749  24923715.2124
  22077257.583    -4018804.263 7  -3082559.80049  22077258.5564
  21958014.036     5574344.671 7   4302262.61049  21958015.4664
  23220215.067    -3237432.559 6  -2458220.46949  23220218.1734
  21773942.786     6139450.063 8   4732369.89649  21773943.3024
  23682698.794    -1724447.485 6  -1311918.59149  23682699.2044
 95  2 12 16 21  0.0010000  0  6  1 14 15 22 25 29
  24942901.099     8630542.932 6   6632561.69249  24942902.9034
  22069403.661    -4060074.950 7  -3114718.77749  22069404.7634
  21974985.450     5663529.031 7   4371756.89449  21974986.7284
  23210612.888    -3287892.775 6  -2497540.09749  23210615.9234
  21791164.630     6229950.804 8   4802889.93649  21791165.1344
  23678021.466    -1749028.288 6  -1331072.45849  23678021.8994
 95  2 12 16 21 30.0010000  0  6  1 14 15 22 25 29
  24962076.442     8731312.621 5   6711083.43649  24962079.0564
  22061586.130    -4101157.146 7  -3146730.87649  22061587.2434
  21992042.622     5753166.050 7   4441603.88849  21992044.0754
  23201049.028    -3338151.323 6  -2536702.57749  23201051.5954
  21808448.411     6320776.124 8   4873662.89349  21808448.6694
  23673351.880    -1773564.311 6  -1350191.40649  23673352.3964
 95  2 12 16 22  0.0010000  0  6  1 14 15 22 25 29
  24981242.716     8832031.534 5   6789565.60049  24981245.7284
  22053806.505    -4142039.786 7  -3178587.47949  22053807.6424
  22009186.521     5843258.313 7   4511805.61649  22009188.2674
  23191523.692    -3388207.008 6  -2575706.99149  23191526.3764
  21825794.396     6411931.007 8   4944692.65649  21825794.5954
  23668690.005    -1798064.606 6  -1369282.51849  23668690.5094
 95  2 12 16 22 30.0010000  0  6  1 14 15 22 25 29
  25000400.942     8932709.829 5   6868016.11949  25000404.5054
  22046066.864    -4182712.974 7  -3210280.86949  22046067.9544
  22026416.036     5933798.933 7   4582356.71049  22026417.6064
  23182033.888    -3438072.921 6  -2614563.52049  23182036.0324
  21843203.067     6503413.312 8   5015977.55249  21843203.1614
  23664032.575    -1822539.534 6  -1388353.88549  23664032.9504
 95  2 12 16 23  0.0010000  0  6  1 14 15 22 25 29
  25019554.888     9033362.435 5   6946446.61349  25019558.9074
  22038367.333    -4223173.478 7  -3241808.52749  22038368.3884
  22043729.380     6024781.233 7   4653251.98149  22043731.0324
  23172578.888    -3487761.957 6  -2653282.23449  23172581.3254
  21860671.106     6595208.033 8   5087505.89449  21860671.3534
  23659379.200    -1846994.189 6  -1407409.44649  23659379.6104
 95  2 12 16 23 30.0010000  0  6  1 14 15 22 25 29
  25038705.450     9133992.596 5   7024859.62249  25038708.3804
  22030706.560    -4263431.175 7  -3273178.16449  22030707.5094
  22061125.864     6116199.479 7   4724486.94949  22061127.3884
  23163158.864    -3537266.999 6  -2691857.56949  23163161.4784
  21878196.380     6687304.858 8   5159269.64249  21878196.6854
  23654727.747    -1871435.737 6  -1426454.81549  23654728.8494
 95  2 12 16 24  0.0010000  0  6  1 14 15 22 25 29
  25057849.036     9234596.697 6   7103252.33449  25057852.2944
  22023086.278    -4303475.065 7  -3304381.18249  22023086.9704
  22078604.927     6208054.043 7   4796061.91149  22078606.3104
  23153778.599    -3586556.655 6  -2730265.05449  23153781.4464
  21895780.388     6779709.126 8   5231272.96849  21895780.6464
  23650080.622    -1895856.090 6  -1445483.65349  23650082.1814
 95  2 12 16 24 30.0010000  0  6  1 14 15 22 25 29
  25076986.606     9335164.103 5   7181616.44749  25076989.8294
  22015508.216    -4343299.861 7  -3335413.49049  22015508.9664
  22096166.919     6300341.067 7   4867973.83849  22096168.4894
  23144440.130    -3635629.045 6  -2768503.25249  23144442.8724
  21913423.685     6872424.422 8   5303518.63349  21913423.8844
  23645441.442    -1920235.837 6  -1464480.84849  23645442.9074
 95  2 12 16 25  0.0010000  0  6  1 14 15 22 25 29
  25096114.114     9435682.411 5   7259942.30949  25096118.1924
  22007970.653    -4382910.332 8  -3366278.79049  22007971.4504
  22113810.224     6393058.147 7   4940220.87349  22113811.7944
  23135143.614    -3684485.073 6  -2806572.85549  23135146.2394
  21931127.083     6965456.073 8   5376010.81649  21931127.2354
  23640813.122    -1944557.748 6  -1483432.99049  23640814.4354
 95  2 12 16 25 30.0010000  0  6  1 14 15 22 25 29
  25115233.692     9536152.899 5   7338230.89849  25115237.6304
  22000475.505    -4422298.821 8  -3396971.12349  22000476.2084
  22131535.575     6486203.565 7   5012801.68649  22131537.0994
  23125890.974    -3733108.390 6  -2844461.12449  23125893.1534
  21948890.536     7058803.134 8   5448748.77249  21948890.6064
  23636196.435    -1968817.907 6  -1502337.00249  23636197.9704
 95  2 12 16 26  0.0010000  0  6  1 14 15 22 25 29
  25134343.028     9636574.234 5   7416481.18849  25134346.6614
  21993023.044    -4461461.161 8  -3427487.22949  21993023.7594
  22149341.544     6579775.326 7   5085714.72949  22149343.2434
  23116682.755    -3781499.571 6  -2882168.51349  23116685.2744
  21966713.271     7152464.232 8   5521731.43049  21966713.3644
  23631592.661    -1993007.938 6  -1521186.35549  23631594.6534
 95  2 12 16 26 30.0020000  0  6  1 14 15 22 25 29
  25153445.463     9736961.508 5   7494704.92849  25153450.0804
  21985611.275    -4500409.614 8  -3457836.67449  21985612.0144
  22167228.838     6673773.315 7   5158959.82949  22167231.2174
  23107515.166    -3829673.888 6  -2919706.91049  23107517.6274
  21984595.791     7246436.717 8   5594956.73349  21984595.9794
  23627004.447    -2017121.766 6  -1539976.34049  23627005.7364
 95  2 12 16 27  0.0020000  0  6  1 14 15 22 25 29
  25172543.135     9837314.232 5   7572901.75349  25172546.1464
  21978240.244    -4539144.615 8  -3488019.79549  21978240.6784
  22185195.127     6768188.033 7   5232529.73549  22185197.2714
  23098390.018    -3877626.987 6  -2957072.92849  23098392.6434
  22002532.111     7340692.496 8   5668402.78249  22002532.3934
  23622426.775    -2041178.309 6  -1558721.68749  23622427.8304
 95  2 12 16 27 30.0020000  0  6  1 14 15 22 25 29
  25191634.643     9937643.440 5   7651080.24949  25191637.3964
  21970911.861    -4577655.395 8  -3518028.19449  21970912.4124
  22203241.104     6863020.853 7   5306425.39749  22203242.9434
  23089308.150    -3925350.478 6  -2994260.03549  23089310.8344
  22020520.205     7435220.028 8   5742060.57949  22020520.4754
  23617855.330    -2065197.380 6  -1577437.83049  23617856.9474
 95  2 12 16 28  0.0020000  0  6  1 14 15 22 25 29
  25210720.197    10037934.187 5   7729228.76749  25210723.1274
  21963623.408    -4615956.291 8  -3547873.05149  21963624.0184
  22221366.939     6958271.538 7   5380646.67749  22221368.7444
  23080268.963    -3972852.887 6  -3031274.85849  23080271.4944
  22038559.807     7530018.494 8   5815929.49449  22038560.1234
  23613290.650    -2089187.511 6  -1596131.40949  23613292.1044
 95  2 12 16 28 30.0020000  0  6  1 14 15 22 25 29
  25229795.650    10138177.127 5   7807340.05249  25229799.1194
  21956374.322    -4654049.598 8  -3577556.14849  21956374.8734
  22239571.041     7053935.079 7   5455189.65349  22239572.8224
  23071271.377    -4020136.504 6  -3068119.20349  23071273.9904
  22056652.736     7625097.676 8   5890017.14849  22056652.9824
  23608726.971    -2113168.055 6  -1614817.52549  23608728.2954
 95  2 12 16 29  0.0020000  0  6  1 14 15 22 25 29
  25248859.330    10238360.126 5   7885404.61849  25248862.6704
  21949165.635    -4691932.985 8  -3607075.67049  21949166.5254
  22257852.854     7150004.904 7   5530049.22349  22257854.7284
  23062314.955    -4067202.184 6  -3104793.71749  23062317.6624
  22074799.041     7720456.641 8   5964322.81449  22074799.1704
  23604164.283    -2137145.802 6  -1633501.44849  23604165.3144
 95  2 12 16 29 30.0020000  0  6  1 14 15 22 25 29
  25267912.924    10338489.391 5   7963427.30049  25267915.7134
  21941996.650    -4729605.766 8  -3636431.09049  21941997.4364
  22276211.689     7246482.420 7   5605226.47149  22276213.6004
  23053400.033    -4114047.771 6  -3141296.73349  23053402.5414
  22093002.283     7816115.836 8   6038862.42549  22093002.3774
  23599605.158    -2161107.017 6  -1652172.49649  23599605.7794
 95  2 12 16 30  0.0020000  0  6  1 14 15 22 25 29
  25286956.846    10438560.537 5   8041404.73049  25286960.4434
  21934867.307    -4767071.951 8  -3665625.52049  21934868.2684
  22294647.635     7343363.340 7   5680718.06049  22294649.5104
  23044528.447    -4160669.602 6  -3177625.39149  23044530.9794
  22111266.354     7912093.972 8   6113650.56349  22111266.5414
  23595049.244    -2185044.999 6  -1670825.43849  23595049.8184
 95  2 12 16 30 30.0020000  0  6  1 14 15 22 25 29
  25305991.611    10538584.813 5   8119345.60649  25305994.0144
  21927781.619    -4804306.489 8  -3694639.45249  21927782.6744
  22313159.260     7440642.811 7   5756520.20449  22313161.1114
  23035702.744    -4207049.395 6  -3213765.44949  23035705.3814
  22129590.416     8008386.409 8   6188683.60449  22129590.6504
  23590500.736    -2208948.317 6  -1689451.38249  23590501.5334
 95  2 12 16 31  0.0020000  0  6  1 14 15 22 25 29
  25325017.611    10638573.624 5   8197258.85149  25325021.5614
  21920741.893    -4841300.867 8  -3723466.24549  21920742.9824
  22331745.533     7538314.339 7   5832627.84549  22331747.5614
  23026926.533    -4253167.195 6  -3249701.35849  23026929.3814
  22147969.064     8104967.660 8   6263941.69149  22147969.3344
  23585962.486    -2232799.685 6  -1708036.85049  23585963.9394
 95  2 12 16 31 30.0020000  0  6  1 14 15 22 25 29
  25344040.361    10738536.699 5   8275152.06849  25344043.6074
  21913751.752    -4878032.596 8  -3752088.37449  21913753.0294
  22350407.330     7636381.682 7   5909043.91249  22350409.4514
  23018205.744    -4298993.471 6  -3285410.10549  23018208.6744
  22166403.213     8201840.292 8   6339426.82949  22166403.5884
  23581433.775    -2256599.037 6  -1726581.77049  23581435.4754
 95  2 12 16 32  0.0020000  0  6  1 14 15 22 25 29
  25363056.354    10838464.298 5   8353017.61949  25363062.1544
  21906815.939    -4914482.236 8  -3780490.68449  21906816.9824
  22369143.252     7734839.436 7   5985764.21349  22369145.5494
  23009543.924    -4344511.354 6  -3320878.53949  23009546.2444
  22184889.283     8298984.592 8   6415123.66449  22184889.6934
  23576915.244    -2280345.673 6  -1745085.60949  23576916.2994
 95  2 12 16 32 30.0020000  0  6  1 14 15 22 25 29
  25382065.322       56598.52115
  21899934.197    -4950645.828 8  -3808670.11049  21899935.2404
  22387951.846     7833677.990 7   6062781.23149  22387953.9434
  23000939.002    -4389733.069 6  -3356116.20049  23000941.7324
  22203421.963     8396375.773 8   6491012.86849  22203422.4434
  23572406.447    -2304039.421 6  -1763548.25249  23572407.0804
 95  2 12 16 33  0.0020000  0  6  1 14 15 22 25 29
  25401066.330      156450.271 5     23334.83758  25401069.2834
  21893105.158    -4986533.860 8  -3836634.81349  21893106.1074
  22406832.479     7932896.212 7   6140094.09649  22406834.4824
  22992387.447    -4434672.399 6  -3391133.82849  22992390.3184
  22222002.393     8494014.814 8   6567095.21149  22222002.7324
  23567905.885    -2327689.471 6  -1781976.84949  23567906.0494
 95  2 12 16 33 30.0020000  0  6  1 14 15 22 25 29
  25420057.744      256246.019 5    101097.79749  25420061.8464
  21886326.611    -5022154.332 8  -3864391.02649  21886327.5724
  22425785.049     8032493.818 7   6217702.57549  22425787.0884
  22983884.846    -4479350.751 6  -3425948.09149  22983887.2834
  22240632.018     8591913.482 8   6643379.85449  22240632.2174
  23563411.369    -2351307.501 6  -1800380.48849  23563411.4864
 95  2 12 16 34  0.0020000  0  6  1 14 15 22 25 29
  25439038.127      355990.603 5    178820.59349  25439042.0534
  21879597.572    -5057516.433 8  -3891945.91149  21879598.5574
  22444810.244     8132471.449 7   6295607.18749  22444812.2134
  22975429.932    -4523783.377 6  -3460570.88449  22975432.5454
  22259310.846     8690071.210 8   6719866.36849  22259311.1864
  23558925.385    -2374881.709 6  -1818749.99149  23558925.8654
 95  2 12 16 34 30.0020000  0  5 14 15 22 25 29
  21872912.564    -5092646.082 8  -3919319.66449  21872913.3144
  22463906.588     8232822.297 7   6373802.61449  22463908.3934
  22967019.346    -4567980.664 6  -3495010.29549  22967021.9824
  22278038.994     8788488.437 8   6796555.08649  22278039.3934
  23554445.111    -2398423.534 6  -1837094.26349  23554445.8854
 95  2 12 16 35  0.0020000  0  5 14 15 22 25 29
  21866270.689    -5127549.221 8  -3946516.91849  21866271.5684
  22483072.572     8333541.804 7   6452285.30749  22483074.5064
  22958656.666    -4611927.563 6  -3529254.60249  22958659.4324
  22296816.979     8887166.837 8   6873447.31549  22296817.4364
  23549970.064    -2421941.472 6  -1855419.90649  23549970.9084
 95  2 12 16 35 30.0020000  0  5 14 15 22 25 29
  21859673.557    -5162218.237 8  -3973531.74049  21859674.4244
  22502308.658     8434628.182 7   6531053.86849  22502310.7684
  22950342.455    -4655615.260 6  -3563296.93849  22950345.4434
  22315644.736     8986108.023 8   6950544.31949  22315645.1234
  23545501.236    -2445423.389 6  -1873717.48849  23545501.6004
 95  2 12 16 36  0.0020000  0  5 14 15 22 25 29
  21853121.697    -5196647.375 8  -4000359.64149  21853122.6584
  22521613.854     8536077.467 7   6610105.21749  22521615.9394
  22942081.533    -4699029.547 6  -3597126.22849  22942084.4864
  22334522.752     9085311.842 8   7027845.96749  22334523.2564
  23541040.283    -2468867.340 6  -1891985.48949  23541041.0104
 95  2 12 16 36 30.0020000  0  5 14 15 22 25 29
  21846616.330    -5230834.214 8  -4026998.74049  21846617.2444
  22540988.213     8637889.072 7   6689438.88849  22540990.4984
  22933876.041    -4742150.634 6  -3630727.04549  22933878.7484
  22353452.166     9184786.860 8   7105358.94449  22353452.6004
  23536585.197    -2492277.605 6  -1910227.23849  23536585.8774
 95  2 12 16 37  0.0020000  0  5 14 15 22 25 29
  21840158.494    -5264769.672 8  -4053441.95749  21840159.6074
  22560431.361     8740063.458 7   6769055.24849  22560433.6584
  22925726.478    -4784975.472 7  -3664097.01949  22925729.0454
  22372433.854     9284538.033 8   7183087.10349  22372434.2994
  23532138.064    -2515647.193 6  -1928437.30449  23532138.7094
 95  2 12 16 37 30.0020000  0  5 14 15 22 25 29
  21833747.861    -5298457.646 8  -4079692.32649  21833749.1044
  22579942.447     8842596.906 7   6848951.40349  22579944.7324
  22917632.510    -4827511.735 7  -3697242.12949  22917635.0884
  22391467.064     9384556.714 8   7261023.70949  22391467.5574
  23527697.939    -2538980.267 6  -1946618.90649  23527698.8424
 95  2 12 16 38  0.0020000  0  5 14 15 22 25 29
  21827383.463    -5331901.441 8  -4105752.43549  21827384.6934
  22599520.643     8945479.023 7   6929119.24749  22599522.6934
  22909594.010    -4869751.952 7  -3730156.55349  22909596.3424
  22410546.260     9484817.797 8   7339149.19549  22410546.7754
  23523260.736    -2562297.807 6  -1964788.40549  23523261.7214
 95  2 12 16 38 30.0020000  0  5 14 15 22 25 29
  21821068.158    -5365089.294 8  -4131613.10549  21821069.3074
  22619165.322     9048711.599 7   7009560.17349  22619167.5964
  22901613.018    -4911689.817 7  -3762835.37449  22901615.2794
  22429668.791     9585308.218 8   7417453.39049  22429669.2134
  23518828.666    -2585589.867 6  -1982938.05049  23518829.2874
 95  2 12 16 39  0.0020000  0  5 14 15 22 25 29
  21814804.635    -5398004.690 8  -4157261.46949  21814805.7714
  22638877.033     9152297.821 7   7090276.66849  22638879.2254
  22893688.174    -4953337.639 7  -3795288.19849  22893690.4004
  22448834.041     9686023.413 8   7495932.73149  22448834.6154
  23514401.760    -2608852.865 6  -2001065.03749  23514402.5574
 95  2 12 16 39 30.0020000  0  5 14 15 22 25 29
  21808596.603    -5430628.949 8  -4182682.97649  21808597.7284
  22658656.244     9256235.900 7   7171267.33549  22658658.5414
  22885819.205    -4994689.348 6  -3827510.28249  22885821.4084
  22468041.455     9786957.618 8   7574582.73249  22468041.9594
  23509979.486    -2632092.362 6  -2019173.72549  23509980.4004
 95  2 12 16 40  0.0020000  0  5 14 15 22 25 29
  21802443.439    -5462962.991 8  -4207878.33749  21802444.7174
  22678498.916     9360510.421 7   7252520.16549  22678500.6624
  22878007.166    -5035741.999 7  -3859499.32549  22878009.6044
  22487289.260     9888105.406 8   7653399.16249  22487289.7054
  23505559.807    -2655318.114 6  -2037271.70449  23505560.6624
 95  2 12 16 40 30.0020000  0  5 14 15 22 25 29
  21796346.455    -5495003.524 8  -4232844.99349  21796347.6624
  22698405.791     9465122.592 7   7334036.10049  22698407.9714
  22870250.775    -5076503.094 7  -3891261.18149  22870253.4474
  22506583.564     9989497.498 8   7732405.95849  22506584.1034
  23501143.830    -2678521.641 6  -2055352.36049  23501144.5574
 95  2 12 16 41  0.0020000  0  5 14 15 22 25 29
  21790307.189    -5526740.133 8  -4257574.82449  21790308.2094
  22718375.963     9570066.367 7   7415810.42849  22718378.1784
  22862550.971    -5116969.477 7  -3922793.39049  22862553.4204
  22525925.314    10091139.761 8   7811607.68949  22525925.8304
  23496730.674    -2701714.868 6  -2073424.99249  23496731.3184
 95  2 12 16 41 30.0020000  0  5 14 15 22 25 29
  21784327.885    -5558161.668 8  -4282059.14549  21784328.9394
  22738409.643     9675343.391 7   7497844.42449  22738411.7994
  22854912.447    -5157107.952 7  -3954070.09049  22854914.6624
  22545315.854    10193036.518 8   7891007.72849  22545316.2644
  23492321.572    -2724885.033 6  -2091479.66549  23492321.3854
 95  2 12 16 42  0.0020000  0  5 14 15 22 25 29
  21778407.557    -5589273.587 8  -4306302.20449  21778408.4004
  22758506.072     9780950.040 7   7580135.27049  22758507.9594
  22847336.728    -5196919.780 7  -3985092.25249  22847338.8264
  22564754.182    10295185.337 8   7970604.17749  22564754.5214
  23487918.689    -2748021.866 6  -2109508.34449  23487919.2054
 95  2 12 16 42 30.0020000  0  5 14 15 22 25 29
  21772545.291    -5620080.332 8  -4330307.46849  21772546.0884
  22778664.182     9886880.434 7   7662678.38749  22778666.0574
  22839818.205    -5236426.159 7  -4015876.41049  22839820.3384
  22584238.564    10397575.241 8   8050388.48049  22584238.9634
  23483522.721    -2771122.710 6  -2127508.98549  23483523.5414
 95  2 12 16 43  0.0020000  0  5 14 15 22 25 29
  21766741.939    -5650577.847 8  -4354071.77449  21766742.6434
  22798883.603     9993134.393 7   7745473.63349  22798885.4434
  22832363.299    -5275603.064 7  -4046403.83849  22832365.2214
  22603764.830    10500186.289 8   8130345.10649  22603765.2524
  23479135.830    -2794176.424 6  -2145472.90749  23479136.9904
 95  2 12 16 43 30.0020000  0  5 14 15 22 25 29
  21760995.018    -5680777.386 8  -4377603.88749  21760995.8384
  22819164.221    10099711.079 7   7828520.35049  22819166.3304
  22824971.205    -5314448.917 7  -4076673.30449  22824973.3144
  22623332.416    10603015.217 8   8210471.50549  22623332.8384
  23474759.768    -2817171.981 6  -2163391.52549  23474760.6114
 95  2 12 16 44  0.0020000  0  5 14 15 22 25 29
  21755304.322    -5710681.736 8  -4400905.98249  21755305.1544
  22839505.533    10206604.995 7   7911814.25849  22839508.0064
  22817640.564    -5352971.269 7  -4106690.69149  22817642.7564
  22642941.096    10706059.544 8   8290765.75049  22642941.4594
  23470394.291    -2840112.824 6  -2181267.50849  23470395.0764
 95  2 12 16 44 30.0020000  0  5 14 15 22 25 29
  21749671.166    -5740284.056 8  -4423972.73149  21749672.1744
  22859906.791    10313814.890 7   7995354.38249  22859909.0764
  22810374.689    -5391155.070 7  -4136444.27649  22810376.7294
  22662592.158    10809325.556 8   8371232.73849  22662592.5924
  23466036.236    -2863014.613 6  -2199113.05349  23466037.3034
 95  2 12 16 45  0.0020000  0  5 14 15 22 25 29
  21744096.822    -5769578.034 8  -4446799.21549  21744097.7834
  22880367.533    10421336.046 7   8079137.04149  22880369.9944
  22803175.924    -5428983.454 7  -4165920.91149  22803177.9044
  22682282.924    10912802.032 8   8451863.71849  22682283.4864
  23461681.838    -2885894.770 6  -2216941.73949  23461683.0804
 95  2 12 16 45 30.0020000  0  5 14 15 22 25 29
  21738579.728    -5798569.403 8  -4469389.89549  21738580.7484
  22900885.463    10529159.988 7   8163155.64149  22900888.0294
  22796043.713    -5466465.923 7  -4195128.00549  22796045.7994
  22702013.189    11016484.119 8   8532654.91949  22702013.7994
  23457329.650    -2908766.642 6  -2234763.96349  23457330.7294
 95  2 12 16 46  0.0020000  0  5 14 15 22 25 29
  21733118.611    -5827268.414 8  -4491752.76949  21733119.6314
  22921460.768    10637282.294 7   8247406.73949  22921463.0764
  22788977.783    -5503595.048 7  -4224059.77949  22788979.9634
  22721782.416    11120373.894 8   8613607.95149  22721782.9904
  23452977.104    -2931642.524 7  -2252589.32949  23452977.5374
 95  2 12 16 46 30.0020000  0  5 14 15 22 25 29
  21727715.049    -5855664.683 8  -4513879.74249  21727715.9754
  22942096.150    10745720.862 7   8331904.26449  22942098.3894
  22781985.963    -5540338.546 7  -4252691.05949  22781987.8734
  22741594.127    11224484.315 8   8694732.91649  22741594.6074
  23448627.768    -2954498.135 7  -2270398.89449  23448628.1664
 95  2 12 16 47  0.0020000  0  5 14 15 22 25 29
  21722365.158    -5883778.034 8  -4535786.26149  21722366.0964
  22962789.111    10854464.266 7   8416639.32449  22962791.5144
  22775064.963    -5576709.669 7  -4281032.17949  22775066.8144
  22761445.150    11328801.613 8   8776019.07949  22761445.7014
  23444286.064    -2977314.351 7  -2288177.75249  23444286.8264
 95  2 12 16 47 30.0020000  0  5 14 15 22 25 29
  21717049.229    -5911713.769 8  -4557554.37649  21717050.2604
  22983520.689    10963407.064 7   8501529.76049  22983523.1044
  22768194.299    -5612812.033 7  -4309163.87449  22768196.3504
  22781318.494    11433236.056 8   8857396.52549  22781318.8224
  23439934.736    -3000179.248 7  -2305994.55949  23439935.4754
 95  2 12 16 48  0.0020000  0  5 14 15 22 25 29
  21711775.854    -5939424.885 8  -4579147.47149  21711776.9084
  23004294.346    11072573.142 7   8586594.17049  23004296.9124
  22761379.057    -5648627.285 7  -4337071.85149  22761381.2134
  22801219.799    11537816.983 8   8938888.11049  22801220.1274
  23435577.877    -3023075.161 7  -2323835.53049  23435578.8964
 95  2 12 16 48 30.0020000  0  5 14 15 22 25 29
  21706565.150    -5966808.387 8  -4600485.27949  21706566.1704
  23025123.814    11182032.940 7   8671887.45349  23025126.2524
  22754629.377    -5684097.535 7  -4364710.98049  22754631.6504
  22821160.721    11642607.436 8   9020542.96549  22821160.9204
  23431229.338    -3045928.101 7  -2341643.01749  23431229.7714
 95  2 12 16 49  0.0020000  0  5 14 15 22 25 29
  21701421.900    -5993835.406 8  -4621545.30649  21701422.9904
  23046008.736    11291784.518 7   8757408.10549  23046011.2794
  22747942.049    -5719238.410 7  -4392093.46149  22747944.3114
  22841141.361    11747605.971 8   9102359.96349  22841141.5374
  23426886.635    -3068749.038 7  -2359425.57149  23426886.8694
 95  2 12 16 49 30.0020000  0  5 14 15 22 25 29
  21696351.322    -6020480.709 8  -4642307.88549  21696352.5414
  23066950.064    11401831.044 7   8843158.58149  23066952.4084
  22741319.588    -5754039.533 7  -4419211.20149  22741322.0614
  22861161.463    11852812.590 8   9184339.10449  22861161.6864
  23422547.502    -3091550.174 7  -2377192.68949  23422547.6194
 95  2 12 16 50  0.0020000  0  5 14 15 22 25 29
  21691352.338    -6046752.526 8  -4662779.44049  21691353.4634
  23087945.916    11512164.251 7   8929132.44549  23087948.1434
  22734761.354    -5788501.508 7  -4446064.66849  22734763.8264
  22881217.213    11958204.621 8   9266462.72049  22881217.5884
  23418210.900    -3114338.330 7  -2394949.69449  23418211.1704
 95  2 12 16 50 30.0020000  0  5 14 15 22 25 29
  21686421.080    -6072666.273 8  -4682971.98249  21686422.2404
  23108996.385    11622784.948 7   9015330.32549  23108998.5414
  22728272.557    -5822603.947 7  -4472637.97549  22728274.8654
  22901305.994    12063772.718 8   9348723.53249  22901306.3574
  23413882.783    -3137082.936 7  -2412672.77349  23413883.3114
 95  2 12 16 51  0.0020000  0  5 14 15 22 25 29
  21681555.393    -6098235.853 8  -4702896.34349  21681556.5184
  23130101.205    11733692.594 6   9101751.80249  23130103.3734
  22721856.041    -5856321.406 7  -4498911.30149  22721858.4904
  22921430.260    12169527.757 8   9431130.00949  22921430.9514
  23409564.533    -3159775.372 7  -2430355.19549  23409565.3774
 95  2 12 16 51 30.0020000  0  5 14 15 22 25 29
  21676750.744    -6123482.871 8  -4722569.35549  21676751.8224
  23151259.744    11844882.456 6   9188393.18849  23151262.1824
  22715517.338    -5889631.764 7  -4524867.39549  22715519.5884
  22941591.275    12275474.081 8   9513685.53749  22941592.0254
  23405255.752    -3182418.922 7  -2447999.52549  23405256.4674
 95  2 12 16 52  0.0020000  0  5 14 15 22 25 29
  21672006.197    -6148416.366 8  -4741998.06249  21672007.2644
  23172471.697    11956350.731 6   9275251.51749  23172474.2524
  22709256.838    -5922531.298 7  -4550503.36649  22709259.0534
  22961789.416    12381617.565 8   9596394.69849  22961790.1074
  23400956.486    -3205011.778 7  -2465604.36049  23400957.5884
 95  2 12 16 52 30.0030000  0  5 14 15 22 25 29
  21667323.608    -6173023.731 8  -4761172.63949  21667324.5814
  23193736.882    12068099.489 6   9362328.40949  23193739.3904
  22703074.476    -5955018.650 7  -4575818.15549  22703076.7724
  22982030.796    12487985.380 8   9679278.66049  22982031.5114
  23396666.546    -3227555.077 7  -2483170.56949  23396667.5304
 95  2 12 16 53  0.0030000  0  5 14 15 22 25 29
  21662704.960    -6197296.035 8  -4780086.12949  21662705.9214
  23215053.265    12180116.568 6   9449614.37249  23215055.8194
  22696971.749    -5987088.284 7  -4600807.45349  22696974.3274
  23002315.741    12594582.317 8   9762341.16049  23002316.3394
  23392382.608    -3250066.219 7  -2500711.72649  23392383.3004
 95  2 12 16 53 30.0030000  0  5 14 15 22 25 29
  21658151.085    -6221225.725 8  -4798732.65149  21658151.9994
  23236420.288    12292400.517 6   9537108.28249  23236422.7844
  22690946.702    -6018750.119 7  -4625478.98449  22690949.2224
  23022641.390    12701393.941 8   9845570.94649  23022641.9644
  23388105.358    -3272542.803 7  -2518225.95549  23388106.1324
 95  2 12 16 54  0.0030000  0  5 14 15 22 25 29
  21653664.733    -6244801.671 8  -4817103.52849  21653665.6594
  23257836.866    12404946.194 6   9624806.14049  23257839.4914
  22684996.413    -6050017.170 7  -4649842.88849  22684998.8624
  23043005.788    12808408.412 8   9928958.79349  23043006.4334
  23383836.749    -3294974.328 6  -2535705.06649  23383837.5934
 95  2 12 16 54 30.0030000  0  5 14 15 22 25 29
  21649248.069    -6268011.675 8  -4835189.25749  21649249.0894
  23279302.897    12517749.737 6   9712704.92649  23279305.5114
  22679123.077    -6080886.337 7  -4673896.74949  22679125.3624
  23063405.663    12915609.823 8  10012492.30449  23063406.1084
  23379577.358    -3317358.681 7  -2553147.42249  23379578.2844
 95  2 12 16 55  0.0030000  0  5 14 15 22 25 29
  21644901.929    -6290851.742 8  -4852986.71949  21644902.7264
  23300817.468    12630808.908 6   9800802.91049  23300820.0584
  22673325.030    -6111355.251 7  -4697638.73049  22673327.2454
  23083835.530    13022971.111 8  10096150.40149  23083835.9764
  23375326.679    -3339695.966 7  -2570553.11349  23375327.5224
 95  2 12 16 55 30.0030000  0  5 14 15 22 25 29
  21640628.061    -6313310.819 8  -4870487.31249  21640628.8354
  23322380.733    12744124.911 6   9889101.01749  23322382.9604
  22667601.382    -6141430.594 7  -4721074.03149  22667603.3154
  23104295.163    13130487.984 8  10179929.73349  23104295.8544
  23371087.757    -3361972.607 7  -2587911.56849  23371089.7374
 95  2 12 16 56  0.0030000  0  5 14 15 22 25 29
  21636427.101    -6335387.744 8  -4887690.12149  21636427.8624
  23343991.522    12857690.237 6   9977593.39449  23343993.7724
  22661953.397    -6171111.166 7  -4744201.72449  22661955.5074
  23124786.249    13238168.945 8  10263836.91549  23124787.0224
  23366858.522    -3384197.282 7  -2605229.47649  23366859.4014
 95  2 12 16 56 30.0030000  0  5 14 15 22 25 29
  21632297.843    -6357086.771 8  -4904598.46949  21632298.4994
  23365648.749    12971498.260 6  10066274.88949  23365650.8824
  22656380.788    -6200394.834 7  -4767020.14049  22656382.9564
  23145308.452    13346014.794 7  10347872.58849  23145309.5194
  23362638.233    -3406373.849 7  -2622509.91949  23362639.2884
 95  2 12 16 57  0.0030000  0  5 14 15 22 25 29
  21628238.397    -6378419.106 8  -4921221.08149  21628239.1944
  23387351.804    13085547.003 6  10155143.96449  23387354.1594
  22650883.077    -6229287.248 7  -4789533.68649  22650885.3394
  23165864.327    13454036.826 7  10432045.54349  23165865.3124
  23358425.187    -3428515.772 7  -2639763.37649  23358425.6904
 95  2 12 16 57 30.0030000  0  5 14 15 22 25 29
  21624247.671    -6399389.783 8  -4937561.88149  21624248.6084
  23409100.202    13199836.881 6  10244200.93649  23409102.6634
  22645460.702    -6257779.694 7  -4811735.56049  22645462.9764
  23186454.757    13562238.969 7  10516358.84649  23186455.6124
  23354217.444    -3450626.818 7  -2656992.76949  23354217.9484
 95  2 12 16 58  0.0030000  0  5 14 15 22 25 29
  21620326.210    -6419998.759 8  -4953620.83449  21620327.1834
  23430894.233    13314365.813 6  10333444.18649  23430896.8124
  22640118.132    -6285854.525 7  -4833612.02949  22640120.3124
  23207078.093    13670613.564 7  10600806.53049  23207078.9484
  23350012.366    -3472725.313 7  -2674212.37349  23350013.0464
 95  2 12 16 58 30.0030000  0  5 14 15 22 25 29
  21616472.765    -6440249.106 8  -4969400.33949  21616473.7614
  23452734.882    13429138.464 6  10422877.34849  23452737.6834
  22634858.233    -6313497.537 7  -4855152.00949  22634860.3904
  23227733.077    13779154.167 7  10685383.56949  23227733.9564
  23345808.437    -3494814.913 7  -2691425.05249  23345809.2104
 95  2 12 16 59  0.0030000  0  5 14 15 22 25 29
  21612686.991    -6460143.203 8  -4984902.24549  21612688.0934
  23474620.085    13544143.943 6  10512491.93649  23474623.0504
  22629680.296    -6340705.663 7  -4876353.12149  22629682.5464
  23248415.757    13887844.519 7  10770077.29449  23248416.6364
  23341603.710    -3516910.804 7  -2708642.61749  23341604.9294
 95  2 12 16 59 30.0030000  0  5 14 15 22 25 29
  21608975.718    -6479645.720 8  -5000099.02849  21608976.8434
  23496549.702    13659385.659 6  10602290.60449  23496552.3044
  22624590.765    -6367453.491 7  -4897195.56349  22624593.1324
  23269128.866    13996691.571 7  10854893.12349  23269129.8274
  23337403.116    -3538984.502 7  -2725842.89949  23337404.1364
 95  2 12 17  0  0.0030000  0  5 14 15 22 25 29
  21605341.085    -6498745.792 8  -5014982.21449  21605342.1984
  23518523.913    13774860.866 6  10692271.19849  23518526.7024
  22619587.897    -6393742.208 7  -4917680.25649  22619589.9134
  23289873.171    14105702.565 8  10939836.70649  23289874.0624
  23333210.679    -3561020.237 7  -2743013.59849  23333211.2764
 95  2 12 17  0 30.0030000  0  5 14 15 22 25 29
  21601783.858    -6517439.940 8  -5029549.09449  21601784.7724
  23540542.030    13890565.504 6  10782430.58749  23540544.9724
  22614671.069    -6419581.121 7  -4937814.45149  22614673.2614
  23310648.819    14214881.489 7  11024911.13849  23310649.8044
  23329027.765    -3583000.347 7  -2760140.95849  23329028.2694
 95  2 12 17  1  0.0030000  0  5 14 15 22 25 29
  21598307.280    -6535709.139 8  -5043784.84449  21598308.2064
  23562603.202    14006500.469 6  10872769.44249  23562606.1794
  22609839.640    -6444970.082 7  -4957598.03549  22609842.0544
  23331460.366    14324244.800 7  11110129.25149  23331461.0934
  23324860.999    -3604895.948 7  -2777202.46249  23324861.9134
 95  2 12 17  1 30.0030000  0  5 14 15 22 25 29
  21594908.913    -6553566.069 8  -5057699.34749  21594910.0504
  23584708.108    14122659.289 6  10963282.73149  23584711.3084
  22605092.272    -6469916.845 7  -4977037.04849  22605094.7694
  23352305.632    14433787.086 7  11195486.82349  23352306.3704
  23320712.663    -3626695.562 7  -2794189.17249  23320713.1674
 95  2 12 17  2  0.0030000  0  5 14 15 22 25 29
  21591583.749    -6571041.063 8  -5071316.23449  21591584.8514
  23606853.757    14239036.093 6  11053965.87449  23606856.5694
  22600428.007    -6494426.241 7  -4996135.26449  22600430.5504
  23373182.741    14543496.594 7  11280974.69749  23373183.5734
  23316580.702    -3648407.858 7  -2811107.84749  23316581.5224
 95  2 12 17  2 30.0030000  0  5 14 15 22 25 29
  21588332.382    -6588127.579 8  -5084630.40849  21588333.4954
  23629041.694    14355635.735 6  11144822.65849  23629045.0224
  22595850.921    -6518479.433 7  -5014877.99349  22595853.3004
  23394092.015    14653377.567 7  11366596.18449  23394092.7064
  23312466.476    -3670030.331 7  -2827956.52749  23312467.1324
 95  2 12 17  3  0.0030000  0  5 14 15 22 25 29
  21585155.851    -6604820.943 8  -5097638.22949  21585157.0344
  23651271.749    14472450.912 6  11235847.39349  23651274.4684
  22591362.241    -6542068.057 7  -5033258.72149  22591364.4564
  23415033.069    14763421.602 7  11452344.73749  23415033.5624
  23308366.007    -3691577.940 7  -2844746.86249  23308366.8974
 95  2 12 17  3 30.0030000  0  5 14 15 22 25 29
  21582054.265    -6621119.002 8  -5110338.02149  21582055.4374
  23673540.335    14589475.246 6  11327035.10749  23673543.1594
  22586962.694    -6565189.580 7  -5051275.47149  22586964.6404
  23436001.874    14873611.942 7  11538207.29549  23436002.4254
  23304274.390    -3713079.454 7  -2861501.29049  23304275.3154
 95  2 12 17  4  0.0030000  0  5 14 15 22 25 29
  21579032.546    -6636998.389 8  -5122711.57949  21579033.6364
  23695849.733    14706712.346 6  11418388.60449  23695852.7924
  22582654.022    -6587831.885 7  -5068918.81149  22582655.8864
  23457001.046    14983965.234 7  11624196.82849  23457001.4564
  23300189.140    -3734546.727 7  -2878229.04149  23300189.7844
 95  2 12 17  4 30.0030000  0  5 14 15 22 25 29
  21576096.882    -6652424.990 8  -5134732.31649  21576097.9724
  23718200.616    14824165.986 6  11509910.83949  23718203.7224
  22578436.702    -6609994.349 7  -5086188.25449  22578438.6124
  23478033.866    15094493.540 7  11710322.73149  23478034.5114
  23296109.397    -3755986.207 7  -2894935.13549  23296110.2184
 95  2 12 17  5  0.0030000  0  6 18 14 15 22 25 29
  25672828.835      -17232.75215
  21573247.171    -6667401.743 8  -5146402.51949  21573248.2494
  23740590.140    14941826.101 6  11601593.96449  23740592.8824
  22574308.265    -6631686.868 7  -5103091.50249  22574310.5974
  23499097.421    15205181.106 7  11796572.73349  23499098.1474
  23292033.499    -3777403.524 7  -2911623.96249  23292034.4604
 95  2 12 17  5 30.0030000  0  6 18 14 15 22 25 29
  25663882.304      -64245.506 5
  21570480.835    -6681937.985 8  -5157729.46549  21570481.8434
  23763018.452    15059685.879 6  11693432.67249  23763020.8544
  22570267.827    -6652920.349 7  -5119637.05849  22570269.9724
  23520191.077    15316029.583 7  11882948.12549  23520191.9444
  23287964.382    -3798790.928 7  -2928289.46849  23287965.0974
 95  2 12 17  6  0.0030000  0  5 14 15 22 25 29
  21567796.913    -6696042.536 8  -5168720.02949  21567798.1444
  23785483.366    15177736.406 6  11785420.01649  23785485.4054
  22566313.429    -6673701.514 7  -5135830.15949  22566315.3394
  23541313.085    15427029.154 7  11969441.25149  23541313.9764
  23283900.132    -3820148.074 7  -2944931.41749  23283901.1404
 95  2 12 17  6 30.0030000  0  6 18 14 15 22 25 29
  25645985.358      -36052.61513
  21565194.671    -6709717.140 8  -5179375.57349  21565195.8544
  23807984.827    15295982.288 6  11877559.58049  23807987.0544
  22562445.882    -6694024.470 7  -5151666.21349  22562447.8514
  23562462.069    15538164.501 7  12056040.17249  23562463.1124
  23279844.155    -3841462.413 7  -2961539.99849  23279844.9874
 95  2 12 17  7  0.0030000  0  6 18 14 15 22 25 29
  25637031.858      -83102.781 3
  21562669.999    -6722984.892 8  -5189714.08949  21562671.2654
  23830521.155    15414412.053 6  11969842.43049  23830523.2064
  22558666.499    -6713888.635 7  -5167144.76849  22558668.3744
  23583632.522    15649415.470 7  12142729.18849  23583633.6714
  23275797.851    -3862727.415 7  -2978110.13349  23275798.3904
 95  2 12 17  7 30.0030000  0  6 18 14 15 22 25 29
  25628074.257     -130173.317 3    -34232.97258  25628077.9374
  21560223.999    -6735839.487 8  -5199730.66649  21560225.1714
  23853093.210    15533029.010 6  12062271.13849  23853095.7064
  22554973.929    -6733290.477 7  -5182263.07449  22554975.6514
  23604827.069    15760793.910 7  12229517.53849  23604828.1244
  23271759.515    -3883947.238 7  -2994645.06449  23271760.0894
 95  2 12 17  8  0.0030000  0  6 18 14 15 22 25 29
  25619115.679     -177255.458 3    -70920.33146  25619118.3624
  21557856.233    -6748281.690 8  -5209425.89749  21557857.3824
  23875700.069    15651827.778 6  12154841.51749  23875702.5544
  22551373.054    -6752215.449 7  -5197009.79749  22551375.0584
  23626043.663    15872287.945 7  12316395.95849  23626044.7764
  23267728.694    -3905128.879 7  -3011150.24649  23267729.3864
 95  2 12 17  8 30.0030000  0  6 18 14 15 22 25 29
  25610152.155     -224362.031 4   -107626.73747  25610154.8624
  21555568.226    -6760304.819 8  -5218794.57649  21555569.5264
  23898340.702    15770805.281 6  12247551.16449  23898343.2454
  22547865.108    -6770648.397 7  -5211373.12749  22547867.2414
  23647284.405    15983908.713 7  12403373.14349  23647285.4254
  23263708.741    -3926253.698 7  -3027611.15249  23263709.6554
 95  2 12 17  9  0.0030000  0  6 18 14 15 22 25 29
  25601182.991     -271493.776 4   -144352.74647  25601184.5734
  21553362.147    -6771898.094 8  -5227828.30649  21553363.3784
  23921014.069    15889954.170 6  12340394.36749  23921016.5074
  22544451.679    -6788587.162 8  -5225351.37849  22544453.7534
  23668550.476    16095662.199 7  12490453.73649  23668551.4374
  23259700.233    -3947318.011 7  -3044024.90549  23259701.2764
 95  2 12 17  9 30.0030000  0  6 18 14 15 22 25 29
  25592210.093     -318648.370 4   -181096.57348  25592213.0814
  21551239.022    -6783055.964 8  -5236522.76149  21551240.2294
  23943719.952    16009274.282 6  12433370.98349  23943722.5194
  22541132.835    -6806025.576 8  -5238939.73849  22541134.9794
  23689843.085    16207555.676 7  12577643.41049  23689844.0814
  23255703.983    -3968319.503 7  -3060389.71349  23255704.8044
 95  2 12 17 10  0.0030000  0  6 18 14 15 22 25 29
  25583229.624     -365836.910 4   -217866.82847  25583231.0894
  21549199.296    -6793774.724 8  -5244875.05649  21549200.5034
  23966457.999    16128763.425 6  12526479.32249  23966460.7764
  22537913.296    -6822946.101 8  -5252124.55849  22537915.5224
  23711162.366    16319588.049 7  12664941.31249  23711163.2334
  23251720.429    -3989252.635 7  -3076701.26549  23251720.7924
 95  2 12 17 10 30.0030000  0  6 18 14 15 22 25 29
  25574244.249     -413059.530 4   -254663.67748  25574247.2614
  21547244.476    -6804047.076 8  -5252879.50149  21547245.6124
  23989227.647    16248417.229 6  12619715.95249  23989229.9914
  22534789.249    -6839362.385 8  -5264916.46449  22534791.3474
  23732507.874    16431760.470 7  12752348.34549  23732508.8004
  23247748.976    -4010123.666 7  -3092964.42049  23247749.6444
 95  2 12 17 11  0.0030000  0  6 18 14 15 22 25 29
  25565254.038     -460304.371 4   -291477.80848  25565257.0384
  21545372.562    -6813883.720 8  -5260544.43449  21545373.7334
  24012027.444    16368232.175 6  12713078.15149  24012029.8354
  22531758.749    -6855288.734 8  -5277326.60049  22531760.7884
  23753879.327    16544067.221 7  12839860.05349  23753880.1124
  23243785.944    -4030950.397 7  -3109193.04849  23243786.4954
 95  2 12 17 11 30.0030000  0  6 18 14 15 22 25 29
  25556259.140     -507575.529 5   -328312.49347  25556262.4914
  21543584.233    -6823282.357 8  -5267868.06149  21543585.3704
  24034858.530    16488210.136 6  12806567.36549  24034861.6364
  22528822.577    -6870717.362 8  -5289348.89449  22528824.6634
  23775278.069    16656517.030 7  12927483.23149  23775278.8314
  23239830.765    -4051732.577 7  -3125386.96149  23239831.2924
 95  2 12 17 12  0.0030000  0  6 18 14 15 22 25 29
  25547258.937     -554866.272 4   -365162.48647  25547260.6014
  21541881.694    -6832229.416 8  -5274839.81549  21541882.8784
  24057719.476    16608345.437 6  12900179.19649  24057722.6984
  22525980.085    -6885653.751 8  -5300987.62749  22525982.2184
  23796702.421    16769103.962 7  13015213.25949  23796703.2184
  23235884.577    -4072471.567 7  -3141547.22649  23235885.1874
 95  2 12 17 12 30.0030000  0  6 18 14 15 22 25 29
  25538258.366                       -7882.90214
  21540262.491    -6840737.487 8  -5281469.49749  21540263.9444
  24080608.616    16728627.596 6  12993905.45449  24080611.1244
  22523227.640    -6900118.874 8  -5312259.13949  22523229.7724
  23818148.679    16881805.587 7  13103032.66549  23818149.4524
  23231946.288    -4093166.333 7  -3157673.02949  23231947.3434
 95  2 12 17 13  0.0030000  0  6 18 14 15 22 25 29
  25529255.116                      -55196.572 4
  21538726.327    -6848810.436 8  -5287760.12349  21538727.6874
  24103525.147    16849054.610 6  13087744.57649  24103528.2534
  22520565.585    -6914109.445 8  -5323160.87249  22520567.4254
  23839614.944    16994611.438 7  13190933.27949  23839615.7294
  23228018.054    -4113809.156 7  -3173758.36049  23228019.0504
 95  2 12 17 13 30.0030000  0  6 18 14 15 22 25 29
  25520251.030     -102513.557 5    -14747.20859  25520255.4724
  21537275.835    -6856432.629 8  -5293699.51149  21537277.2534
  24126469.772    16969628.701 6  13181698.30349  24126472.8904
  22517997.390    -6927604.633 8  -5333676.59449  22517999.3114
  23861100.858    17107519.405 7  13278913.45949  23861101.8904
  23224101.382    -4134392.454 7  -3189797.31749  23224102.3664
 95  2 12 17 14  0.0030000  0  6 18 14 15 22 25 29
  25511248.702     -149821.837 5    -51610.83749  25511251.2694
  21535909.835    -6863611.690 8  -5299293.60749  21535911.1014
  24149440.999    17090343.818 6  13275761.92349  24149443.9524
  22515523.280    -6940605.284 8  -5343806.95949  22515525.3434
  23882603.960    17220517.913 7  13366964.18949  23882604.8974
  23220193.311    -4154928.853 7  -3205799.72049  23220194.3434
 95  2 12 17 14 30.0030000  0  6 18 14 15 22 25 29
  25502246.124     -197128.285 5    -88473.00949  25502248.0814
  21534628.366    -6870346.056 8  -5304541.18249  21534629.6204
  24172438.937    17211198.837 6  13369934.56149  24172442.3824
  22513146.569    -6953096.716 8  -5353540.53149  22513148.5614
  23904123.726    17333603.488 7  13455082.75649  23904124.7104
  23216294.436    -4175418.453 7  -3221765.65949  23216295.4564
 95  2 12 17 15  0.0030000  0  6 18 14 15 22 25 29
  25493241.351     -244448.916 5   -125346.26348  25493244.9254
  21533433.780    -6876623.608 8  -5309432.80949  21533435.1044
  24195464.147    17332194.882 6  13464217.06049  24195468.2144
  22510868.929    -6965064.481 8  -5362866.05849  22510870.8514
  23925663.569    17446798.498 7  13543286.58849  23925664.6364
  23212402.772    -4195868.418 7  -3237700.71849  23212403.8514
 95  2 12 17 15 30.0030000  0  6 18 14 15 22 25 29
  25484230.936     -291798.066 5   -162241.74648  25484233.7844
  21532326.265    -6882444.138 8  -5313968.30449  21532327.5894
  24218513.749    17453324.235 6  13558603.46049  24218517.3234
  22508691.983    -6976502.379 7  -5371778.69849  22508693.8944
  23947225.257    17560105.150 7  13631577.42049  23947226.4174
  23208517.593    -4216284.503 7  -3253609.37749  23208518.7764
 95  2 12 17 16  0.0030000  0  6 18 14 15 22 25 29
  25475212.858     -339186.213 4   -199167.62448  25475216.6554
  21531305.929    -6887805.602 8  -5318146.08449  21531307.3004
  24241589.210    17574582.979 6  13653090.67349  24241593.0304
  22506614.530    -6987419.633 7  -5380285.64349  22506616.5694
  23968806.788    17673515.788 7  13719949.28449  23968807.8084
  23204641.585    -4236654.759 7  -3269482.31749  23204642.5464
 95  2 12 17 16 30.0030000  0  6 18 14 15 22 25 29
  25466187.647     -386615.547 5   -236125.53249  25466190.6244
  21530375.304    -6892695.794 8  -5321956.64249  21530376.7454
  24264688.397    17695971.543 6  13747679.05049  24264692.0544
  22504636.390    -6997814.799 7  -5388385.76549  22504638.4054
  23990407.530    17787029.755 7  13808401.66749  23990408.6444
  23200776.413    -4256965.785 7  -3285309.10449  23200776.9174
 95  2 12 17 17  0.0030000  0  6 18 14 15 22 25 29
  25457155.780     -434076.775 5   -273108.33349  25457158.9914
  21529533.147    -6897121.847 8  -5325405.53049  21529534.7064
  24287811.835    17817484.260 6  13842364.16049  24287815.2804
  22502757.561    -7007689.106 7  -5396080.02349  22502759.6014
  24012028.437    17900648.642 7  13896935.80149  24012029.7024
  23196922.530    -4277220.689 7  -3301092.16649  23196923.3394
 95  2 12 17 17 30.0030000  0  6 18 14 15 22 25 29
  25448121.733     -481550.258 5   -310100.65349  25448124.5694
  21528779.640    -6901082.615 8  -5328491.86349  21528780.9524
  24310958.561    17939117.973 6  13937143.55249  24310962.3234
  22500979.108    -7017035.421 8  -5403362.86149  22500981.0774
  24033667.921    18014362.236 7  13985543.72749  24033669.1044
  23193080.718    -4297407.475 7  -3316822.14549  23193081.5624
 95  2 12 17 18  0.0030000  0  6 18 14 15 22 25 29
  25439089.202     -529020.560 5   -347090.51549  25439091.3944
  21528115.132    -6904573.967 8  -5331212.41649  21528116.4564
  24334126.624    18060867.576 6  14032013.24549  24334130.1284
  22499300.765    -7025854.699 8  -5410235.02249  22499302.7454
  24055325.272    18128171.841 7  14074226.47049  24055326.5034
  23189250.991    -4317531.929 7  -3332503.55949  23189252.1634
 95  2 12 17 18 30.0030000  0  6 18 14 15 22 25 29
  25430057.655     -576479.394 5   -384071.46749  25430059.1324
  21527541.069    -6907591.605 8  -5333563.83749  21527542.3944
  24357317.663    18182737.494 6  14126976.67649  24357321.0034
  22497727.413    -7034122.377 7  -5416677.36249  22497729.5464
  24077006.280    18242107.020 7  14163007.06549  24077007.4764
  23185433.640    -4337592.637 7  -3348135.29949  23185434.8824
 95  2 12 17 19  0.0030000  0  6 18 14 15 22 25 29
  25421027.460     -623934.673 5   -421049.58148  25421030.7534
  21527057.147    -6910134.352 8  -5335545.21849  21527058.3434
  24380530.366    18304720.884 6  14222028.53849  24380533.8474
  22496259.226    -7041838.258 8  -5422689.73249  22496261.3234
  24098712.194    18356170.579 7  14251887.69349  24098713.4484
  23181628.257    -4357589.264 7  -3363717.10349  23181629.4644
 95  2 12 17 19 30.0030000  0  6 18 14 15 22 25 29
  25411994.741     -671402.029 5   -458037.17349  25411996.7694
  21526665.780    -6912189.405 8  -5337146.57549  21526667.0934
  24403764.749    18426814.357 6  14317166.16949  24403768.3824
  22494893.062    -7049016.680 8  -5428283.31049  22494895.1474
  24120439.851    18470350.003 7  14340858.59649  24120441.1164
  23177835.780    -4377520.403 7  -3379247.87649  23177836.6364
 95  2 12 17 20  0.0040000  0  6 18 14 15 22 25 29
  25402957.395     -718892.637 5   -495042.83649  25402959.7274
  21526371.691    -6913736.203 8  -5338351.88949  21526373.0044
  24427019.285    18549019.686 6  14412390.95349  24427022.9534
  22493628.723    -7055661.210 8  -5433460.86749  22493630.7384
  24142189.363    18584646.066 7  14429920.40149  24142190.9574
  23174056.113    -4397384.410 7  -3394726.33749  23174057.0394
 95  2 12 17 20 30.0040000  0  6 18 14 15 22 25 29
  25393916.457     -766404.705 5   -532065.22249  25393919.2704
  21526176.105    -6914763.803 8  -5339152.63949  21526177.4654
  24450294.293    18671329.427 6  14507697.10649  24450297.7034
  22492465.348    -7061774.508 8  -5438224.47749  22492467.2814
  24163958.137    18699041.136 7  14519059.34149  24163959.7304
  23170291.082    -4417168.368 7  -3410142.42849  23170291.9024
 95  2 12 17 21  0.0040000  0  6 18 14 15 22 25 29
  25384870.176     -813940.025 5   -569105.77249  25384872.4844
  21526080.348    -6915265.697 8  -5339543.74749  21526081.7664
  24473589.395    18793746.345 6  14603086.77349  24473593.3324
  22491402.293    -7067361.950 8  -5442578.33149  22491404.2854
  24185741.449    18813512.972 7  14608258.09949  24185743.0554
  23166540.684    -4436876.956 7  -3425499.78249  23166541.4224
 95  2 12 17 21 30.0040000  0  6 18 14 15 22 25 29
  25375822.957     -861486.750 5   -606155.21349  25375826.0514
  21526084.473    -6915246.562 8  -5339528.85749  21526085.7734
  24496904.770    18916268.252 6  14698558.24549  24496908.5084
  22490440.660    -7072415.234 8  -5446515.95849  22490442.7114
  24207539.762    18928060.478 7  14697515.82849  24207541.2734
  23162805.144    -4456508.697 7  -3440797.26049  23162805.8594
 95  2 12 17 22  0.0040000  0  6 18 14 15 22 25 29
  25366773.965     -909035.654 5   -643206.30549  25366776.0624
  21526182.324    -6914731.858 8  -5339127.81149  21526183.7544
  24520239.035    19038890.866 6  14794108.18449  24520242.7974
  22489583.613    -7076917.915 8  -5450024.54249  22489585.6054
  24229351.402    19042684.267 7  14786832.99349  24229352.8444
  23159082.238    -4476072.245 7  -3456041.60249  23159083.1054
 95  2 12 17 22 30.0040000  0  6 18 14 15 22 25 29
  25357726.473     -956581.647 5   -680255.13849  25357730.0124
  21526368.894    -6913749.625 8  -5338362.45749  21526370.2894
  24543592.184    19161611.429 6  14889734.45249  24543595.6174
  22488832.684    -7080864.043 8  -5453099.45349  22488834.8284
  24251178.512    19157385.418 7  14876210.44649  24251180.0474
  23155370.082    -4495579.114 7  -3471241.77349  23155370.9844
 95  2 12 17 23  0.0040000  0  6 18 14 15 22 25 29
  25348679.535    -1004127.807 5   -717304.11249  25348681.9494
  21526641.535    -6912317.583 8  -5337246.60449  21526642.9534
  24566962.066    19284421.985 6  14985430.84849  24566965.9574
  22488188.793    -7084248.327 8  -5455736.56149  22488190.8914
  24273019.527    19272164.687 7  14965648.77149  24273020.9694
  23151666.527    -4515041.373 7  -3486407.19249  23151667.2544
 95  2 12 17 23 30.0040000  0  6 18 14 15 22 25 29
  25339631.262    -1051671.529 5   -754351.15948  25339633.9104
  21526999.465    -6910437.502 8  -5335781.62849  21527001.0004
  24590348.738    19407320.261 6  15081195.59249  24590353.0394
  22487651.598    -7087071.011 8  -5457936.05949  22487653.5904
  24294879.113    19387033.956 7  15055157.22949  24294880.4844
  23147972.348    -4534456.268 7  -3501535.69349  23147972.9344
 95  2 12 17 24  0.0040000  0  6 18 14 15 22 25 29
  25330584.590    -1099212.235 5   -791395.88049  25330588.1174
  21527445.387    -6908094.198 8  -5333955.70349  21527446.9104
  24613752.645    19530307.806 6  15177029.88749  24613756.3954
  22487222.121    -7089329.032 8  -5459695.56149  22487224.2194
  24316755.645    19501996.529 7  15144738.38249  24316757.0624
  23144287.496    -4553820.212 7  -3516624.49649  23144288.1414
 95  2 12 17 24 30.0040000  0  6 18 14 15 22 25 29
  25321538.230    -1146754.934 5   -828442.13049  25321541.2304
  21527982.918    -6905269.667 8  -5331754.79149  21527984.4654
  24637171.957    19653376.152 6  15272927.14949  24637175.7544
  22486896.762    -7091038.141 8  -5461027.33649  22486898.9304
  24338650.371    19617053.304 7  15234392.95749  24338651.7194
  23140612.887    -4573131.554 7  -3531672.30949  23140613.4374
 95  2 12 17 25  0.0040000  0  6 18 14 15 22 25 29
  25312489.723    -1194301.699 5   -865491.54949  25312494.1054
  21528615.246    -6901947.768 8  -5329166.31649  21528616.6294
  24660606.012    19776523.419 6  15368885.91049  24660609.6214
  22486674.980    -7092203.130 8  -5461935.11649  22486676.9374
  24360561.145    19732192.440 7  15324111.69649  24360562.4694
  23136949.340    -4592381.533 7  -3546672.29949  23136950.3014
 95  2 12 17 25 30.0040000  0  6 18 14 15 22 25 29
  25303441.152    -1241851.758 5   -902543.55349  25303443.8714
  21529345.754    -6898108.578 8  -5326174.76149  21529347.1484
  24684055.770    19899748.809 6  15464905.52649  24684059.6844
  22486556.449    -7092827.782 8  -5462421.85949  22486558.3714
  24382486.246    19847408.734 7  15413890.55949  24382487.6414
  23133299.207    -4611563.950 7  -3561619.64749  23133300.0744
 95  2 12 17 26  0.0040000  0  6 18 14 15 22 25 29
  25294395.449    -1289390.826 5   -939586.99349  25294398.4614
  21530176.418    -6893743.017 8  -5322773.05049  21530177.6954
  24707520.004    20023055.168 5  15560988.24149  24707524.7504
  22486542.699    -7092900.313 8  -5462478.38749  22486544.6454
  24404425.988    19962704.893 7  15503731.64549  24404427.2664
  23129663.137    -4630671.524 7  -3576508.67949  23129663.8164
 95  2 12 17 26 30.0040000  0  6 18 14 15 22 25 29
  25285348.660    -1336930.541 5   -976630.96649  25285351.1444
  21531105.535    -6888860.817 8  -5318968.76149  21531106.9304
  24730997.645    20146430.478 5  15657124.70749  24731002.7544
  22486632.793    -7092426.139 8  -5462108.90949  22486634.7154
  24426377.098    20078058.243 7  15593617.31049  24426378.5744
  23126039.965    -4649710.387 7  -3591344.16849  23126041.0554
 95  2 12 17 27  0.0040000  0  6 18 14 15 22 25 29
  25276300.098    -1384480.149 5  -1013682.61549  25276302.8404
  21532132.613    -6883463.566 8  -5314763.13449  21532133.9964
  24754487.863    20269870.487 5  15753311.57749  24754492.3984
  22486829.527    -7091393.048 8  -5461303.91349  22486831.4844
  24448338.449    20193466.162 7  15683545.49249  24448339.4804
  23122430.199    -4668679.195 7  -3606125.07249  23122431.1254
 95  2 12 17 27 30.0040000  0  6 18 14 15 22 25 29
  25267250.629    -1432036.667 5  -1050739.65649  25267254.6134
  21533258.605    -6877546.926 8  -5310152.78949  21533259.9654
  24777990.043    20393375.195 6  15849548.83849  24777993.5944
  22487135.371    -7089785.620 8  -5460051.38349  22487137.1524
  24470315.090    20308950.425 7  15773533.15249  24470316.3914
  23118834.723    -4687576.035 7  -3620849.89649  23118835.6484
 95  2 12 17 28  0.0040000  0  6 18 14 15 22 25 29
  25258200.660    -1479597.088 5  -1087799.71049  25258203.4144
  21534482.121    -6871117.969 8  -5305143.23349  21534483.3404
  24801504.645    20516944.942 5  15945836.79449  24801508.5004
  22487552.066    -7087595.049 8  -5458344.45249  22487553.8714
  24492305.574    20424515.371 6  15863583.69149  24492307.0514
  23115255.379    -4706384.449 7  -3635505.81849  23115256.1524
 95  2 12 17 28 30.0040000  0  6 18 14 15 22 25 29
  25249148.160    -1527167.945 5  -1124867.92949  25249149.7774
  21535805.090    -6864165.513 8  -5299725.75949  21535806.1334
  24825031.590    20640581.831 5  16042177.07049  24825035.8674
  22488079.176    -7084824.887 8  -5456185.89049  22488080.9694
  24514312.262    20540164.456 6  15953699.78449  24514313.6684
  23111695.457    -4725092.686 7  -3650083.68249  23111696.0554
 95  2 12 17 29  0.0040000  0  6 18 14 15 22 25 29
  25240095.152    -1574745.956 5  -1161941.70649  25240098.2814
  21537225.004    -6856703.577 8  -5293911.29049  21537226.3054
  24848569.949    20764277.172 5  16138562.87049  24848573.8054
  22488717.121    -7081473.848 8  -5453574.70549  22488719.1724
  24536336.348    20655897.388 6  16043881.21049  24536337.4964
  23108151.918    -4743713.191 7  -3664593.19049  23108152.4224
 95  2 12 17 29 30.0040000  0  6 18 14 15 22 25 29
  25231040.988    -1622323.536 5  -1199015.15949  25231043.4374
  21538743.004    -6848726.574 8  -5287695.46849  21538744.3984
  24872119.996    20888028.666 5  16234992.44549  24872124.2734
  22489462.730    -7077553.712 8  -5450520.05949  22489464.9344
  24558372.598    20771701.061 6  16134117.75749  24558374.1564
  23104625.793    -4762244.192 7  -3679032.94449  23104626.2504
 95  2 12 17 30  0.0040000  0  6 18 14 15 22 25 29
  25221986.723    -1669904.405 5  -1236091.16749  25221989.7934
  21540358.637    -6840237.000 8  -5281080.24449  21540359.9144
  24895678.184    21011829.202 6  16331460.21349  24895682.1914
  22490315.621    -7073072.603 8  -5447028.29449  22490317.9414
  24580421.051    20887563.915 6  16224400.41849  24580422.7384
  23101114.730    -4780694.482 7  -3693409.80749  23101115.3054
 95  2 12 17 30 30.0040000  0  6 18 14 15 22 25 29
  25212931.645    -1717484.284 5  -1273166.40149  25212935.5124
  21542074.738    -6831218.288 8  -5274052.70049  21542075.9694
  24919246.855    21135682.596 6  16427969.18549  24919251.6484
  22491278.637    -7068012.021 8  -5443084.98949  22491280.8524
  24602482.254    21003494.149 6  16314735.57249  24602483.9064
  23097616.051    -4799079.460 7  -3707735.78449  23097616.6954
 95  2 12 17 31  0.0040000  0  6 18 14 15 22 25 29
  25203877.949    -1765063.953 5  -1310241.46949  25203881.0434
  21543893.668    -6821661.134 8  -5266605.59149  21543894.8164
  24942825.113    21259584.825 6  16524516.19549  24942829.3794
  22492352.512    -7062369.640 8  -5438688.33349  22492354.7974
  24624555.574    21119494.361 6  16405125.25649  24624557.1454
  23094127.949    -4817409.572 7  -3722019.00649  23094128.6874
 95  2 12 17 31 30.0040000  0  6 18 14 15 22 25 29
  25194820.098    -1812663.623 5  -1347332.14649  25194822.9924
  21545814.980    -6811564.895 8  -5258738.41949  21545816.0704
  24966410.668    21383527.802 6  16621094.96749  24966414.5824
  22493533.199    -7056165.462 8  -5433853.91849  22493535.5314
  24646644.176    21235564.619 7  16495569.52149  24646645.6764
  23090651.199    -4835679.582 7  -3736255.39549  23090652.3014
 95  2 12 17 32  0.0040000  0  6 18 14 15 22 25 29
  25185760.137    -1860274.832 5  -1384431.80449  25185763.5704
  21547837.684    -6800934.527 8  -5250455.04349  21547838.8204
  24990004.621    21507512.619 6  16717706.34049  24990008.9574
  22494823.895    -7049382.446 8  -5428568.45849  22494826.2734
  24668744.574    21351707.176 6  16586070.12949  24668746.2734
  23087186.660    -4853886.563 7  -3750442.66949  23087187.6334
 95  2 12 17 32 30.0040000  0  6 18 14 15 22 25 29
  25176697.527    -1907893.714 5  -1421537.41749  25176701.8404
  21549962.887    -6789766.116 8  -5241752.41349  21549964.1874
  25013605.699    21631534.824 6  16814346.85649  25013610.8914
  22496223.832    -7042023.978 8  -5422834.60049  22496226.1994
  24690858.121    21467909.356 7  16676617.18749  24690859.6094
  23083734.043    -4872030.070 7  -3764580.48249  23083735.0744
 95  2 12 17 33  0.0040000  0  7 18 14 15 19 22 25 29
  25167637.215    -1955508.736 5  -1458640.02249  25167640.2854
  21552190.566    -6778060.288 8  -5232631.01549  21552191.8094
  25037214.309    21755598.500 6  16911019.67649  25037218.7154
  25986404.777      -20615.52614
  22497734.363    -7034088.453 8  -5416651.08149  22497736.6484
  24712982.004    21584171.472 7  16767210.96049  24712983.7154
  23080297.512    -4890089.827 7  -3778653.03149  23080298.4964
 95  2 12 17 33 30.0040000  0  7 18 14 15 19 22 25 29
  25158579.332    -2003108.579 5  -1495730.82849  25158582.3674
  21554517.402    -6765833.440 8  -5223103.62849  21554518.5864
  25060830.895    21879702.050 6  17007723.56349  25060835.0554
  25974654.035      -82363.473 4
  22499357.137    -7025560.112 8  -5410005.62249  22499359.4694
  24735115.410    21700483.704 6  16857843.77349  24735117.4264
  23076879.004    -4908054.071 7  -3792651.15949  23076879.7194
 95  2 12 17 34  0.0040000  0  7 18 14 15 19 22 25 29
  25149527.863    -2050677.455 5  -1532797.49049  25149530.9804
  21556945.520    -6753074.111 8  -5213161.31849  21556946.8094
  25084453.324    22003839.237 6  17104453.63749  25084456.9224
  25962932.410     -143961.069 4    -36786.51659  25962935.1174
  22501095.480    -7016425.367 8  -5402887.63349  22501097.7424
  24757256.527    21816833.620 6  16948505.94449  24757258.7424
  23073476.590    -4925934.694 7  -3806584.12049  23073477.4344
 95  2 12 17 34 30.0040000  0  7 18 14 15 19 22 25 29
  25140478.613    -2098229.576 5  -1569851.08549  25140480.8284
  21559476.746    -6739771.044 8  -5202795.31449  21559478.2114
  25108082.004    22128008.214 5  17201208.50649  25108085.2034
  25951241.301     -205399.173 5    -84660.31049  25951246.3284
  22502949.246    -7006683.577 8  -5395296.62949  22502951.4494
  24779405.379    21933234.332 6  17039207.70549  24779407.6994
  23070091.512    -4943723.320 7  -3820445.39549  23070092.1684
 95  2 12 17 35  0.0040000  0  7 18 14 15 19 22 25 29
  25131432.051    -2145767.726 5  -1606893.82049  25131435.0984
  21562110.363    -6725932.807 8  -5192012.29849  21562111.6644
  25131715.543    22252201.586 5  17297982.37149  25131719.5044
  25939577.504     -266692.396 4   -132421.25647  25939581.8754
  22504918.879    -6996333.511 8  -5387231.64849  22504921.0704
  24801566.613    22049686.618 6  17129949.64849  24801569.0044
  23066726.254    -4961409.371 7  -3834226.74149  23066726.7704
 95  2 12 17 35 30.0040000  0  7 18 14 15 19 22 25 29
  25122391.348       -7914.60215
  21564849.043    -6711540.593 8  -5180797.61249  21564850.2274
  25155353.660    22376421.427 5  17394776.84149  25155358.5004
  25927939.871     -327848.754 5   -180075.50148  25927943.7154
  22507003.824    -6985376.100 8  -5378693.40149  22507006.0044
  24823739.293    22166202.325 6  17220741.00649  24823741.4494
  23063383.520    -4978975.338 7  -3847914.52849  23063383.8594
 95  2 12 17 36  0.0040000  0  7 18 14 15 19 22 25 29
  25113353.770      -26911.43015
  21567695.769    -6696581.378 8  -5169141.10549  21567696.9304
  25178998.254    22500671.577 5  17491594.95749  25179002.9884
  25916329.504     -388863.020 4   -227619.05548  25916333.6294
  22509202.785    -6973821.203 8  -5369689.58849  22509204.8714
  24845925.215    22282792.603 6  17311590.48949  24845927.4884
  23060063.512    -4996420.097 7  -3861507.85649  23060064.1094
 95  2 12 17 36 30.0040000  0  7 18 14 15 19 22 25 29
  25104316.949      -74402.738 5     -3699.89559  25104320.0084
  21570645.355    -6681080.225 8  -5157062.30949  21570646.5514
  25202645.566    22624943.169 5  17588429.75549  25202650.3594
  25904743.184     -449742.838 4   -275057.80647  25904749.6994
  22511510.910    -6961691.946 8  -5360238.21849  22511513.1374
  24868125.152    22399452.081 6  17402493.88849  24868127.4144
  23056769.129    -5013734.443 7  -3874999.56949  23056769.7734
 95  2 12 17 37  0.0040000  0  7 18 14 15 19 22 25 29
  25095281.637     -121883.495 5    -40697.86249  25095284.3444
  21573696.090    -6665047.969 8  -5144569.66849  21573697.4024
  25226297.277    22749230.626 5  17685276.92549  25226301.7894
  25893184.543     -510486.719 4   -322390.71248  25893190.7304
  22513926.270    -6948999.123 8  -5350347.70549  22513928.5664
  24890335.434    22516169.662 6  17493442.56749  24890337.3444
  23053496.262    -5030932.442 7  -3888400.62249  23053497.1174
 95  2 12 17 37 30.0040000  0  7 18 14 15 19 22 25 29
  25086242.332     -169382.362 5    -77709.96749  25086245.0514
  21576846.559    -6648493.160 8  -5131669.84549  21576847.9654
  25249949.020    22873520.139 5  17782125.68449  25249954.1054
  25881651.965     -571087.776 4   -369612.30348  25881657.3324
  22516446.645    -6935754.912 8  -5340027.54549  22516448.5904
  24912553.230    22632925.285 6  17584420.87649  24912555.1414
  23050239.449    -5048046.899 7  -3901736.57449  23050240.5164
 95  2 12 17 38  0.0040000  0  7 18 14 15 19 22 25 29
  25077198.769     -216906.738 5   -114741.98749  25077200.0824
  21580095.465    -6631419.904 8  -5118366.03749  21580096.8944
  25273600.512    22997810.284 5  17878974.93349  25273605.7854
  25870152.566     -631518.261 4   -416700.94847  25870158.8014
  22519074.504    -6921946.052 8  -5329267.39949  22519076.3094
  24934777.043    22749709.974 6  17675421.82549  24934778.9534
  23046994.652    -5065097.224 7  -3915022.55949  23046995.4844
 95  2 12 17 38 30.0040000  0  7 18 14 15 19 22 25 29
  25068154.113     -264434.842 5   -151776.85449  25068156.4344
  21583446.246    -6613812.930 8  -5104646.34449  21583447.5474
  25297252.723    23122100.757 5  17975824.43549  25297257.0124
  25858688.598     -691758.098 4   -463641.07249  25858692.9344
  22521815.566    -6907539.584 8  -5318041.58549  22521817.3834
  24957008.051    22866533.827 6  17766453.29549  24957009.9024
  23043761.629    -5082088.020 7  -3928262.15749  23043762.4264
 95  2 12 17 39  0.0040000  0  7 18 14 15 19 22 25 29
  25059111.934     -311950.961 5   -188802.40249  25059114.2074
  21586902.145    -6595651.399 8  -5090494.52549  21586903.3874
  25320905.027    23246394.318 5  18072676.32649  25320909.3164
  25847263.535     -751798.141 4   -510425.50649  25847268.8674
  22524676.590    -6892505.613 8  -5306326.81049  22524678.5594
  24979248.027    22983407.249 6  17857523.39949  24979250.3124
  23040537.301    -5099032.465 7  -3941465.63349  23040538.1214
 95  2 12 17 39 30.0040000  0  7 18 14 15 19 22 25 29
  25050072.246     -359458.037 5   -225820.90449  25050074.4494
  21590463.598    -6576935.738 8  -5075910.92249  21590464.8984
  25344555.715    23370678.486 5  18169520.90549  25344560.6954
  25835876.488     -811642.089 4   -557057.14048  25835881.9844
  22527657.816    -6876838.572 8  -5294118.73649  22527660.0904
  25001497.918    23100326.842 6  17948629.47549  25001499.4304
  23037321.238    -5115932.508 7  -3954634.51249  23037322.3404
 95  2 12 17 40  0.0040000  0  7 18 14 15 19 22 25 29
  25041038.340     -406930.707 5   -262812.58849  25041041.2814
  21594131.652    -6557659.253 8  -5060890.31049  21594133.0004
  25368204.566    23494953.528 5  18266358.34949  25368209.8524
  25824525.199     -871289.655 5   -603535.74149  25824531.5624
  22530761.918    -6860526.707 8  -5281408.20249  22530764.2034
  25023756.332    23217300.858 6  18039777.95549  25023758.3244
  23034116.816    -5132772.044 7  -3967756.24249  23034117.6954
 95  2 12 17 40 30.0040000  0  7 18 14 15 19 22 25 29
  25032012.637     -454360.097 5   -299770.56449  25032015.8594
  21597906.973    -6537819.852 8  -5045431.06649  21597908.2854
  25391851.973    23619219.361 5  18363188.63849  25391857.2934
  25813209.613     -930752.378 5   -649870.30149  25813215.6484
  22533988.309    -6843572.842 8  -5268197.40749  22533990.3244
  25046027.770    23334333.123 6  18130971.84049  25046029.9264
  23030926.090    -5149538.163 7  -3980820.76449  23030927.0274
 95  2 12 17 41  0.0040000  0  7 18 14 15 19 22 25 29
  25022990.793     -501770.890 5   -336714.01349  25022993.3714
  21601787.559    -6517427.843 8  -5029541.21349  21601789.1054
  25415495.668    23743466.832 5  18460004.59449  25415500.7304
  25801927.051     -990042.654 4   -696070.47049  25801932.2424
  22537329.473    -6826014.054 8  -5254515.24149  22537331.5824
  25068303.473    23451393.335 6  18222187.47549  25068305.5824
  23027750.941    -5166224.425 7  -3993823.06649  23027751.9374
 95  2 12 17 41 30.0040000  0  7 18 14 15 19 22 25 29
  25013971.355     -549168.899 5   -373647.52449  25013974.8364
  21605773.168    -6496483.894 8  -5013221.27849  21605774.6334
  25439136.059    23867698.343 5  18556808.13649  25439140.8054
  25790677.285    -1049162.184 5   -742137.62549  25790682.7814
  22540784.566    -6807858.834 8  -5240368.32649  22540786.6644
  25090581.816    23568466.962 6  18313413.58349  25090583.9614
  23024593.113    -5182819.394 7  -4006754.22649  23024594.2154
 95  2 12 17 42  0.0040000  0  7 18 14 15 19 22 25 29
  25004951.559     -596567.731 5   -410581.65849  25004955.4614
  21609862.465    -6474994.483 8  -4996476.31349  21609864.0354
  25462772.074    23991908.179 5  18653594.77549  25462777.8634
  25779455.394    -1108133.074 4   -788088.95248  25779461.6994
  22544348.465    -6789129.279 8  -5225773.88049  22544350.4224
  25112860.535    23685541.842 6  18404640.66649  25112862.5044
  23021451.848    -5199326.794 7  -4019617.15049  23021452.9844
 95  2 12 17 42 30.0040000  0  7 18 14 15 19 22 25 29
  24995930.309     -643976.439 5   -447523.50349  24995933.5204
  21614056.277    -6452956.432 8  -4979303.83449  21614057.8364
  25486405.066    24116097.056 5  18750365.06949  25486410.4104
  25768260.824    -1166958.092 4   -833926.63047  25768266.4494
  22548020.004    -6769836.660 8  -5210740.68849  22548021.9964
  25135140.121    23802622.607 6  18495872.33149  25135142.2304
  23018329.613    -5215733.889 7  -4032401.91549  23018330.5744
 95  2 12 17 43  0.0040000  0  7 18 14 15 19 22 25 29
  24986906.105     -691399.517 5   -484476.55349  24986908.2624
  21618355.434    -6430363.854 8  -4961699.25649  21618357.0274
  25510033.316    24240265.658 5  18847119.56849  25510038.4844
  25757095.395    -1225638.041 5   -879651.21248  25757099.8244
  22551799.824    -6749973.935 8  -5195263.27049  22551801.8054
  25157423.699    23919717.603 6  18587115.08649  25157425.4454
  23015229.340    -5232027.676 7  -4045098.39049  23015230.1724
 95  2 12 17 43 30.0040000  0  7 18 14 15 19 22 25 29
  24977880.387     -738828.153 5   -521433.93149  24977883.1294
  21622760.004    -6407217.994 8  -4943663.54949  21622761.3874
  25533656.574    24364404.779 5  18943851.07049  25533661.8014
  25745955.848    -1284176.116 4   -925265.28449  25745960.8054
  22555687.723    -6729540.371 8  -5179341.02049  22555689.9264
  25179711.379    24036843.729 6  18678382.09649  25179713.5594
  23012150.496    -5248208.667 8  -4057706.96549  23012151.1764
 95  2 12 17 44  0.0040000  0  7 18 14 15 19 22 25 29
  24968856.879     -786246.774 5   -558383.48749  24968859.6564
  21627272.449    -6383504.743 8  -4925185.71749  21627273.7974
  25557274.535    24488516.315 5  19040561.10249  25557279.4694
  25734848.855    -1342546.955 5   -970749.03949  25734853.5314
  22559687.684    -6708522.204 8  -5162963.25049  22559689.8874
  25202009.871    24154023.928 6  18769691.23649  25202012.1094
  23009095.816    -5264260.160 8  -4070214.63649  23009096.4734
 95  2 12 17 44 30.0040000  0  7 18 14 15 19 22 25 29
  24959835.324     -833659.031 5   -595328.10149  24959837.9494
  21631892.996    -6359224.531 8  -4906266.09949  21631894.4144
  25580886.191    24612593.218 5  19137244.12849  25580891.0314
  25723776.754    -1400730.475 5  -1016086.81749  25723781.4414
  22563801.863    -6686902.188 8  -5146116.50749  22563803.9614
  25224317.996    24271250.522 6  18861036.53149  25224320.0124
  23006064.121    -5280190.664 8  -4082628.03149  23006064.9064
 95  2 12 17 45  0.0040000  0  7 18 14 15 19 22 25 29
  24950815.512     -881054.676 5   -632259.77049  24950818.4534
  21636621.270    -6334376.649 8  -4886904.14449  21636623.0394
  25604490.863    24736633.538 5  19233898.64349  25604496.3834
  25712741.980    -1458720.124 5  -1061273.52149  25712747.2424
  22568033.980    -6664662.285 8  -5128786.72949  22568036.2664
  25246632.543    24388518.281 6  18952413.89649  25246634.9454
  23003051.949    -5296018.770 8  -4094961.63349  23003052.8874
 95  2 12 17 45 30.0040000  0  7 18 14 15 19 22 25 29
  24941800.059     -928431.732 5   -669176.93449  24941802.6724
  21641454.535    -6308977.788 8  -4867112.85449  21641456.1764
  25628086.527    24860630.050 5  19330519.02149  25628092.3984
  25701742.566    -1516516.613 5  -1106309.70849  25701746.7154
  22572384.324    -6641800.759 8  -5110972.58349  22572386.6454
  25268951.449    24505806.078 6  19043806.88049  25268953.2074
  23000054.855    -5311769.077 8  -4107234.60949  23000055.9224
 95  2 12 17 46  0.0040000  0  7 18 14 15 19 22 25 29
  24932786.684     -975795.552 5   -706083.81049  24932789.1214
  21646391.605    -6283034.169 8  -4846897.07549  21646393.2934
  25651673.809    24984578.787 5  19427102.17449  25651680.5124
  25690779.769    -1574129.904 5  -1151203.16149  25690786.2034
  22576854.621    -6618309.634 8  -5092667.83449  22576856.8244
  25291272.887    24623098.889 6  19135203.77849  25291275.3364
  22997069.848    -5327457.584 8  -4119459.42649  22997070.9374
 95  2 12 17 46 30.0040000  0  7 18 14 15 19 22 25 29
  24923777.738    -1023139.470 5   -742975.17449  24923780.7504
  21651431.629    -6256548.273 8  -4826258.74749  21651433.2704
  25675252.309    25108483.647 5  19523651.12949  25675257.9454
  25679848.152    -1631575.419 5  -1195965.87249  25679852.8054
  22581446.137    -6594182.886 8  -5073867.79249  22581448.2114
  25313591.410    24740388.203 6  19226597.93949  25313593.5784
  22994095.988    -5343084.126 8  -4131635.96749  22994097.0084
 95  2 12 17 47  0.0040000  0  7 18 14 15 19 22 25 29
  24914771.160    -1070468.544 6   -779854.93349  24914773.9144
  21656575.113    -6229519.035 8  -4805197.03749  21656576.8594
  25698820.668    25232336.141 5  19620159.27149  25698825.7664
  25668944.488    -1688871.518 5  -1240612.20649  25668949.6914
  22586154.348    -6569438.740 8  -5054586.66149  22586156.6444
  25335908.895    24857666.972 6  19317983.91049  25335911.3324
  22991135.949    -5358639.482 8  -4143757.03249  22991136.9344
 95  2 12 17 47 30.0040000  0  7 18 14 15 19 22 25 29
  24905768.246    -1117780.152 6   -816721.09849  24905770.7424
  21661823.590    -6201937.871 8  -4783705.25549  21661825.2894
  25722380.137    25356140.906 5  19716630.23249  25722385.9964
  25658072.293    -1746006.260 5  -1285132.72249  25658077.8484
  22590978.137    -6544089.456 8  -5034833.99749  22590980.5274
  25358225.621    24974939.792 6  19409365.22049  25358228.1054
  22988193.551    -5374102.359 8  -4155806.04149  22988194.4884
 95  2 12 17 48  0.0050000  0  7 18 14 15 19 22 25 29
  24896767.946    -1165080.089 6   -853578.18849  24896770.3134
  21667177.704    -6173802.297 8  -4761781.46449  21667179.3454
  25745929.009    25479890.680 5  19813058.31349  25745933.8724
  25647230.556    -1802978.452 5  -1329526.65149  25647235.3374
  22595913.892    -6518152.727 8  -5014623.58549  22595916.1534
  25380541.603    25092207.063 6  19500742.20649  25380544.2514
  22985270.931    -5389460.253 8  -4167773.24349  22985271.8104
 95  2 12 17 48 30.0050000  0  7 18 14 15 19 22 25 29
  24887770.181    -1212361.275 6   -890420.67849  24887772.1854
  21672639.642    -6145100.493 8  -4739416.45349  21672641.1534
  25769466.767    25603580.753 5  19909439.88149  25769472.1454
  25636423.610    -1859770.275 5  -1373779.99449  25636428.9424
  22600961.774    -6491627.123 8  -4993954.30549  22600963.7904
  25402855.024    25209468.512 6  19592114.66149  25402857.7204
  22982369.923    -5404704.773 8  -4179652.10249  22982371.0714
 95  2 12 17 49  0.0050000  0  7 18 14 15 19 22 25 29
  24878775.603    -1259628.261 6   -927252.07449  24878778.5094
  21678209.477    -6115830.494 8  -4716608.69149  21678211.1304
  25792992.727    25727211.045 5  20005774.86948  25792999.6104
  25625654.103    -1916366.596 5  -1417881.00649  25625658.5324
  22606119.438    -6464522.839 8  -4972834.10749  22606121.5134
  25425171.204    25326741.860 6  19683496.38149  25425174.3214
  22979488.962    -5419844.821 8  -4191449.55549  22979490.1454
 95  2 12 17 49 30.0050000  0  7 18 14 15 19 22 25 29
  24869784.915    -1306872.554 6   -964065.76849  24869788.0204
  21683887.782    -6085991.575 8  -4693357.61749  21683889.4354
  25816507.806    25850781.060 5  20102062.87649  25816514.5444
  25614923.329    -1972758.257 5  -1461822.54849  25614927.0674
  22611389.876    -6436827.273 8  -4951253.16649  22611391.9624
  25447490.720    25444031.174 6  19774890.55049  25447493.5444
  22976626.048    -5434889.828 8  -4203172.94349  22976627.0674
 95  2 12 17 50  0.0050000  0  6 18 14 19 22 25 29
  24860800.001    -1354088.890 6  -1000857.71449  24860803.0954
  21689677.095    -6055567.131 8  -4669650.29349  21689678.8534
  25604229.962    -2028949.718 5  -1505608.11149  25604234.7084
  22616776.259    -6408520.674 8  -4929196.09449  22616778.6964
  25469815.063    25561344.495 6  19866303.41949  25469818.0404
  22973781.477    -5449838.787 8  -4214821.49449  22973782.1224
 95  2 12 17 50 30.0050000  0  7 18 14 15 19 22 25 29
  24851819.813    -1401279.786 6  -1037629.83349  24851822.4744
  21695578.579    -6024555.000 8  -4645485.02849  21695580.4314
  25863500.384       45249.74514
  25593573.165    -2084949.699 5  -1549244.46149  25593578.3564
  22622281.642    -6379589.858 8  -4906652.62549  22622284.0564
  25492144.649    25678690.391 6  19957741.68749  25492147.4504
  22970954.946    -5464692.094 8  -4226395.50449  22970955.6144
 95  2 12 17 51  0.0050000  0  6 18 14 19 22 25 29
  24842842.876    -1448451.939 6  -1074387.32449  24842846.3804
  21701589.673    -5992966.810 8  -4620870.88649  21701591.5244
  25582952.470    -2140764.849 5  -1592736.81649  25582957.4624
  22627906.134    -6350033.427 8  -4883621.66349  22627908.3724
  25514480.704    25796062.592 6  20049200.43249  25514484.1144
  22968151.282    -5479426.441 8  -4237876.82049  22968151.9974
 95  2 12 17 51 30.0050000  0  7 18 14 15 19 22 25 29
  24833869.110    -1495611.318 6  -1111134.86849  24833872.5444
  21707712.368    -5960791.901 8  -4595799.55949  21707714.2434
  25910440.657      119181.630 3
  25572364.540    -2196405.004 5  -1636092.78649  25572368.9464
  22633650.618    -6319843.659 8  -4860097.19249  22633652.9274
  25536818.040    25913444.915 6  20140667.05549  25536821.0284
  22965371.743    -5494030.576 8  -4249256.67349  22965372.8104
 95  2 12 17 52  0.0050000  0  6 18 14 19 22 25 29
  24824897.063    -1542759.655 6  -1147873.81449  24824900.2274
  21713946.595    -5928031.036 8  -4570271.64249  21713948.4114
  25561811.579    -2251859.570 5  -1679304.14049  25561816.6654
  22639517.587    -6289014.958 8  -4836074.84949  22639519.8494
  25559160.079    26030854.050 6  20232154.57649  25559162.5874
  22962619.876    -5508494.057 8  -4260526.92549  22962620.7784
 95  2 12 17 52 30.0050000  0  6 18 14 19 22 25 29
  24815923.931    -1589911.070 6  -1184615.16049  24815927.5994
  21720286.376    -5894715.868 8  -4544311.80149  21720288.2284
  25551295.774    -2307119.973 5  -1722364.21349  25551301.7394
  22645501.259    -6257570.629 8  -4811572.79049  22645503.5564
  25581504.977    26148278.946 6  20323654.37649  25581507.9424
  22959891.892    -5522828.482 8  -4271696.61749  22959893.0054
 95  2 12 17 53  0.0050000  0  7 18 14 15 19 22 25 29
  24806951.813    -1637062.271 6  -1221356.33349  24806955.1424
  21726733.642    -5860835.569 8  -4517911.59649  21726735.5404
  25980748.235      118970.892 4
  25540820.892    -2362166.693 5  -1765257.75049  25540826.1304
  22651599.681    -6225523.318 8  -4786600.87749  22651601.9664
  25603851.556    26265704.247 6  20415154.48749  25603854.7784
  22957186.970    -5537043.317 8  -4282773.11649  22957188.0014
 95  2 12 17 53 30.0050000  0  7 18 14 15 19 22 25 29
  24797983.298    -1684190.748 6  -1258079.80149  24797986.6384
  21733290.954    -5826375.786 8  -4491059.84849  21733292.7594
  26004156.212       20490.09614
  25530390.438    -2416980.403 5  -1807969.73849  25530395.2554
  22657813.298    -6192868.651 8  -4761155.71049  22657815.6534
  25626197.306    26383134.060 6  20506658.10849  25626200.1884
  22954500.407    -5551161.411 8  -4293774.23649  22954501.2634
 95  2 12 17 54  0.0050000  0  7 18 14 15 19 22 25 29
  24789022.470    -1731282.537 6  -1294774.68249  24789025.0484
  21739956.915    -5791346.686 8  -4463764.47849  21739958.7204
  26027547.892       45057.80414
  25520005.259    -2471558.035 5  -1850497.76449  25520009.6064
  22664143.743    -6159604.028 8  -4735235.25349  22664146.1814
  25648542.954    26500562.024 6  20598160.28849  25648545.7204
  22951833.228    -5565177.501 8  -4304695.87149  22951834.0604
 95  2 12 17 54 30.0050000  0  6 18 14 19 22 25 29
  24780072.774    -1778312.538 6  -1331421.41649  24780075.6224
  21746733.946    -5755731.975 8  -4436012.78149  21746735.8924
  25509662.009    -2525906.860 5  -1892847.50649  25509668.2314
  22670591.071    -6125723.229 8  -4708834.65349  22670593.6144
  25670885.540    26617971.466 6  20689648.04149  25670888.6224
  22949188.243    -5579076.769 8  -4315526.47449  22949189.3214
 95  2 12 17 55  0.0050000  0  6 18 14 19 22 25 29
  24771136.860    -1825271.685 6  -1368012.92449  24771139.3334
  21753626.923    -5719509.674 8  -4407787.64349  21753628.6694
  25499360.251    -2580046.823 5  -1935034.49749  25499365.0094
  22677158.227    -6091211.863 8  -4681942.70749  22677161.0754
  25693224.056    26735358.295 6  20781118.16949  25693226.6104
  22946565.017    -5592861.405 8  -4326267.75549  22946565.8604
 95  2 12 17 55 30.0050000  0  6 18 14 19 22 25 29
  24762212.915    -1872167.077 6  -1404554.76449  24762215.0134
  21760631.462    -5682700.436 8  -4379105.15049  21760633.3134
  25489092.649    -2634003.694 5  -1977078.79349  25489097.6304
  22683844.790    -6056074.074 8  -4654562.63749  22683847.3684
  25715559.024    26852732.004 6  20872578.08149  25715562.5054
  22943964.267    -5606529.970 8  -4336918.58849  22943965.1454
 95  2 12 17 56  0.0050000  0  7 18 14 15 19 22 25 29
  24753298.470    -1919014.864 6  -1441059.51749  24753300.4034
  21767746.548    -5645311.585 8  -4349971.01149  21767748.4814
  26120953.673      118482.654 5
  25478855.610    -2687795.866 5  -2018994.75449  25478861.1064
  22690648.845    -6020318.702 8  -4626701.33049  22690651.2474
  25737894.126    26970104.170 6  20964036.79449  25737897.0444
  22941387.962    -5620066.973 8  -4347466.90749  22941388.8884
 95  2 12 17 56 30.0050000  0  7 18 14 15 19 22 25 29
  24744390.806    -1965824.473 6  -1477534.49349  24744392.8104
  21774972.181    -5607340.989 8  -4320383.56649  21774974.1734
  26144260.954      240965.560 5
  25468650.595    -2741423.144 5  -2060782.18449  25468656.7704
  22697569.485    -5983951.720 8  -4598363.44449  22697571.9584
  25760230.001    27087483.332 5  21055500.96349  25760232.9784
  22938836.048    -5633479.016 8  -4357917.85549  22938836.8214
 95  2 12 17 57  0.0050000  0  7 18 14 15 19 22 25 29
  24735484.837    -2012625.600 6  -1514002.86849  24735487.1104
  21782306.110    -5568802.011 8  -4290353.22649  21782307.9384
  26167548.610      363341.417 5     44486.37059  26167556.5604
  25458476.290    -2794887.911 4  -2102443.05849  25458481.5754
  22704602.681    -5946991.918 8  -4569563.61349  22704605.1064
  25782568.087    27204868.654 5  21146969.92449  25782571.4974
  22936304.321    -5646782.292 8  -4368284.04849  22936305.3064
 95  2 12 17 57 30.0050000  0  7 18 14 15 19 22 25 29
  24726578.821    -2059425.974 6  -1550470.65149  24726581.3064
  21789746.821    -5529699.359 8  -4259883.65749  21789748.6614
  26190816.563      485611.623 5    139761.49749  26190823.1734
  25448335.853      -30175.94515
  22711748.157    -5909440.805 8  -4540303.02049  22711750.5244
  25804907.446    27322262.333 5  21238445.40649  25804910.7984
  22933797.165    -5659957.624 8  -4378550.54749  22933798.2434
 95  2 12 17 58  0.0050000  0  7 18 14 15 19 22 25 29
  24717673.290    -2106226.425 6  -1586938.51649  24717675.7744
  21797296.470    -5490026.071 8  -4228969.43749  21797298.3454
  26214062.298      607773.429 5    234952.15649  26214069.6024
  25438228.329      -17682.97415
  22719007.962    -5871291.435 8  -4510576.24349  22719010.3414
  25827248.438    27439658.814 5  21329923.04049  25827251.4154
  22931314.001    -5673007.330 8  -4388719.15349  22931314.8564
 95  2 12 17 58 30.0050000  0  6 18 14 15 22 25 29
  24708766.931    -2153026.466 6  -1623406.05549  24708769.4504
  21804955.071    -5449780.741 8  -4197609.47349  21804956.8414
  26237288.548      729822.960 5    330055.30549  26237295.2394
  22726383.149    -5832534.042 8  -4480375.68749  22726385.4464
  25849585.103    27557039.158 5  21421388.12449  25849588.5244
  22928850.438    -5685953.025 8  -4398806.71549  22928851.4464
 95  2 12 17 59  0.0050000  0  7 18 14 15 19 22 25 29
  24699861.149    -2199825.070 6  -1659872.44349  24699863.6924
  21812722.993    -5408959.237 8  -4165800.53849  21812724.6454
  26260492.876      851759.555 5    425070.45049  26260500.9664
  25418123.837      -40409.39215
  22733874.735    -5793163.585 8  -4449697.42549  22733877.1264
  25871919.759    27674411.408 5  21512846.87149  25871923.5204
  22926406.485    -5698795.571 8  -4408813.89849  22926407.4354
 95  2 12 17 59 30.0050000  0  7 18 14 15 19 22 25 29
  24690956.657    -2246620.159 6  -1696336.10949  24690959.6344
  21820599.345    -5367569.262 8  -4133548.63649  21820601.2904
  26283674.915      973581.387 5    519996.20749  26283682.8174
  25408125.009      -29751.61415
  22741485.142    -5753171.892 8  -4418535.08149  22741487.5324
  25894252.259    27791776.375 5  21604299.95949  25894255.9854
  22923981.524    -5711539.459 8  -4418744.19949  22923982.5794
 95  2 12 18  0  0.0050000  0  7 18 14 15 19 22 25 29
  24682056.118    -2293392.623 6  -1732782.16349  24682059.1534
  21828584.313    -5325608.221 8  -4100851.74649  21828586.2244
  26306834.407     1095287.937 4    614832.09048  26306842.8954
  25398160.618      -82113.053 5
  22749214.360    -5712556.725 8  -4386886.91149  22749216.4584
  25916587.384    27909137.573 5  21695750.11549  25916591.0404
  22921574.087    -5724189.958 8  -4428601.73649  22921575.0604
 95  2 12 18  0 30.0050000  0  7 18 14 15 19 22 25 29
  24673160.196    -2340139.217 6  -1769208.06249  24673162.3994
  21836677.228    -5283079.605 8  -4067712.59549  21836679.1614
  26329970.524     1216862.529 5    709565.15648  26329979.3644
  25388228.837     -134303.769 5    -27096.09259  25388234.0174
  22757058.759    -5671334.064 8  -4354765.36649  22757060.9154
  25938915.392    28026473.815 5  21787180.83049  25938918.0524
  22919185.587    -5736742.861 8  -4438383.21649  22919186.3724
 95  2 12 18  1  0.0050000  0  7 18 14 15 19 22 25 29
  24664273.892    -2386837.340 6  -1805596.17949  24664276.9154
  21844881.071    -5239968.155 8  -4034119.29249  21844883.0174
  26353082.743     1338313.569 5    804201.91847  26353090.6574
  25378332.845     -186307.005 5    -67618.08049  25378338.0484
  22765018.603    -5629505.865 8  -4322171.97849  22765020.7354
  25961243.595    28143802.160 6  21878605.35049  25961247.9424
  22916822.673    -5749159.927 8  -4448058.85449  22916823.6344
 95  2 12 18  1 30.0050000  0  7 18 14 15 19 22 25 29
  24655400.274    -2433469.193 6  -1841932.66249  24655403.2984
  21853198.267    -5196260.301 8  -4000061.25249  21853200.1654
  26376169.993     1459644.257 4    898744.91446  26376177.6614
  25368475.360     -238109.520 5   -107983.66949  25368480.1064
  22773094.345    -5587065.742 8  -4289101.76349  22773096.7124
  25983566.626    28261114.254 5  21970017.24649  25983570.0834
  22914489.118    -5761422.872 8  -4457614.39349  22914489.9744
 95  2 12 18  2  0.0050000  0  7 18 14 15 19 22 25 29
  24646539.157    -2480031.458 6  -1878214.92249  24646542.1224
  21861629.267    -5151955.424 8  -3965538.00349  21861631.1654
  26399235.407     1580848.830 4    993189.65347  26399244.0364
  25358658.524     -289698.616 5   -148182.97149  25358663.7394
  22781284.727    -5544024.640 8  -4255563.25949  22781287.0484
  26005886.985    28378405.300 6  22061412.74349  26005891.5324
  22912185.774    -5773526.913 8  -4467046.11449  22912186.7244
 95  2 12 18  2 30.0050000  0  7 18 14 15 19 22 25 29
  24637690.524    -2526531.599 6  -1914448.76949  24637693.4894
  21870172.845    -5107059.502 8  -3930554.19849  21870174.6854
  26422275.345     1701925.754 4   1087534.88348  26422285.0524
  25348885.001     -341057.726 5   -188203.04049  25348889.8994
  22789590.079    -5500380.383 8  -4221554.76149  22789592.5994
  26028202.009    28495671.198 6  22152788.62949  26028204.5634
  22909911.345    -5785479.150 8  -4476359.54949  22909912.2004
 95  2 12 18  3  0.0050000  0  7 18 14 15 19 22 25 29
  24628850.423    -2572990.521 6  -1950650.52049  24628853.1304
  21878825.477    -5061590.070 8  -3895123.49949  21878827.2704
  26445292.806     1822874.803 4   1181780.53147  26445300.5674
  25339156.915     -392180.935 6   -228039.30249  25339161.7904
  22798010.462    -5456131.252 8  -4187074.93749  22798013.0174
  26050510.306    28612906.834 5  22244140.91949  26050513.7164
  22907663.501    -5797292.025 8  -4485564.38349  22907664.4504
 95  2 12 18  3 30.0050000  0  6 18 14 19 22 25 29
  24620013.860    -2619425.796 6  -1986833.81549  24620016.9424
  21887583.548    -5015565.881 8  -3859260.52949  21887585.3414
  25329471.665     -443077.140 6   -267698.66149  25329477.1614
  22806546.134    -5411277.117 8  -4152123.67849  22806548.5484
  26072812.196    28730100.245 5  22335460.33149  26072816.6964
  22905438.665    -5808982.475 8  -4494673.82549  22905439.7084
 95  2 12 18  4  0.0050000  0  6 18 14 19 22 25 29
  24611184.657    -2665826.479 6  -2022990.16749  24611187.2944
  21896447.454    -4968985.449 8  -3822964.12249  21896449.2124
  25319830.829     -493740.085 6   -307176.26749  25319836.3494
  22815199.181    -5365804.217 8  -4116690.26849  22815201.6534
  26095108.673    28847266.199 5  22426758.30649  26095113.1024
  22903236.431    -5820552.890 8  -4503689.73449  22903237.6964
 95  2 12 18  4 30.0050000  0  6 18 14 19 22 25 29
  24602361.782    -2712190.911 6  -2059118.28549  24602364.3494
  21905419.071    -4921840.352 8  -3786227.71249  21905420.8524
  25310233.087     -544177.341 6   -346478.00949  25310238.1144
  22823971.665    -5319704.270 8  -4080768.24549  22823974.2314
  26117397.423    28964391.850 5  22518024.87049  26117401.5364
  22901058.188    -5832001.239 8  -4512610.52549  22901059.5714
 95  2 12 18  5  0.0050000  0  6 18 14 19 22 25 29
  24593545.259    -2758520.276 6  -2095219.06249  24593547.9544
  21914499.868    -4874119.700 8  -3749042.81649  21914501.7434
  25300675.157     -594402.617 6   -385614.56049  25300680.3954
  22832862.876    -5272979.381 8  -4044359.24849  22832865.4774
  26139676.868    29081482.285 5  22609264.05149  26139681.5094
  22898904.501    -5843319.843 8  -4521430.21149  22898905.7904
 95  2 12 18  5 30.0050000  0  6 18 14 19 22 25 29
  24584739.681    -2804792.624 6  -2131275.40249  24584742.2824
  21923694.907    -4825799.756 8  -3711390.94449  21923696.7124
  25291159.345     -644407.432 6   -424579.34549  25291164.3954
  22841874.376    -5225623.756 8  -4007458.77449  22841877.0834
  26161959.126    29198569.231 5  22700500.46049  26161963.0284
  22896777.087    -5854499.560 8  -4530141.67849  22896778.3064
 95  2 12 18  6  0.0050000  0  6 18 14 19 22 25 29
  24575945.665    -2851005.855 6  -2167285.68649  24575948.3024
  21933006.274    -4776868.038 8  -3673262.36349  21933008.1964
  25281684.462     -694197.505 5   -463376.78249  25281689.5014
  22851005.095    -5177642.498 8  -3970070.79449  22851007.8724
  26184240.813    29315656.795 5  22791737.35749  26184244.6694
  22894676.509    -5865537.854 8  -4538742.94749  22894677.6104
 95  2 12 18  6 30.0050000  0  6 18 14 19 22 25 29
  24567159.954    -2897172.576 6  -2203259.73849  24567162.6264
  21942435.071    -4727320.567 8  -3634653.97649  21942437.0754
  25272251.579     -743770.970 5   -502005.41949  25272256.4784
  22860252.884    -5129046.071 8  -3932203.45849  22860255.7084
  26206522.907    29432748.552 5  22882977.52949  26206528.1224
  22892606.892    -5876414.859 8  -4547218.53649  22892607.6654
 95  2 12 18  7  0.0050000  0  6 18 14 19 22 25 29
  24558384.040    -2943291.720 6  -2239196.70949  24558386.9934
  21951977.829    -4677172.595 8  -3595577.66749  21951979.8924
  25262857.165     -793137.487 5   -540472.78949  25262861.8994
  22869615.790    -5079841.979 8  -3893862.61249  22869618.6034
  26228809.493    29549859.943 5  22974233.05349  26228812.6924
  22890566.313    -5887139.272 8  -4555575.21549  22890567.1814
 95  2 12 18  7 30.0050000  0  6 18 14 19 22 25 29
  24549617.759    -2989359.583 6  -2275093.71449  24549620.7704
  21961631.423    -4626442.624 8  -3556047.85049  21961633.3334
  25253502.813     -842295.727 5   -578777.86649  25253507.5014
  22879091.626    -5030046.357 8  -3855060.83349  22879094.3684
  26251095.540    29666980.861 5  23065495.94549  26251099.4894
  22888555.063    -5897706.628 8  -4563809.51949  22888556.1064
 95  2 12 18  8  0.0050000  0  6 18 14 19 22 25 29
  24540860.126    -3035380.842 6  -2310954.41749  24540862.7984
  21971392.938    -4575145.908 8  -3516076.41049  21971394.8724
  25244187.188     -891248.409 5   -616922.76049  25244191.9464
  22888680.657    -4979656.655 8  -3815796.12849  22888683.1654
  26273379.102    29784084.916 5  23156745.76049  26273382.9704
  22886575.634    -5908108.237 8  -4571914.67149  22886576.5834
 95  2 12 18  8 30.0050000  0  5 18 14 19 22 29
  24532111.532    -3081354.519 6  -2346778.04549  24532114.2394
  21981259.735    -4523296.944 8  -3475674.64649  21981261.5284
  25234910.892     -939993.184 5   -654905.61649  25234916.1654
  22898382.142    -4928674.240 8  -3776069.56249  22898384.5324
  22884625.626    -5918356.494 8  -4579900.32349  22884626.5524
 95  2 12 18  9  0.0050000  0  5 18 14 19 22 29
  24523372.454    -3127279.078 6  -2382563.39849  24523375.4894
  21991229.329    -4470905.616 8  -3434850.26549  21991230.9584
  25225672.907     -988539.691 5   -692733.97149  25225679.2124
  22908196.399    -4877100.269 8  -3735882.05349  22908199.0134
  22882700.610    -5928472.585 8  -4587782.98849  22882701.6534
 95  2 12 18  9 30.0050000  0  5 18 14 19 22 29
  24514640.923    -3173162.212 6  -2418316.48049  24514643.7004
  22001304.837    -4417959.355 8  -3393593.46649  22001306.6304
  25216475.118    -1036874.412 5   -730397.35149  25216481.0014
  22918123.384    -4824933.881 8  -3695232.91949  22918125.8104
  22880802.915    -5938446.442 8  -4595554.82049  22880803.9464
 95  2 12 18 10  0.0050000  0  5 18 14 19 22 29
  24505915.353    -3219016.583 6  -2454047.13249  24505918.3064
  22011487.837    -4364445.824 8  -3351894.64249  22011489.7474
  25207316.001    -1085008.554 5   -767904.39449  25207321.5444
  22928166.720    -4772157.020 8  -3654108.08249  22928169.1104
  22878927.657    -5948300.440 8  -4603233.25749  22878928.7244
 95  2 12 18 10 30.0050000  0  5 18 14 19 22 29
  24497198.407    -3264825.905 6  -2489742.71549  24497200.7394
  22021783.126    -4310345.571 8  -3309738.63249  22021785.0134
  25198195.571    -1132934.436 5   -805249.15849  25198200.8334
  22938325.634    -4718770.238 8  -3612507.98449  22938328.3064
  22877076.337    -5958028.407 8  -4610813.49349  22877077.3684
 95  2 12 18 11  0.0050000  0  5 18 14 19 22 29
  24488490.407    -3310584.728 6  -2525398.91349  24488493.2084
  22032194.845    -4255630.503 8  -3267103.54349  22032196.7314
  25189117.712    -1180639.473 5   -842421.83649  25189122.7164
  22948602.712    -4664763.404 8  -3570424.73249  22948605.4074
  22875254.063    -5967604.930 8  -4618275.71849  22875254.8604
 95  2 12 18 11 30.0050000  0  5 18 14 19 22 29
  24479793.478    -3356286.841 6  -2561010.92849  24479796.0674
  22042724.556    -4200296.457 8  -3223986.13749  22042726.5834
  25180082.821    -1228118.357 6   -879418.30349  25180086.5954
  22958996.399    -4610145.153 8  -3527865.05449  22958998.9894
  22873461.970    -5977022.799 8  -4625614.31449  22873462.8254
 95  2 12 18 12  0.0050000  0  5 18 14 19 22 29
  24471109.782    -3401923.225 6  -2596571.75649  24471111.5994
  22053369.977    -4144354.283 8  -3180394.86249  22053372.0054
  25171090.649    -1275369.348 5   -916237.16349  25171095.1494
  22969505.446    -4554919.618 8  -3484832.16549  22969507.6384
  22871700.665    -5986278.326 8  -4632826.40849  22871701.4274
 95  2 12 18 12 30.0050000  0  5 18 14 19 22 29
  24462437.118    -3447495.434 6  -2632082.55649  24462440.2244
  22064126.853    -4087826.245 8  -3136347.07249  22064128.9384
  25162143.423    -1322386.455 5   -952873.77549  25162148.6854
  22980124.321    -4499116.532 8  -3441349.24249  22980126.5484
  22869972.110    -5995361.699 8  -4639904.35549  22869972.9194
 95  2 12 18 13  0.0050000  0  5 18 14 19 22 29
  24453777.087    -3493004.228 6  -2667543.93749  24453780.1454
  22074995.860    -4030710.562 8  -3091841.37749  22074997.8174
  25153241.782    -1369162.984 6   -989322.95049  25153246.3174
  22990855.728    -4442721.917 8  -3397405.38949  22990858.1064
  22868276.173    -6004272.750 8  -4646848.03449  22868276.9464
 95  2 12 18 13 30.0050000  0  5 18 14 19 22 29
  24445128.102    -3538453.548 6  -2702958.98349  24445131.3954
  22085970.282    -3973039.596 8  -3046902.99449  22085972.3214
  25144383.493    -1415714.937 6  -1025597.10549  25144388.2984
  23001700.938    -4385731.222 8  -3352997.06649  23001703.3884
  22866611.142    -6013023.366 8  -4653666.69349  22866612.0914
 95  2 12 18 14  0.0050000  0  5 18 14 19 22 29
  24436488.938    -3583851.524 6  -2738334.01249  24436491.7284
  22097051.360    -3914808.131 8  -3001527.86049  22097053.3764
  25135567.282    -1462045.626 6  -1061698.84749  25135571.8294
  23012661.517    -4328132.874 8  -3308115.25049  23012663.9664
  22864977.438    -6021607.516 8  -4660355.64049  22864978.2354
 95  2 12 18 14 30.0050000  0  5 18 14 19 22 29
  24427860.509    -3629196.799 6  -2773667.97849  24427863.5204
  22108241.454    -3856003.688 8  -2955706.25049  22108243.5524
  25126788.353    -1508178.832 6  -1097646.69149  25126792.5244
  23023738.087    -4269926.070 8  -3262759.31149  23023740.5014
  22863375.485    -6030026.479 8  -4666915.86749  22863376.3534
 95  2 12 18 15  0.0050000  0  5 18 14 19 22 29
  24419240.727    -3674491.137 6  -2808962.24449  24419243.4354
  22119541.001    -3796624.343 8  -2909436.66349  22119543.1104
  25118043.696    -1554132.032 6  -1133454.26449  25118047.6694
  23034928.954    -4211117.059 8  -3216934.11749  23034931.4974
  22861804.181    -6038283.378 8  -4673349.81549  22861805.1184
 95  2 12 18 15 30.0050000  0  5 18 14 19 22 29
  24410633.618    -3719727.424 6  -2844211.28149  24410635.7284
  22130950.212    -3736671.016 8  -2862719.82249  22130952.2514
  25109332.634    -1599909.326 6  -1169124.77449  25109337.2514
  23046231.095    -4151721.958 8  -3170652.23249  23046233.9424
  22860264.274    -6046374.800 8  -4679654.82249  22860265.2594
 95  2 12 18 16  0.0060000  0  5 18 14 19 22 29
  24402037.615    -3764897.114 6  -2879408.42949  24402039.8184
  22142470.873    -3676128.061 8  -2815543.52749  22142472.7254
  25100654.467    -1645511.684 6  -1204658.97249  25100659.2714
  23057641.264    -4091761.857 8  -3123930.08749  23057644.1004
  22858755.990    -6054301.175 8  -4685831.21749  22858757.0214
 95  2 12 18 16 30.0060000  0  5 18 14 19 22 29
  24393457.201    -3809988.131 6  -2914544.25349  24393459.8264
  22154102.443    -3615003.504 8  -2767914.03549  22154104.3654
  25092011.193    -1690932.051 6  -1240051.36049  25092016.0334
  23069155.810    -4031253.895 8  -3076781.03349  23069158.2604
  22857278.279    -6062067.258 8  -4691882.70849  22857279.1584
 95  2 12 18 17  0.0060000  0  5 18 14 19 22 29
  24384892.303    -3854996.143 6  -2949615.41949  24384894.0724
  22165845.451    -3553294.766 8  -2719829.34049  22165847.5144
  25083411.029    -1736123.368 6  -1275265.27749  25083415.8934
  23080778.381    -3970175.877 8  -3029187.78249  23080780.6894
  22855832.295    -6069666.591 8  -4697804.26649  22855833.3034
 95  2 12 18 17 30.0060000  0  5 18 14 19 22 29
  24376342.764    -3899923.107 6  -2984623.41549  24376344.7094
  22177697.428    -3491010.879 8  -2671296.47349  22177699.5144
  25074857.428    -1781070.997 6  -1310289.29548  25074864.1664
  23092512.146    -3908516.537 8  -2981141.54549  23092514.4084
  22854417.123    -6077103.515 8  -4703599.27049  22854418.0494
 95  2 12 18 18  0.0060000  0  5 18 14 19 22 29
  24367807.420    -3944778.275 6  -3019575.46749  24367810.0924
  22189658.920    -3428153.209 8  -2622316.50349  22189661.1704
  25066350.920    -1825773.592 6  -1345122.42349  25066356.4514
  23104356.717    -3846271.577 8  -2932638.98449  23104358.9084
  22853031.896    -6084382.873 8  -4709271.49849  22853032.8104
 95  2 12 18 18 30.0060000  0  5 18 14 19 22 29
  24359284.646    -3989565.575 6  -3054474.65249  24359287.1074
  22201729.123    -3364725.405 8  -2572892.27449  22201731.3504
  25057892.787    -1870223.780 6  -1379758.85349  25057897.7564
  23116315.404    -3783429.781 8  -2883671.35849  23116317.6074
  22851676.225    -6091507.225 8  -4714822.93949  22851677.1394
 95  2 12 18 19  0.0060000  0  5 18 14 19 22 29
  24350771.717    -4034300.053 6  -3089332.66649  24350774.4714
  22213903.092    -3300750.263 8  -2523041.54549  22213905.1894
  25049479.021    -1914437.910 6  -1414211.35049  25049483.2404
  23128387.560    -3719989.706 8  -2834237.54049  23128389.9164
  22850348.248    -6098484.193 7  -4720259.53949  22850349.3144
 95  2 12 18 19 30.0060000  0  5 18 14 19 22 29
  24342268.717    -4078982.833 6  -3124150.39649  24342271.7994
  22226182.092    -3236223.960 8  -2472761.34349  22226184.0964
  25041101.889    -1958456.708 6  -1448511.63649  25041106.6704
  23140569.506    -3655972.121 8  -2784353.71449  23140572.1074
  22849047.131    -6105321.726 8  -4725587.48549  22849047.9514
 95  2 12 18 20  0.0060000  0  5 18 14 19 22 29
  24333776.600    -4123610.484 6  -3158925.16949  24333779.2954
  22238568.436    -3171133.108 8  -2422041.23149  22238570.5214
  25032762.021    -2002285.170 6  -1482663.61549  25032766.8614
  23152861.912    -3591374.957 8  -2734018.26549  23152864.3504
  22847775.342    -6112006.231 8  -4730796.19049  22847776.1274
 95  2 12 18 20 30.0060000  0  5 18 14 19 22 29
  24325295.615    -4168177.125 6  -3193652.41649  24325298.5684
  22251061.342    -3105482.583 8  -2370885.01349  22251063.5214
  25024458.545    -2045921.656 6  -1516666.01449  25024462.9164
  23165264.014    -3526203.246 8  -2683235.11749  23165266.3814
  22846535.709    -6118521.322 8  -4735872.88449  22846536.5414
 95  2 12 18 21  0.0060000  0  5 18 14 19 22 29
  24316827.139    -4212680.413 6  -3228330.28449  24316829.7994
  22263662.467    -3039262.647 8  -2319285.10249  22263664.7874
  25016194.178    -2089350.291 6  -1550506.45349  25016198.6544
  23177776.295    -3460450.914 8  -2631999.54249  23177778.7444
  22845331.670    -6124849.251 8  -4740803.74049  22845332.5374
 95  2 12 18 21 30.0060000  0  5 18 14 19 22 29
  24308372.193    -4257112.662 6  -3262952.82149  24308374.7364
  22276374.646    -2972460.234 8  -2267231.31149  22276376.8614
  25007972.467    -2132555.755 6  -1584172.99749  25007976.4864
  23190398.975    -3394116.794 8  -2580310.62849  23190401.4594
  22844166.412    -6130971.458 8  -4745574.29449  22844167.3264
 95  2 12 18 22  0.0060000  0  5 18 14 19 22 29
  24299929.201    -4301481.150 7  -3297525.66749  24299931.7094
  22289192.639    -2905100.970 8  -2214743.61549  22289194.9714
  24999795.787    -2175523.974 6  -1617654.68349  24999800.0294
  23203132.717    -3327199.099 8  -2528166.98949  23203135.3534
  22843040.560    -6136888.429 8  -4750184.93349  22843041.3574
 95  2 12 18 22 30.0060000  0  5 18 14 19 22 29
  24291498.209    -4345786.553 7  -3332049.34149  24291500.7524
  22302114.639    -2837195.608 8  -2161830.38849  22302116.9944
  24991666.084    -2218247.079 6  -1650945.38349  24991670.3504
  23215976.271    -3259704.944 8  -2475574.15049  23215978.8964
  22841949.779    -6142621.384 8  -4754652.17249  22841950.4824
 95  2 12 18 23  0.0060000  0  5 18 14 19 22 29
  24283077.896    -4390032.874 7  -3366526.98349  24283080.3224
  22315141.600    -2768739.223 8  -2108487.79149  22315143.9434
  24983583.545    -2260718.987 6  -1684040.33049  24983586.8034
  23228932.029    -3191623.317 8  -2422523.54949  23228934.4784
  22840892.631    -6148175.553 8  -4758980.09849  22840893.4984
 95  2 12 18 23 30.0060000  0  5 18 14 19 22 29
  24274672.584    -4434204.965 7  -3400946.79349  24274675.1974
  22328274.842    -2699724.478 8  -2054710.11149  22328277.0924
  24975548.717    -2302942.567 6  -1716941.77449  24975552.9364
  23241999.803    -3122951.320 8  -2369012.92349  23242002.0064
  22839869.240    -6153552.958 8  -4763170.29049  22839870.1784
 95  2 12 18 24  0.0060000  0  5 18 14 19 22 29
  24266282.396    -4478293.673 7  -3435301.59949  24266284.9984
  22341515.685    -2630143.173 8  -2000490.95249  22341517.8424
  24967561.209    -2344914.229 6  -1749646.91949  24967565.8144
  23255179.998    -3053691.432 8  -2315044.19949  23255182.3894
  22838876.779    -6158768.711 8  -4767234.51749  22838877.8104
 95  2 12 18 24 30.0060000  0  5 18 14 19 22 29
  24257909.873    -4522292.310 7  -3469586.24449  24257912.4864
  22354868.451    -2559974.384 8  -1945814.01349  22354870.5844
  24959623.014    -2386631.085 6  -1782153.49849  24959627.4674
  23268471.271    -2983844.138 8  -2260617.75749  23268473.8964
  22837917.248    -6163811.089 8  -4771163.64549  22837918.2214
 95  2 12 18 25  0.0060000  0  5 18 14 19 22 29
  24249553.678    -4566203.791 7  -3503802.97949  24249555.8814
  22368333.951    -2489212.405 8  -1890674.85049  22368335.9674
  24951730.264    -2428108.386 6  -1814473.42949  24951734.8464
  23281874.459    -2913409.993 8  -2205734.02849  23281877.0964
  22836993.709    -6168664.288 8  -4774945.37049  22836994.6934
 95  2 12 18 25 30.0060000  0  5 18 14 19 22 29
  24241216.264    -4610016.358 7  -3537942.62449  24241218.7954
  22381911.912    -2417860.363 8  -1835075.89949  22381914.0924
  24943881.623    -2469356.656 6  -1846614.87849  24943885.5494
  23295387.029    -2842399.048 8  -2150400.84749  23295389.7714
  22836105.975    -6173329.768 8  -4778580.81349  22836106.9714
 95  2 12 18 26  0.0060000  0  5 18 14 19 22 29
  24232897.764    -4653733.422 7  -3572007.85949  24232899.9554
  22395600.529    -2345926.464 8  -1779023.55349  22395602.6744
  24936074.631    -2510381.463 6  -1878582.21949  24936078.9324
  23309008.248    -2770819.804 8  -2094624.83949  23309010.9084
  22835256.717    -6177793.475 8  -4782059.03349  22835257.6894
 95  2 12 18 26 30.0060000  0  5 18 14 19 22 29
  24224592.787    -4697373.936 7  -3606013.43849  24224595.2134
  22409395.529    -2273431.780 8  -1722534.22949  22409397.7794
  24928307.420    -2551198.171 6  -1910387.39949  24928311.8384
  23322736.381    -2698680.252 8  -2038412.22549  23322738.9594
  22834447.279    -6182046.570 8  -4785373.13849  22834448.2644
 95  2 12 18 27  0.0060000  0  5 18 14 19 22 29
  24216306.553    -4740920.740 7  -3639945.99749  24216308.8264
  22423294.420    -2200393.524 8  -1665621.34949  22423296.7054
  24920578.920    -2591810.959 6  -1942033.69549  24920582.7524
  23336568.951    -2625989.705 8  -1981770.26449  23336571.3184
  22833676.803    -6186094.902 8  -4788527.68949  22833677.7874
 95  2 12 18 27 30.0060000  0  5 18 14 19 22 29
  24208039.053    -4784362.699 7  -3673796.87849  24208041.2914
  22437293.459    -2126828.793 8  -1608298.23049  22437295.5804
  24912891.600    -2632207.853 6  -1973511.75049  24912895.1504
  23350503.365    -2552762.381 8  -1924710.03949  23350505.7564
  22832943.732    -6189947.199 8  -4791529.48949  22832944.7874
 95  2 12 18 28  0.0060000  0  5 18 14 19 22 29
  24199794.318    -4827691.478 7  -3707559.54349  24199796.9784
  22451393.811    -2052730.105 8  -1550559.04149  22451396.0964
  24905248.818    -2672369.927 6  -2004806.82049  24905253.0724
  23364541.685    -2478992.508 8  -1867227.05049  23364544.2524
  22832249.076    -6193597.606 8  -4794373.97249  22832249.8614
 95  2 12 18 28 30.0060000  0  5 18 14 19 22 29
  24191572.068    -4870900.062 7  -3741228.56849  24191574.2954
  22465596.811    -1978093.301 8  -1492400.53449  22465599.1194
  24897652.068    -2712291.485 6  -2035914.47049  24897656.4394
  23378684.514    -2404670.628 8  -1809313.92449  23378687.0214
  22831589.271    -6197064.957 8  -4797075.81049  22831590.1154
 95  2 12 18 29  0.0060000  0  5 18 14 19 22 29
  24183373.685    -4913984.115 7  -3774800.54149  24183376.5214
  22479902.834    -1902915.865 8  -1433820.75749  22479905.2604
  24890100.584    -2751973.957 6  -2066835.82149  24890104.8504
  23392930.053    -2329810.511 8  -1750981.39749  23392932.4784
  22830960.990    -6200366.781 8  -4799648.67249  22830961.8694
 95  2 12 18 29 30.0060000  0  5 18 14 19 22 29
  24175193.795    -4956967.821 7  -3808294.32649  24175196.1854
  22494313.576    -1827186.299 8  -1374810.75549  22494315.8614
  24882593.896    -2791422.316 6  -2097574.74549  24882598.2914
  23407279.271    -2254404.974 8  -1692223.86849  23407281.7684
  22830363.951    -6203505.721 8  -4802094.60849  22830364.9244
 95  2 12 18 30  0.0060000  0  5 18 14 19 22 29
  24167031.373    -4999863.826 7  -3841719.76949  24167033.7524
  22508832.232    -1750891.358 8  -1315360.19349  22508834.4474
  24875127.139    -2830660.229 6  -2128149.68849  24875131.0064
  23421734.295    -2178442.100 8  -1633032.05049  23421736.8614
  22829798.795    -6206475.224 8  -4804408.51649  22829799.7324
 95  2 12 18 30 30.0060000  0  5 18 14 19 22 29
  24158884.795    -5042672.732 7  -3875077.35849  24158887.3034
  22523458.420    -1674030.060 8  -1255468.31649  22523460.5644
  24867698.287    -2869696.381 6  -2158567.41949  24867702.5644
  23436296.506    -2101917.372 8  -1573402.43049  23436299.1314
  22829269.115    -6209257.982 8  -4806576.90849  22829270.1004
 95  2 12 18 31  0.0060000  0  5 18 14 19 22 29
  24150753.435    -5085403.646 7  -3908374.15049  24150755.9554
  22538189.178    -1596619.516 8  -1195148.45949  22538191.1824
  24860306.850    -2908539.396 6  -2188834.64549  24860311.0574
  23450962.264    -2024848.902 8  -1513349.11349  23450965.0534
  22828777.490    -6211840.758 8  -4808589.46649  22828778.5334
 95  2 12 18 31 30.0060000  0  5 18 14 19 22 29
  24142634.420    -5128068.362 7  -3941619.38649  24142636.7284
  22553023.451    -1518665.354 8  -1134405.00549  22553025.4674
  24852950.162    -2947198.697 6  -2218958.73049  24852954.3114
  23465731.271    -1947236.397 8  -1452871.87949  23465734.1434
  22828327.107    -6214208.024 8  -4810434.09949  22828328.3144
 95  2 12 18 32  0.0060000  0  5 18 14 19 22 29
  24134530.061    -5170655.831 7  -3974804.39549  24134532.9784
  22567960.170    -1440172.742 8  -1073241.98049  22567962.3854
  24845629.865    -2985666.047 6  -2248933.23749  24845634.5414
  23480603.475    -1869083.773 8  -1391973.77349  23480606.3104
  22827920.021    -6216346.683 8  -4812100.59449  22827921.1704
 95  2 12 18 32 30.0060000  0  5 18 14 19 22 29
  24126441.873    -5213159.485 7  -4007924.13149  24126444.6154
  22582999.217    -1361141.924 8  -1011659.57449  22583001.5494
  24838352.451    -3023909.973 6  -2278733.63549  24838356.8934
  23495576.521    -1790399.597 7  -1330661.47349  23495579.3934
  22827556.482    -6218257.281 8  -4813589.38149  22827557.5024
 95  2 12 18 33  0.0060000  0  5 18 14 19 22 29
  24118367.311    -5255591.935 7  -4040988.35849  24118370.2054
  22598140.436    -1281574.910 8   -949659.35449  22598142.7684
  24831118.146    -3061926.179 6  -2308356.59949  24831122.5184
  23510649.076    -1711191.272 7  -1268940.74749  23510651.9714
  22827233.959    -6219953.147 8  -4814910.84449  22827234.9324
 95  2 12 18 33 30.0060000  0  5 18 14 19 22 29
  24110309.607    -5297936.153 7  -4073983.85849  24110312.0574
  22613388.303    -1201445.957 8   -887221.25949  22613390.7874
  24823929.045    -3099705.566 6  -2337795.01649  24823933.2284
  23525825.607    -1631441.436 7  -1206798.06049  23525828.2914
  22826953.420    -6221428.118 8  -4816060.18249  22826954.3344
 95  2 12 18 34  0.0060000  0  5 18 14 19 22 29
  24102269.482    -5340185.718 7  -4106905.58849  24102272.2014
  22628740.615    -1120768.935 8   -824356.09549  22628742.9824
  24816785.350    -3137244.309 6  -2367045.92749  24816789.6624
  23541103.232    -1551155.210 8  -1144237.41549  23541105.9044
  22826711.404    -6222700.297 8  -4817051.50349  22826712.2134
 95  2 12 18 34 30.0060000  0  5 18 14 19 22 29
  24094250.443    -5382328.128 7  -4139743.82649  24094252.9164
  22644195.248    -1039554.767 8   -761072.37549  22644197.5214
  24809689.670    -3174533.537 6  -2396102.40349  24809694.0884
  23556483.490    -1470332.114 8  -1081258.42449  23556486.2094
  22826507.982    -6223769.388 8  -4817884.57049  22826508.8504
 95  2 12 18 35  0.0060000  0  5 18 14 19 22 29
  24086251.139    -5424363.461 7  -4172498.62149  24086253.7524
  22659747.896     -957826.467 8   -697388.03549  22659750.1934
  24802637.404    -3211593.693 6  -2424980.39349  24802641.4824
  23571964.670    -1388978.202 8  -1017865.80449  23571967.4824
  22826344.178    -6224630.467 8  -4818555.54849  22826345.1624
 95  2 12 18 35 30.0060000  0  5 18 14 19 22 29
  24078274.232    -5466282.150 7  -4205162.53949  24078276.6114
  22675395.709     -875595.128 8   -633311.71349  22675398.0294
  24795629.139    -3248421.946 6  -2453677.67649  24795633.3464
  23587547.123    -1307093.596 8   -954059.65549  23587549.9124
  22826221.029    -6225277.132 8  -4819059.44949  22826222.1894
 95  2 12 18 36  0.0060000  0  5 18 14 19 22 29
  24070319.498    -5508085.686 7  -4237736.70349  24070322.2994
  22691138.639     -792866.394 8   -568847.81249  22691140.9714
  24788666.732    -3285006.977 6  -2482185.44149  24788671.2914
  23603230.240    -1224678.677 8   -889840.28849  23603232.8894
  22826141.225    -6225694.921 8  -4819385.01149  22826142.3734
 95  2 12 18 36 30.0060000  0  5 18 14 19 22 29
  24062385.435    -5549779.288 7  -4270225.23549  24062387.8264
  22706975.670     -709642.791 8   -503998.30449  22706978.2134
  24781748.756    -3321360.091 6  -2510512.48149  24781753.4084
  23619013.264    -1141737.513 8   -825210.85549  23619016.0884
  22826105.334    -6225884.639 8  -4819532.85249  22826106.5064
 95  2 12 18 37  0.0060000  0  5 18 14 19 22 29
  24054470.732    -5591372.655 7  -4302635.64049  24054473.4394
  22722911.068     -625900.645 8   -438744.73649  22722913.4714
  24774871.592    -3357501.259 6  -2538674.38249  24774876.0924
  23634896.764    -1058268.519 7   -760170.13549  23634899.5764
  22826113.201    -6225843.158 8  -4819500.54549  22826114.3034
 95  2 12 18 37 30.0060000  0  5 18 14 19 22 29
  24046577.779    -5632848.637 7  -4334954.58549  24046580.3934
  22738952.076     -541605.158 8   -373059.99049  22738954.5024
  24768035.795    -3393422.219 6  -2566664.69649  24768040.1664
  23650881.639     -974266.938 7   -694714.40749  23650884.4634
  22826163.842    -6225576.618 8  -4819292.86149  22826164.8854
 95  2 12 18 38  0.0060000  0  5 18 14 19 22 29
  24038709.131    -5674198.686 7  -4367175.39749  24038712.1894
  22755098.654     -456754.390 8   -306942.55749  22755101.1274
  24761240.225    -3429133.669 6  -2594491.74849  24761244.4674
  23666967.357     -889736.772 7   -628846.80449  23666970.1704
  22826254.678    -6225100.869 8  -4818922.16049  22826255.6504
 95  2 12 18 38 30.0060000  0  5 18 14 19 22 29
  24030864.232    -5715422.586 7  -4399297.92249  24030867.0804
  22771350.256     -371352.094 8   -240395.36549  22771352.7644
  24754483.084    -3464642.281 6  -2622160.75449  24754487.5494
  23683152.170     -804687.381 8   -562574.60949  23683154.8774
  22826381.998    -6224430.437 8  -4818399.75949  22826382.8894
 95  2 12 18 39  0.0060000  0  5 18 14 19 22 29
  24023042.209    -5756527.242 7  -4431327.53049  24023045.0924
  22787706.936     -285397.099 8   -173417.50049  22787709.4084
  24747766.857    -3499938.078 6  -2649663.92549  24747771.1354
  23699432.311     -719133.920 8   -495909.62749  23699434.9004
  22826546.584    -6223566.913 8  -4817726.90149  22826547.5104
 95  2 12 18 39 30.0060000  0  5 18 14 19 22 29
  24015241.639    -5797520.597 7  -4463270.40349  24015244.7564
  22804161.865     -198925.891 8   -106037.38749  22804164.3734
  24741090.912    -3535017.638 6  -2676998.60049  24741095.0844
  23715804.506     -633096.603 7   -428867.61149  23715807.3534
  22826743.209    -6222530.873 8  -4816919.61449  22826744.1234
 95  2 12 18 40  0.0060000  0  5 18 14 19 22 29
  24007458.295    -5838422.309 7  -4495141.86849  24007460.9784
  22820712.193     -111954.590 8    -38267.59149  22820714.6314
  24734457.685    -3569875.651 6  -2704160.63149  24734461.8344
  23732270.396     -546568.517 7   -361443.18449  23732273.4204
  22826978.740    -6221295.825 8  -4815957.25149  22826979.7134
 95  2 12 18 40 30.0060000  0  5 18 14 19 22 29
  23999690.482    -5879243.479 7  -4526950.57149  23999693.4354
  22837357.896      -24479.908 8     29894.44549  22837360.3934
  24727868.146    -3604504.364 6  -2731144.00649  24727872.6114
  23748828.123     -459555.655 7   -293641.00949  23748831.2174
  22827254.803    -6219844.558 8  -4814826.40849  22827255.8934
 95  2 12 18 41  0.0060000  0  5 18 14 19 22 29
  23991938.467    -5919980.050 7  -4558693.35449  23991941.0334
  22854098.889       63493.389 8     98445.01349  22854101.3384
  24721322.396    -3638902.441 6  -2757947.65749  24721326.5924
  23765478.951     -372056.904 7   -225460.22449  23765481.8694
  22827572.912    -6218172.547 8  -4813523.55849  22827573.9674
 95  2 12 18 41 30.0060000  0  5 18 14 19 22 29
  23984206.857    -5960609.660 7  -4590352.78949  23984209.4354
  22870933.123      151958.607 8    167378.89449  22870935.6434
  24714821.459    -3673065.578 6  -2784568.25649  24714825.6434
  23782224.740     -284057.944 7   -156889.66149  23782227.5414
  22827936.459    -6216263.055 8  -4812035.65949  22827937.5724
 95  2 12 18 42  0.0060000  0  5 18 14 19 22 29
  23976498.209    -6001120.774 7  -4621919.88549  23976500.7404
  22887861.975      240919.284 8    236698.84849  22887864.5414
  24708366.279    -3706987.490 6  -2811000.87849  24708369.8184
  23799066.146     -195554.909 8    -87926.31549  23799068.9944
  22828346.873    -6214105.195 8  -4810354.22849  22828347.8104
 95  2 12 18 42 30.0060000  0  5 18 14 19 22 29
  23968815.318    -6041494.794 7  -4653380.15149  23968817.5214
  22904883.295      330365.491 8    306397.13649  22904885.8854
  24701957.467    -3740664.852 6  -2837242.95049  24701961.5684
  23816002.045     -106558.742 8    -18578.70449  23816004.9634
  22828803.084    -6211708.588 8  -4808486.75949  22828804.0334
 95  2 12 18 43  0.0060000  0  5 18 14 19 22 29
  23961162.209    -6081711.670 7  -4684717.97449  23961164.4714
  22921996.928      420297.968 8    376474.33849  22921999.4364
  24695595.615    -3774096.163 6  -2863293.28249  24695600.1274
  23833032.310      -17063.069 7     51158.13349  23833035.2054
  22829308.248    -6209053.129 8  -4806417.58549  22829309.1274
 95  2 12 18 43 30.0070000  0  6 18 14 28 19 22 29
  23953538.597    -6121772.936 7  -4715934.54649  23953541.2224
  22939204.245      510724.133 8    446936.23049  22939206.6014
  26849918.003      -37563.628 4
  24689278.800    -3807291.195 6  -2889159.50849  24689282.8314
  23850159.347       72941.746 7    121291.69949  23850162.3474
  22829865.058    -6206127.871 8  -4804138.17849  22829866.0424
 95  2 12 18 44  0.0070000  0  6 18 14 28 19 22 29
  23945941.659    -6161696.438 7  -4747043.76349  23945944.0154
  22956507.597      601652.975 8    517789.82149  22956509.9994
  26842538.979      -76344.146 4
  24683003.995    -3840266.980 6  -2914854.86649  24683008.1444
  23867381.151      163440.161 7    191809.88749  23867384.1754
  22830472.886    -6202933.018 8  -4801648.69849  22830474.0464
 95  2 12 18 44 30.0070000  0  6 18 14 28 19 22 29
  23938369.597    -6201486.826 7  -4778049.26249  23938371.9764
  22973908.620      693096.365 8    589044.35149  22973911.1164
  26835176.019     -115040.014 5    -28140.11458  26835181.6324
  24676768.917    -3873033.779 6  -2940387.41149  24676772.3624
  23884697.690      254439.568 7    262718.45849  23884700.7024
  22831133.706    -6199463.085 8  -4798944.87749  22831134.7374
 95  2 12 18 45  0.0070000  0  6 18 14 28 19 22 29
  23930823.284    -6241143.759 7  -4808950.76249  23930825.4524
  22991410.597      785069.987 8    660712.05249  22991413.2694
  26827828.706     -153645.714 4    -58222.30447  26827834.7764
  24670572.534    -3905595.115 6  -2965759.83949  24670576.5424
  23902111.675      345950.579 7    334025.69049  23902114.6164
  22831844.604    -6195726.584 8  -4796033.33949  22831845.6714
 95  2 12 18 45 30.0070000  0  5 18 14 19 22 29
  23923299.862    -6280679.522 7  -4839757.84149  23923302.4404
  23009013.026      877571.859 8    732791.37549  23009015.7224
  24664414.878    -3937951.383 6  -2990972.47349  24664419.2264
  23919622.448      437970.356 7    405729.36249  23919625.3084
  22832599.300    -6191758.797 8  -4792941.57549  22832600.3664
 95  2 12 18 46  0.0070000  0  6 18 14 28 19 22 29
  23915798.276    -6320101.347 7  -4870476.14649  23915800.5854
  23026715.862      970598.940 8    805279.95249  23026718.4524
  26813182.901      -37157.215 3
  24658297.964    -3970096.434 6  -3016020.51949  24658302.2414
  23937226.120      530477.401 7    477812.72349  23937229.0974
  22833395.425    -6187576.819 8  -4789682.91149  22833396.5264
 95  2 12 18 46 30.0070000  0  6 18 14 28 19 22 29
  23908323.472    -6359380.618 7  -4901083.36149  23908325.6754
  23044517.901     1064149.875 8    878176.72749  23044520.4094
  26805885.065      -75503.885 4     -2984.56858  26805894.1514
  24652225.808    -4002005.339 6  -3040884.54549  24652230.2144
  23954924.472      623482.126 7    550283.88649  23954927.4834
  22834231.167    -6183185.052 8  -4786260.77649  22834232.2224
 95  2 12 18 47  0.0070000  0  6 18 14 28 19 22 29
  23900874.261    -6398525.313 7  -4931585.71849  23900876.6984
  23062417.315     1158211.256 8    951471.24849  23062420.0344
  26798604.362     -113765.771 4    -32798.87349  26798612.1594
  24646196.214    -4033690.541 6  -3065574.26149  24646200.0224
  23972713.019      716963.486 7    623126.45049  23972715.9954
  22835104.581    -6178595.326 8  -4782684.39149  22835105.7414
 95  2 12 18 47 30.0070000  0  6 18 14 28 19 22 29
  23893449.808    -6437542.062 7  -4961988.37149  23893452.1864
  23080410.112     1252764.429 8   1025148.98049  23080412.8434
  26791341.636     -151936.161 4    -62541.89949  26791349.1864
  24640209.683    -4065153.576 6  -3090090.87549  24640213.2454
  23990591.948      810916.843 7    696336.81049  23990594.9254
  22836019.331    -6173788.653 8  -4778938.95749  22836020.4914
 95  2 12 18 48  0.0070000  0  6 18 14 28 19 22 29
  23886051.347    -6476419.912 7  -4992282.79749  23886053.7844
  23098495.308     1347804.339 8   1099205.98849  23098498.1434
  26784095.237     -190006.397 4    -92206.84949  26784102.9994
  24634265.167    -4096388.052 6  -3114429.37649  24634269.2454
  24008560.612      905342.662 7    769915.31649  24008563.5774
  22836980.854    -6168735.059 8  -4775001.11549  22836982.1674
 95  2 12 18 48 30.0070000  0  6 18 14 28 19 22 29
  23878680.456    -6515154.067 7  -5022465.25549  23878682.7764
  23116670.448     1443313.300 8   1173628.49249  23116673.2724
  26776871.479     -227974.338 5   -121792.08349  26776879.1124
  24628363.761    -4127401.780 6  -3138595.87749  24628367.7224
  24026620.651     1000249.217 7    843868.41849  24026623.6864
  22837990.425    -6163428.284 8  -4770865.99549  22837991.6204
 95  2 12 18 49  0.0070000  0  6 18 14 28 19 22 29
  23871336.159    -6553749.720 7  -5052539.78249  23871338.5974
  23134932.737     1539281.948 8   1248409.19349  23134935.4684
  26769666.167     -265840.075 5   -151297.70049  26769671.5934
  24622502.894    -4158200.123 6  -3162594.54849  24622506.6794
  24044772.831     1095636.202 7    918195.88049  24044775.7614
  22839049.183    -6157864.526 8  -4766530.62249  22839050.5774
 95  2 12 18 49 30.0070000  0  6 18 14 28 19 22 29
  23864018.253    -6592205.168 7  -5082505.05349  23864020.8314
  23153283.612     1635716.044 8   1323552.57749  23153286.5424
  26762481.042     -303599.922 5   -180720.78149  26762487.3944
  24616685.065    -4188773.060 6  -3186417.56449  24616688.9684
  24063013.620     1191492.270 7    992888.86049  24063016.3044
  22840156.073    -6152047.879 8  -4761998.19149  22840157.4444
 95  2 12 18 50  0.0070000  0  6 18 14 28 19 22 29
  23856731.222    -6630499.274 7  -5112344.60649  23856733.6014
  23171726.597     1732634.790 8   1399073.61149  23171729.5974
  26755315.112     -341254.537 5   -210061.91149  26755320.9834
  24610910.003    -4219119.041 6  -3210063.74349  24610913.9764
  24081340.628     1287803.179 7   1067936.26449  24081343.3584
  22841310.659    -6145981.908 8  -4757271.48149  22841311.9604
 95  2 12 18 50 30.0070000  0  6 18 14 28 19 22 29
  23849475.394    -6668628.599 7  -5142055.75449  23849477.9364
  23190261.651     1830037.886 8   1474972.05949  23190264.7334
  26748171.198     -378798.204 5   -239316.54849  26748178.1164
  24605177.581    -4249243.243 6  -3233537.10249  24605181.6714
  24099753.097     1384562.287 7   1143332.91649  24099756.1554
  22842512.440    -6139667.503 8  -4752351.18249  22842513.6834
 95  2 12 18 51  0.0070000  0  6 18 14 28 19 22 29
  23842248.495    -6706605.758 7  -5171648.33449  23842251.0384
  23208887.948     1927918.125 8   1551242.30749  23208890.9014
  26741045.034     -416237.110 5   -268489.58449  26741052.0114
  24599484.659    -4279160.477 6  -3256849.19749  24599488.7494
  24118245.175     1481738.576 7   1219054.64449  24118248.2104
  22843759.894    -6133110.651 8  -4747241.96349  22843761.1944
 95  2 12 18 51 30.0070000  0  6 18 14 28 19 22 29
  23835049.979    -6744434.359 7  -5201125.15749  23835052.4054
  23227602.151     2026261.028 8   1627873.07649  23227604.9644
  26733941.878     -453571.345 5   -297581.06549  26733948.3234
  24593830.542    -4308872.797 6  -3280001.62249  24593834.2574
  24136813.222     1579312.863 7   1295086.49749  24136816.3514
  22845056.292    -6126299.465 8  -4741934.56449  22845057.3584
 95  2 12 18 52  0.0070000  0  6 18 14 28 19 22 29
  23827879.808    -6782112.741 7  -5230484.91449  23827882.4214
  23246399.042     2125040.636 7   1704844.12649  23246401.9254
  26726858.112     -490793.917 5   -326585.49149  26726865.5464
  24588215.581    -4338379.110 6  -3302993.53649  24588219.3904
  24155459.925     1677301.966 7   1371441.58049  24155463.1474
  22846404.011    -6119216.999 8  -4736415.77449  22846404.9014
 95  2 12 18 52 30.0070000  0  6 18 14 28 19 22 29
  23820735.183    -6819659.168 7  -5259741.86449  23820737.7024
  23265276.667     2224243.721 8   1782145.15949  23265279.6794
  26719796.198     -527902.260 5   -355500.99549  26719802.2224
  24582641.550    -4367671.218 6  -3325818.51849  24582645.3114
  24174187.386     1775715.153 7   1448127.12249  24174190.4914
  22847801.058    -6111875.295 8  -4730694.97749  22847801.9834
 95  2 12 18 53  0.0070000  0  6 18 14 28 19 22 29
  23813614.729    -6857077.224 7  -5288898.78349  23813617.2374
  23284234.675     2323867.493 8   1859774.00149  23284237.6284
  26712757.433     -564890.734 5   -384323.02849  26712765.7224
  24577110.878    -4396736.116 6  -3348466.45549  24577114.4874
  24192997.440     1874561.336 7   1525150.06449  24193000.5584
  22849246.800    -6104276.729 8  -4724774.03249  22849247.8434
 95  2 12 18 53 30.0070000  0  6 18 14 28 19 22 29
  23806516.722    -6894377.418 7  -5317963.87449  23806519.1014
  23303271.870     2423907.069 8   1937726.84149  23303274.8114
  26705740.073     -601764.284 5   -413055.52649  26705747.8114
  24571624.206    -4425568.781 6  -3370933.43749  24571627.9914
  24211890.987     1973849.102 7   1602517.09549  24211894.2694
  22850739.448    -6096433.410 8  -4718662.37149  22850740.6084
 95  2 12 18 54  0.0070000  0  6 18 14 28 19 22 29
  23799443.253    -6931548.279 7  -5346928.17449  23799446.1124
  23322393.245     2524391.329 8   2016026.18549  23322396.1044
  26698746.464     -638511.078 4   -441689.28348  26698752.5464
  24566182.604    -4454162.777 6  -3393214.44049  24566186.4134
  24230874.284     2073607.736 7   1680251.03949  24230877.6364
  22852278.019    -6088348.874 8  -4712362.75149  22852279.2964
 95  2 12 18 54 30.0070000  0  6 18 14 28 19 22 29
  23792395.323    -6968585.646 7  -5375788.47549  23792397.7614
  23341603.183     2625339.261 7   2094686.83449  23341606.0304
  26691777.956     -675128.861 4   -470222.50549  26691785.1674
  24560784.784    -4482530.421 7  -3415319.06549  24560788.9334
  24249948.245     2173840.610 7   1758354.52049  24249951.5854
  22853861.722    -6080025.991 8  -4705877.40249  22853862.9644
 95  2 12 18 55  0.0070000  0  6 18 14 28 19 22 29
  23785374.472    -7005479.188 7  -5404536.67649  23785377.2144
  23360901.862     2726754.263 7   2173711.43249  23360904.8624
  26684837.151     -711610.877 5   -498649.93148  26684845.3234
  24555427.128    -4510681.982 6  -3437255.32449  24555430.8784
  24269110.698     2274540.711 7   1836822.06949  24269113.9914
  22855495.058    -6071442.590 8  -4699189.04749  22855496.4294
 95  2 12 18 55 30.0070000  0  6 18 14 28 19 22 29
  23778383.331    -7042218.655 7  -5433164.84349  23778385.7574
  23380290.628     2828644.378 7   2253106.24649  23380293.7694
  26677921.073     -747955.647 5   -526970.42149  26677927.5424
  24550109.003    -4538628.434 6  -3459031.75349  24550113.1284
  24288360.550     2375698.019 7   1915645.88449  24288363.7844
  22857179.050    -6062593.780 8  -4692293.88549  22857180.4214
 95  2 12 18 56  0.0070000  0  6 18 14 28 19 22 29
  23771423.136    -7078794.052 7  -5461665.14849  23771425.8434
  23399769.823     2931006.944 7   2332869.20749  23399772.9644
  26671031.894     -784158.019 5   -555179.96349  26671038.5034
  24544828.683    -4566378.708 7  -3480655.31149  24544832.5854
  24307694.581     2477298.873 7   1994815.32349  24307697.7924
  22858913.565    -6053478.634 8  -4685191.18149  22858914.9604
 95  2 12 18 56 30.0070000  0  6 18 14 28 19 22 29
  23764493.675    -7115208.956 7  -5490040.40749  23764496.1474
  23419333.136     3033811.312 7   2412976.42549  23419336.1124
  26664168.511     -820222.166 5   -583281.83346  26664176.9054
  24539584.487    -4593937.449 6  -3502129.62549  24539588.1904
  24327105.620     2579302.929 7   2074298.94349  24327108.8194
  22860699.073    -6044094.408 8  -4677878.81149  22860700.5384
 95  2 12 18 57  0.0070000  0  6 18 14 28 19 22 29
  23757597.229    -7151451.121 7  -5518281.05249  23757599.6794
  23438979.589     3137055.545 7   2493426.39149  23438982.6364
  26657333.206     -856136.617 4   -611267.05449  26657340.2184
  24534380.456    -4621285.812 6  -3523440.01049  24534383.9954
  24346590.261     2681698.314 7   2154087.49449  24346593.6714
  22862537.940    -6034432.001 8  -4670349.67149  22862539.5224
 95  2 12 18 57 30.0070000  0  6 18 14 28 19 22 29
  23750734.065    -7187516.673 7  -5546384.08249  23750736.6674
  23458709.034     3240732.593 7   2574213.61649  23458711.8584
  26650528.604     -891899.953 5   -639134.56649  26650535.8044
  24529216.292    -4648421.754 6  -3544584.86949  24529219.5614
  24366150.534     2784487.370 7   2234182.79449  24366153.9794
  22864427.878    -6024501.416 8  -4662611.56349  22864429.2024
 95  2 12 18 58  0.0070000  0  6 18 14 28 19 22 29
  23743904.737    -7223405.790 7  -5574349.62549  23743907.3274
  23478520.058     3344840.161 7   2655336.31049  23478522.9764
  26643755.081     -927504.851 5   -666878.58349  26643759.6864
  24524092.667    -4675346.443 6  -3565565.11849  24524096.3944
  24385786.058     2887672.878 7   2314587.02149  24385789.5734
  22866370.690    -6014290.941 8  -4654655.36649  22866372.1904
 95  2 12 18 58 30.0070000  0  6 18 14 28 19 22 29
  23737108.894    -7259118.023 7  -5602177.33349  23737111.4724
  23498416.714     3449397.369 7   2736809.37149  23498419.6674
  26637010.417     -962942.984 5   -694492.68649  26637015.9014
  24519009.706    -4702056.625 6  -3586378.21549  24519013.6904
  24405499.534     2991265.642 7   2395308.58949  24405503.1554
  22868369.659    -6003786.247 7  -4646469.90549  22868371.2764
 95  2 12 18 59  0.0070000  0  6 18 14 28 19 22 29
  23730344.956    -7294663.738 7  -5629875.29149  23730347.3474
  23518402.222     3554420.700 7   2818645.64549  23518405.2454
  26630298.636     -998213.728 5   -721976.31249  26630303.0304
  24513967.831    -4728554.543 6  -3607025.91249  24513971.6164
  24425292.245     3095277.197 7   2476356.48249  24425295.7844
  22870423.354    -5992993.532 7  -4638060.01049  22870424.9484
 95  2 12 18 59 30.0070000  0  6 18 14 28 19 22 29
  23723614.659    -7330031.832 7  -5657434.84749  23723617.0384
  23538478.417     3659923.539 7   2900855.55449  23538481.5814
  26623619.854    -1033306.402 4   -749321.18449  26623625.8664
  24508968.136    -4754827.816 7  -3627498.56049  24508971.7224
  24445167.823     3199723.888 7   2557743.43649  24445171.3514
  22872534.097    -5981903.311 8  -4629418.29249  22872535.6324
 95  2 12 19  0  0.0070000  0  6 18 14 28 19 22 29
  23716917.401    -7365224.919 7  -5684858.02149  23716919.8864
  23558645.417     3765900.064 7   2983434.57049  23558648.6404
  26616976.401    -1068219.933 4   -776526.49449  26616983.2614
  24504012.433    -4780870.304 7  -3647791.38249  24504015.6904
  24465125.362     3304601.501 7   2639466.18549  24465128.7494
  22874702.237    -5970508.243 8  -4620539.03549  22874703.7024
 95  2 12 19  0 30.0070000  0  6 18 14 28 19 22 29
  23710255.925    -7400230.124 7  -5712134.80649  23710258.4794
  23578898.214     3872330.212 7   3066367.06049  23578901.7184
  26610368.237    -1102950.636 5   -803589.34549  26610374.9404
  24499103.737    -4806664.304 6  -3667890.58549  24499107.2294
  24485165.690     3409911.929 7   2721526.18249  24485169.3234
  22876926.073    -5958822.825 8  -4611433.53549  22876927.4794
 95  2 12 19  1  0.0070000  0  6 18 14 28 19 22 29
  23703633.901    -7435030.082 7  -5739251.65149  23703636.5154
  23599230.784     3979178.233 7   3149625.16849  23599234.2534
  26603793.722    -1137492.445 5   -830505.00149  26603800.2964
  24494243.917    -4832201.678 6  -3687789.82849  24494247.6674
  24505289.581     3515665.340 7   2803931.36849  24505293.0154
  22879203.636    -5946852.691 8  -4602106.17449  22879205.2294
 95  2 12 19  1 30.0070000  0  6 18 14 28 19 22 29
  23697051.440    -7469621.695 7  -5766206.14949  23697054.0544
  23619637.190     4086413.932 7   3233185.36449  23619640.6244
  26597255.839    -1171852.259 5   -857278.84749  26597263.2024
  24489429.964    -4857499.332 6  -3707502.26649  24489434.0194
  24525497.323     3621855.515 7   2886676.89049  24525500.6984
  22881534.808    -5934603.816 8  -4592561.61749  22881536.3544
 95  2 12 19  2  0.0070000  0  6 18 14 28 19 22 29
  23690507.472    -7504010.282 8  -5793002.44449  23690510.1204
  23640115.144     4194025.430 7   3317038.40349  23640118.6714
  26590751.870    -1206028.243 5   -883909.38449  26590759.5974
  24484658.284    -4882575.252 6  -3727041.91349  24484662.0934
  24545785.620     3728474.513 7   2969756.55849  24545789.1714
  22883918.198    -5922078.175 7  -4582801.39649  22883919.6404
 95  2 12 19  2 30.0070000  0  6 18 14 28 19 22 29
  23684001.917    -7538199.080 8  -5819643.06049  23684004.4014
  23660665.628     4302019.440 7   3401189.49049  23660669.1204
  26584283.237    -1240021.868 5   -910397.94049  26584291.3044
  24479925.901    -4907442.899 7  -3746419.29149  24479929.7574
  24566153.026     3835504.287 7   3053156.30849  24566156.5304
  22886353.894    -5909277.373 7  -4572826.76849  22886355.3114
 95  2 12 19  3  0.0070000  0  6 18 14 28 19 22 29
  23677532.479    -7572192.838 8  -5846131.69949  23677535.2334
  23681294.198     4410422.597 7   3485659.38849  23681297.5734
  26577849.948    -1273828.325 5   -936740.52549  26577855.9834
  24475231.940    -4932110.632 7  -3765640.88149  24475235.7494
  24586596.729     3942935.635 7   3136868.97949  24586600.4564
  22888846.729    -5896178.273 7  -4562619.69549  22888848.2654
 95  2 12 19  3 30.0070000  0  6 18 14 28 19 22 29
  23671099.948    -7605996.114 7  -5872471.91449  23671102.5614
  23702006.745     4519266.739 7   3570472.91049  23702010.1674
  26571453.159    -1307440.070 5   -962931.46048  26571460.3234
  24470577.979    -4956566.668 7  -3784697.52349  24470581.6714
  24607112.011     4050744.312 7   3220875.66549  24607115.7494
  22891399.237    -5882764.785 7  -4552167.64849  22891400.9254
 95  2 12 19  4  0.0070000  0  6 18 14 28 19 22 29
  23664704.214    -7639606.309 8  -5898661.67649  23664706.7454
  23722804.487     4628559.812 7   3655636.24249  23722807.7804
  26565095.831    -1340849.581 5   -988964.80549  26565102.6754
  24465967.425    -4980795.692 7  -3803577.26349  24465971.0694
  24627696.589     4158917.126 7   3305166.10249  24627700.3864
  22894012.276    -5869034.263 7  -4541468.56249  22894013.9644
 95  2 12 19  4 30.0070000  0  6 18 14 28 19 22 29
  23658344.058    -7673030.605 8  -5924706.57749  23658346.4014
  23743685.800     4738291.669 7   3741141.48949  23743689.1634
  26558777.003    -1374057.476 5  -1014841.04249  26558785.6204
  24461401.620    -5004788.847 7  -3822273.21049  24461405.0544
  24648349.815     4267448.635 7   3389736.03849  24648353.6834
  22896684.729    -5854990.004 7  -4530525.00549  22896686.4764
 95  2 12 19  5  0.0070000  0  6 18 14 28 19 22 29
  23652017.808    -7706275.375 8  -5950611.59249  23652020.1754
  23764647.261     4848444.581 7   3826974.82949  23764650.7534
  26552496.253    -1407059.864 5  -1040557.11249  26552503.2534
  24456881.003    -5028546.564 7  -3840785.71049  24456884.3784
  24669072.878     4376348.857 7   3474593.28049  24669076.5224
  22899416.214    -5840637.636 8  -4519341.36149  22899418.0194
 95  2 12 19  5 30.0070000  0  6 18 14 28 19 22 29
  23645725.417    -7739342.626 8  -5976378.28349  23645727.7024
  23785687.034     4959008.295 7   3913128.26949  23785690.7144
  26546257.769    -1439848.754 5  -1066106.85149  26546263.6044
  24452405.456    -5052063.463 7  -3859110.55849  24452409.1124
  24689868.089     4485628.423 7   3559746.11549  24689871.5694
  22902204.261    -5825985.275 7  -4507923.96049  22902206.0074
 95  2 12 19  6  0.0070000  0  6 18 14 28 19 22 29
  23639465.526    -7772237.703 8  -6002010.80649  23639467.8354
  23806801.112     5069964.610 7   3999587.63449  23806804.8044
  26540057.065    -1472431.789 5  -1091496.18249  26540063.2884
  24447971.120    -5075365.879 7  -3877268.26349  24447974.7064
  24710736.956     4595294.510 7   3645200.13649  24710740.2844
  22905048.323    -5811039.392 7  -4496277.83549  22905050.0224
 95  2 12 19  6 30.0070000  0  7 18 14 28 19 31 22 29
  23633238.753    -7804959.222 8  -6027508.09149  23633241.2964
  23827992.495     5181325.051 7   4086361.89949  23827996.2574
  26533896.940    -1504805.199 5  -1116722.16949  26533902.5654
  24443576.144    -5098461.787 7  -3895265.06949  24443579.9874
  26978625.401      -52472.380 4
  24731681.909     4705360.199 7   3730965.53549  24731685.0614
  22907949.581    -5795792.655 8  -4484397.28549  22907951.1864
 95  2 12 19  7  0.0070000  0  7 18 14 28 19 31 22 29
  23627050.144    -7837479.479 8  -6052848.54949  23627052.8044
  23849263.550     5293104.871 7   4173462.95749  23849267.1834
  26527777.503    -1536958.181 5  -1141776.34549  26527783.8664
  24439223.026    -5121338.470 7  -3913091.04149  24439226.5304
  26968286.003     -106809.003 4
  24752705.362     4815839.783 7   3817053.45249  24752708.5614
  22910910.190    -5780236.805 8  -4472275.86549  22910911.5504
 95  2 12 19  7 30.0070000  0  7 18 14 28 19 31 22 29
  23620903.589    -7869781.056 8  -6078018.60449  23620906.1444
  23870614.019     5405301.404 7   4260888.72049  23870617.7454
  26521702.019    -1568888.914 5  -1166657.35149  26521708.0194
  24434912.183    -5143989.348 7  -3930741.06549  24434915.7924
  26957936.698     -161198.423 5    -12718.34457  26957946.0774
  24773805.597     4926721.139 7   3903454.43749  24773809.0074
  22913929.323    -5764369.608 8  -4459911.83849  22913930.7764
 95  2 12 19  8  0.0070000  0  7 18 14 28 19 31 22 29
  23614801.237    -7901849.338 8  -6103006.87149  23614803.7454
  23892042.269     5517906.137 7   4348632.56349  23892045.8314
  26515667.097    -1600600.602 5  -1191367.69749  26515672.8154
  24430643.183    -5166423.020 7  -3948221.85049  24430647.1904
  26947571.308     -215666.874 5    -55161.03749  26947581.0734
  24794980.378     5037995.979 7   3990162.03349  24794984.0584
  22917007.886    -5748191.312 8  -4447305.39749  22917009.4794
 95  2 12 19  8 30.0070000  0  7 18 14 28 19 31 22 29
  23608743.026    -7933685.580 8  -6127814.33249  23608745.4874
  23913545.308     5630906.816 7   4436684.93449  23913548.8704
  26509673.620    -1632094.574 5  -1215908.36049  26509679.3514
  24426416.839    -5188633.928 7  -3965529.04349  24426421.0224
  26937188.972     -270224.896 5    -97673.53748  26937197.8474
  24816227.808     5149652.099 7   4077166.72349  24816231.6984
  22920142.128    -5731721.443 8  -4434471.75749  22920143.9684
 95  2 12 19  9  0.0070000  0  7 18 14 28 19 31 22 29
  23602729.245    -7965287.392 8  -6152439.12149  23602731.5544
  23935120.644     5744285.314 7   4525031.70649  23935124.4524
  26503722.472    -1663367.286 5  -1240276.61849  26503728.4954
  24422233.276    -5210619.958 7  -3982661.01049  24422237.4364
  26926788.495     -324873.786 5   -140256.82247  26926796.2224
  24837543.839     5261668.237 7   4164451.94749  24837547.7654
  22923332.909    -5714953.998 8  -4421406.23849  22923334.6444
 95  2 12 19  9 30.0070000  0  7 18 14 28 19 31 22 29
  23596758.190    -7996667.066 8  -6176890.81749  23596760.3704
  23956767.894     5858043.188 7   4613674.09949  23956771.7374
  26497815.433    -1694414.699 5  -1264469.36749  26497820.6014
  24418090.167    -5232392.085 7  -3999626.29449  24418094.0224
  26916371.026     -379617.941 5   -182914.36847  26916377.3784
  24858925.120     5374027.712 7   4252004.71349  24858929.2224
  22926581.597    -5697882.560 8  -4408103.84349  22926583.1904
 95  2 12 19 10  0.0070000  0  7 18 14 28 19 31 22 29
  23590826.722    -8027837.512 8  -6201179.47349  23590828.9954
  23978488.722     5972186.377 7   4702616.73249  23978492.3544
  26491950.815    -1725233.725 5  -1288484.10649  26491957.6984
  24413985.409    -5253960.283 7  -4016432.67649  24413989.2184
  26905938.214     -434439.173 4   -225631.92548  26905947.2764
  24880373.315     5486736.716 7   4339829.83449  24880377.2534
  22929887.862    -5680508.300 8  -4394565.48149  22929889.3154
 95  2 12 19 10 30.0070000  0  7 18 14 28 19 31 22 29
  23584931.339    -8058816.663 8  -6225319.07849  23584933.6944
  24000282.300     6086709.826 7   4791855.66549  24000285.9794
  26486127.229    -1755827.584 5  -1312323.42949  26486133.0194
  24409917.737    -5275338.437 7  -4033090.98249  24409921.2184
  26895493.128     -489331.952 4   -268405.30849  26895504.4294
  24901885.206     5599781.539 7   4427916.63149  24901889.1794
  22933251.370    -5662832.635 8  -4380792.26249  22933252.9524
 95  2 12 19 11  0.0080000  0  7 18 14 28 19 31 22 29
  23579072.398    -8089605.268 8  -6249310.19849  23579075.0124
  24022147.281     6201609.202 7   4881387.54349  24022150.8674
  26480350.430      -10094.34915  -1335984.96549  26480357.6054
  24405884.477    -5296532.443 7  -4049605.77549  24405888.2384
  26885037.398     -544278.920 4   -311220.85648  26885046.2384
  24923462.078     5713170.978 7   4516271.96549  24923465.9574
  22936675.117    -5644839.974 8  -4366772.02849  22936676.8164
 95  2 12 19 11 30.0080000  0  7 18 14 28 19 31 22 29
  23573251.922    -8120191.871 8  -6273143.94449  23573254.4064
  24044082.797     6316882.560 7   4971210.81049  24044086.3714
  26474615.687      -40222.902 5  -1359461.74349  26474621.6294
  24401887.172    -5317538.039 7  -4065973.79249  24401890.9804
  26874575.609     -599251.783 4   -354056.65248  26874585.5984
  24945108.367     5826920.120 7   4604907.56549  24945111.9304
  22940157.656    -5626539.830 8  -4352512.22349  22940159.3914
 95  2 12 19 12  0.0080000  0  7 18 14 28 19 31 22 29
  23567468.852    -8150583.174 8  -6296825.48649  23567471.1724
  24066086.547     6432513.323 7   5061312.58949  24066090.2504
  26468927.297      -70120.394 5  -1382758.41549  26468933.5434
  24397926.070    -5338354.104 7  -4082194.09849  24397929.8444
  26864108.258     -654257.258 4   -396917.83446  26864118.1174
  24966822.422     5941029.295 7   4693823.72649  24966826.1604
  22943697.469    -5607939.550 8  -4338018.52549  22943699.1094
 95  2 12 19 12 30.0080000  0  7 18 14 28 19 31 22 29
  23561724.375    -8180770.445 8  -6320348.03849  23561726.6254
  24088156.703     6548491.901 7   5151685.39349  24088160.5944
  26463282.609      -99782.032 5  -1405871.32549  26463288.4344
  24394004.156    -5358964.683 7  -4098254.28449  24394007.9184
  26853634.289     -709300.144 4   -439808.14748  26853641.6174
  24988601.859     6055480.171 7   4783006.15149  24988605.7274
  22947295.508    -5589030.260 8  -4323284.04049  22947297.1604
 95  2 12 19 13  0.0080000  0  7 18 14 28 19 31 22 29
  23556021.109    -8210740.980 8  -6343701.71249  23556023.3364
  24110291.508     6664810.882 7   5242323.44149  24110295.3164
  26457683.055     -129204.102 5  -1428797.54749  26457688.3984
  24390124.906    -5379348.988 7  -4114138.15149  24390128.6804
  26843154.945     -764368.648 4   -482718.43548  26843163.9844
  25010444.547     6170264.837 7   4872448.66849  25010448.4734
  22950952.047    -5569814.626 8  -4308310.84649  22950953.5944
 95  2 12 19 13 30.0080000  0  7 18 14 28 19 31 22 29
  23550359.094    -8240494.372 8  -6366886.17849  23550361.6844
  24132492.469     6781475.561 7   5333230.86449  24132496.2894
  26452129.289     -158388.743 5  -1451538.74849  26452135.6294
  24386290.523    -5399500.746 7  -4129840.81149  24386294.2384
  26832668.023     -819478.801 4   -525661.25349  26832677.2504
  25032347.984     6285368.889 7   4962140.06149  25032351.9344
  22954666.891    -5550293.716 8  -4293099.77049  22954668.4844
 95  2 12 19 14  0.0080000  0  7 18 14 28 19 31 22 29
  23544739.680    -8270024.526 8  -6389896.69549  23544742.1294
  24154759.461     6898489.414 7   5424410.37849  24154763.4574
  26446622.461     -187329.812 5  -1474090.16349  26446628.8944
  24382500.375    -5419417.313 7  -4145360.19449  24382504.2304
  26822172.828     -874630.707 4   -568636.54649  26822179.9224
  25054309.281     6400773.765 7   5052065.86049  25054313.2424
  22958444.203    -5530444.857 8  -4277633.15149  22958446.0084
 95  2 12 19 14 30.0080000  0  7 18 14 28 19 31 22 29
  23539165.781    -8299316.754 8  -6412721.81649  23539168.3244
  24177094.437     7015860.603 7   5515868.32549  24177098.1994
  26441162.500     -216021.092 5  -1496446.94149  26441168.0434
  24378753.828    -5439104.641 7  -4160700.96649  24378757.7774
  26811671.609     -929812.083 5   -611634.81648  26811679.8984
  25076327.406     6516481.211 7   5142227.42149  25076331.5664
  22962286.101    -5510254.847 8  -4261900.70249  22962287.8944
 95  2 12 19 15  0.0080000  0  7 18 14 28 19 31 22 29
  23533636.601    -8328372.613 8  -6435362.75349  23533639.0624
  24199498.539     7133593.551 7   5607608.16449  24199502.5704
  26435751.195     -244458.023 5  -1518605.51949  26435756.5514
  24375048.773    -5458574.350 7  -4175872.15649  24375052.7814
  26801164.867     -985020.005 4   -654653.75449  26801174.0124
  25098407.430     6632512.819 7   5232641.58049  25098411.4024
  22966192.695    -5489726.092 8  -4245904.29749  22966194.3124
 95  2 12 19 15 30.0080000  0  7 18 14 28 19 31 22 29
  23528147.273    -8357217.875 8  -6457839.58749  23528149.5944
  24221970.477     7251682.943 7   5699625.74749  24221974.4024
  26430386.039     -272647.267 5  -1540571.11949  26430391.9104
  24371380.625    -5477851.555 7  -4190893.34749  24371384.2814
  26790650.539    -1040273.793 4   -697708.47849  26790659.1444
  25120548.305     6748861.730 7   5323302.98349  25120552.1604
  22970161.492    -5468868.408 8  -4229651.58649  22970163.2974
 95  2 12 19 16  0.0080000  0  7 18 14 28 19 31 22 29
  23522703.766    -8385824.809 8  -6480130.71549  23522706.2274
  24244511.383     7370136.124 7   5791926.80649  24244515.1564
  26425073.508     -300569.138 5  -1562328.35149  26425079.0164
  24367750.109    -5496930.998 7  -4205760.44349  24367753.6134
  26780131.391    -1095550.018 5   -740780.65949  26780139.4344
  25142752.758     6865547.099 7   5414226.56149  25142756.5084
  22974193.664    -5447678.400 7  -4213139.92649  22974195.3874
 95  2 12 19 16 30.0080000  0  7 18 14 28 19 31 22 29
  23517304.617    -8414198.282 8  -6502239.92149  23517307.0664
  24267119.437     7488942.044 7   5884502.72849  24267123.3874
  26419810.562     -328223.095 5  -1583876.80449  26419816.4574
  24364156.476    -5515815.163 7  -4220475.36649  24364160.0274
  26769606.352    -1150857.909 4   -783877.53549  26769615.5084
  25165024.555     6982585.356 7   5505425.10749  25165028.5274
  22978283.891    -5426186.179 8  -4196392.77049  22978285.7304
 95  2 12 19 17  0.0080000  0  7 18 14 28 19 31 22 29
  23511948.711    -8442343.734 8  -6524171.45049  23511951.0664
  24289791.726     7608086.627 7   5977342.54049  24289795.7694
  26414600.453     -355604.888 6  -1605213.21949  26414605.9614
  24360600.922    -5534498.145 7  -4235033.53049  24360604.7424
  26759074.750    -1206201.706 5   -827002.38949  26759083.6374
  25187363.125     7099976.876 7   5596898.92149  25187367.1564
  22982429.852    -5404398.991 8  -4179415.76949  22982431.7154
 95  2 12 19 17 30.0080000  0  7 18 14 28 19 31 22 29
  23506639.469    -8470243.944 8  -6545911.87749  23506641.8714
  24312529.351     7727573.807 7   6070449.31049  24312533.6054
  26409443.039     -382707.196 6  -1626331.83749  26409447.9024
  24357085.031    -5552973.988 7  -4249430.27749  24357088.9924
  26748537.984    -1261574.111 5   -870149.56349  26748546.9884
  25209767.680     7217712.161 7   5688640.60649  25209771.8054
  22986634.539    -5382303.237 8  -4162198.33449  22986636.5084
 95  2 12 19 18  0.0080000  0  7 18 14 28 19 31 22 29
  23501378.148    -8497891.076 8  -6567455.10649  23501380.5984
  24335331.508     7847400.368 7   6163820.52949  24335335.9264
  26404340.227     -409521.534 6  -1647226.05949  26404345.4884
  24353608.406    -5571242.540 7  -4263665.50449  24353612.3554
  26737999.375    -1316959.964 5   -913307.20049  26738007.1724
  25232236.898     7335790.381 7   5780649.51349  25232241.0944
  22990901.477    -5359880.795 8  -4144726.33549  22990903.4924
 95  2 12 19 18 30.0080000  0  7 18 14 28 19 31 22 29
  23496161.516    -8525305.456 8  -6588816.96849  23496163.9654
  24358199.336     7967569.001 7   6257458.29549  24358203.7774
  26399292.969     -436044.980 6  -1667893.63449  26399298.2894
  24350173.977    -5589292.028 7  -4277730.03749  24350178.1724
  26727457.469    -1372354.609 5   -956471.71349  26727464.8794
  25254769.656     7454198.835 7   5872915.74149  25254773.9454
  22995234.562    -5337110.046 8  -4126982.93249  22995236.3324
 95  2 12 19 19  0.0080000  0  8 18 14 28 19 31 22 27 29
  23490986.977    -8552498.893 8  -6610006.66549  23490989.4494
  24381131.195     8088075.798 7   6351359.57249  24381135.4844
  26394299.555     -462283.254 6  -1688338.97849  26394305.2274
  24346779.203    -5607133.487 7  -4291632.46149  24346782.8594
  26716915.133    -1427752.659 5   -999638.88949  26716921.7074
  25277359.477     7572910.517 7   5965418.25349  25277363.8714
  27467760.391      -15553.55313
  22999638.461    -5313967.481 8  -4108949.79749  22999640.2194
 95  2 12 19 19 30.0080000  0  8 18 14 28 19 31 22 27 29
  23485858.305    -8579450.471 8  -6631007.90049  23485860.8364
  24404129.969     8208935.368 7   6445535.72749  24404134.2814
  26389362.367     -488227.333 6  -1708555.09649  26389368.0394
  24343423.719    -5624765.333 7  -4305371.55349  24343427.5744
  26706375.750    -1483135.618 5  -1042794.32749  26706382.3594
  25300007.750     7691925.919 7   6058157.43349  25300012.0164
  27458897.953      -62127.641 3
  23004114.461    -5290446.702 8  -4090621.95349  23004116.1724
 95  2 12 19 20  0.0080000  0  8 18 14 28 19 31 22 27 29
  23480775.789    -8606158.327 8  -6651819.22149  23480778.3204
  24427194.672     8330141.154 7   6539981.66249  24427199.1134
  26384482.586     -513876.388 6  -1728541.32849  26384487.8944
  24340110.695    -5642175.137 7  -4318937.63249  24340114.4344
  26695842.602    -1538486.551 5  -1085924.77649  26695850.8554
  25322712.570     7811238.160 7   6151127.91449  25322716.8364
  27450061.023     -108567.017 3    -28940.43756  27450067.6334
  23008661.578    -5266551.331 8  -4072002.21449  23008663.3594
 95  2 12 19 20 30.0080000  0  8 18 14 28 19 31 22 27 29
  23475743.187    -8632605.136 8  -6672427.13049  23475745.7544
  24450323.586     8451684.320 7   6634690.48749  24450328.1444
  26379658.516     -539229.454 6  -1748296.90349  26379663.6844
  24336841.937    -5659352.256 7  -4332322.39849  24336845.8984
  26685317.047    -1593804.226 5  -1129029.31849  26685324.3054
  25345474.008     7930849.134 7   6244331.16549  25345478.1564
  27441246.445     -154883.850 3    -65031.36946  27441255.0044
  23013277.664    -5242294.030 8  -4053100.45949  23013279.4454
 95  2 12 19 21  0.0080000  0  8 18 14 28 19 31 22 27 29
  23470765.601    -8658762.195 8  -6692809.25549  23470768.2034
  24473516.992     8573564.161 7   6729661.65649  24473521.5744
  26374890.883     -564277.583 6  -1767814.87549  26374896.2734
  24333614.867    -5676311.004 7  -4345537.00649  24333618.5704
  26674798.180    -1649078.587 5  -1172100.12449  26674806.5984
  25368293.562     8050766.302 7   6337773.02049  25368297.4534
  27432455.609     -201078.743 3   -101027.35348  27432463.6874
  23017962.039    -5217677.187 8  -4033918.53349  23017963.8914
 95  2 12 19 21 30.0080000  0  8 18 14 28 19 31 22 27 29
  23465843.516    -8684628.037 8  -6712964.45549  23465846.1644
  24496772.469     8695773.987 7   6824889.95649  24496777.2264
  26370180.922     -589026.939 5  -1787100.03949  26370187.0744
  24330429.445    -5693052.163 7  -4358582.06749  24330432.9264
  26664287.180    -1704311.679 5  -1215138.77049  26664295.5394
  25391168.789     8170976.636 7   6431443.30149  25391172.8444
  27423685.164     -247167.287 3   -136940.44742  27423690.5904
  23022710.281    -5192726.628 8  -4014476.56749  23022712.0394
 95  2 12 19 22  0.0080000  0  8 18 14 28 19 31 22 27 29
  23460978.141    -8710196.176 8  -6732887.68149  23460980.6724
  24520094.250     8818329.273 7   6920387.43849  24520098.9734
  26365533.187     -613453.187 6  -1806133.42849  26365539.4574
  24327287.961    -5709559.934 7  -4371445.26649  24327291.3244
  26653787.453    -1759486.889 5  -1258132.32549  26653794.5944
  25414103.102     8291496.943 7   6525355.12549  25414107.1444
  27414934.414     -293153.009 3   -172773.42747  27414939.8984
  23027525.828    -5167419.762 8  -3994756.96549  23027527.5394
 95  2 12 19 22 30.0080000  0  8 18 14 28 19 31 22 27 29
  23456166.297    -8735482.341 8  -6752591.19149  23456168.6994
  24543479.125     8941217.333 7   7016144.23049  24543483.5784
  26360944.367     -637567.124 6  -1824923.45949  26360949.8404
  24324182.906    -5725874.904 7  -4384158.23749  24324186.2814
  26643294.859    -1814628.397 5  -1301099.63249  26643301.8944
  25437095.695     8412323.209 7   6619505.35049  25437100.0664
  27406198.422     -339064.243 3   -208548.37947  27406205.5624
  23032405.867    -5141774.650 8  -3974773.79449  23032407.7194
 95  2 12 19 23  0.0080000  0  8 18 14 28 19 31 22 27 29
  23451406.922    -8760493.465 8  -6772080.38549  23451409.1844
  24566928.445     9064443.106 7   7112164.16849  24566932.6414
  26356414.383     -661369.935 5  -1843471.05149  26356420.9344
  24321113.570    -5742006.639 7  -4396728.42449  24321117.0394
  26632806.742    -1869738.704 5  -1344042.65049  26632812.7894
  25460145.820     8533451.959 7   6713891.28649  25460150.0744
  27397474.695     -384905.659 4   -244268.86249  27397481.2114
  23037351.172    -5115787.571 8  -3954524.15049  23037353.0234
 95  2 12 19 23 30.0080000  0  8 18 14 28 19 31 22 27 29
  23446699.086    -8785233.404 8  -6791358.27149  23446701.2194
  24590441.500     9188005.010 7   7208446.02649  24590445.5664
  26351945.680     -684855.853 5  -1861771.73149  26351952.2664
  24318084.477    -5757925.737 7  -4409132.93149  24318087.9804
  26622324.875    -1924819.729 5  -1386962.79948  26622331.2854
  25483253.984     8654886.396 7   6808515.41349  25483258.2274
  27388763.453     -430677.195 3   -279934.94149  27388769.6994
  23042362.047    -5089455.563 8  -3934005.73749  23042364.0164
 95  2 12 19 24  0.0080000  0  7 18 14 28 19 31 22 29
  23442043.836    -8809696.840 8  -6810420.69149  23442046.1564
  24614015.031     9311883.424 7   7304974.50849  24614019.3324
  26347538.242     -708017.720 6  -1879819.91249  26347544.1604
  24315095.883    -5773629.398 7  -4421369.55549  24315099.6564
  26611847.289    -1979884.958 5  -1429870.65449  26611854.0744
  25506420.805     8776629.398 7   6903379.98349  25506424.8484
  23047441.664    -5062761.668 8  -3913205.33549  23047443.5984
 95  2 12 19 24 30.0080000  0  8 18 14 28 19 31 22 27 29
  23437440.141    -8833888.576 8  -6829271.39849  23437442.4614
  24637643.766     9436053.074 7   7401729.93349  24637648.5124
  26343191.258     -730859.182 5  -1897618.41949  26343196.7664
  24312151.180    -5789103.273 7  -4433427.13449  24312155.3634
  26601369.937    -2034940.159 5  -1472770.68249  26601376.3124
  25529645.805     8898674.509 7   6998479.95049  25529649.8124
  27371393.148       -7590.46513
  23052591.523    -5035699.887 8  -3892118.27149  23052593.4224
 95  2 12 19 25  0.0080000  0  8 18 14 28 19 31 22 27 29
  23432889.109    -8857804.600 8  -6847907.26749  23432891.5704
  24661325.398     9560502.765 7   7498703.56749  24661330.7304
  26338908.141     -753368.199 5  -1915157.88649  26338913.5554
  24309257.828    -5804307.875 7  -4445274.88349  24309261.6844
  26590897.836    -2089978.176 5  -1515657.32149  26590905.5984
  25552925.781     9021013.253 6   7093808.71749  25552929.8944
  27362737.680      -53074.921 3
  23057814.477    -5008251.941 8  -3870730.29749  23057816.3754
 95  2 12 19 25 30.0080000  0  8 18 14 28 19 31 22 27 29
  23428386.508    -8881466.537 8  -6866345.14749  23428388.7114
  24685057.203     9685212.751 7   7595880.03549  24685062.4534
  26334687.195     -775551.037 5  -1932443.17249  26334692.4924
  24306415.336    -5819246.935 7  -4456915.71249  24306419.0864
  26580425.742    -2145003.657 5  -1558534.20249  26580434.3124
  25576258.117     9143624.177 7   7189349.57649  25576262.4884
  27354105.461      -98442.547 3    -24735.96258  27354112.6134
  23063108.789    -4980430.357 8  -3849051.17249  23063110.6524
 95  2 12 19 26  0.0080000  0  8 18 14 28 19 31 22 27 29
  23423932.695    -8904871.977 8  -6884583.16049  23423934.9804
  24708837.242     9810176.135 7   7693253.94149  24708842.5394
  26330527.851     -797407.365 6  -1949474.04849  26330533.1014
  24303618.078    -5833945.723 7  -4468369.32149  24303621.7464
  26569960.187    -2200001.826 5  -1601389.80849  26569967.5044
  25599641.273     9266505.221 6   7285100.91649  25599645.3754
  27345493.305     -143696.213 4    -59998.54547  27345498.4614
  23068474.570    -4952233.476 8  -3827079.61449  23068476.4454
 95  2 12 19 26 30.0080000  0  8 18 14 28 19 31 22 27 29
  23419527.820    -8928019.798 8  -6902620.42949  23419530.0004
  24732670.305     9935419.342 7   7790845.89849  24732675.4374
  26326431.352     -818934.348 6  -1966248.28749  26326437.1874
  24300864.266    -5848418.374 7  -4479646.72349  24300867.8054
  26559504.422    -2254942.364 5  -1644200.50649  26559511.6214
  25623078.078     9389665.777 6   7381070.05249  25623082.6024
  27336901.031     -188852.962 4    -95185.57348  27336906.3984
  23073911.234    -4923663.941 8  -3804817.67149  23073913.3554
 95  2 12 19 27  0.0080000  0  8 18 14 28 19 31 22 27 29
  23415173.883    -8950899.128 8  -6920448.48549  23415176.1564
  24756561.039    10060966.454 7   7888674.66449  24756566.2194
  26322398.031     -840129.548 6  -1982764.01249  26322403.6214
  24298147.570    -5862691.931 7  -4490768.98649  24298151.1564
  26549061.820    -2309818.357 5  -1686960.92249  26549069.9104
  25646566.695     9513099.034 6   7477251.68349  25646571.6174
  27328325.211                      -16511.77215
  23079416.156    -4894735.303 8  -3782275.90949  23079418.1844
 95  2 12 19 27 30.0080000  0  8 18 14 28 19 31 22 27 29
  23410873.586    -8973497.942 8  -6938057.95349  23410875.8714
  24780512.750    10186832.513 7   7986751.95949  24780518.0354
  26318428.711     -860985.471 6  -1999015.34249  26318434.2074
  24295465.656    -5876786.649 7  -4501751.88249  24295469.3244
  26538635.414    -2364612.938 5  -1729657.86949  26538642.8834
  25670107.586     9636807.659 6   7573647.89249  25670112.4844
  27319766.719                      -61484.322 5
  23084989.586    -4865447.229 8  -3759454.06849  23084991.6254
 95  2 12 19 28  0.0080000  0  8 18 14 28 19 31 22 27 29
  23406629.984    -8995797.696 8  -6955434.39349  23406632.3634
  24804525.406    10313017.877 7   8085078.06049  24804530.4804
  26314525.391     -881497.004 6  -2014998.32549  26314530.7814
  24292815.641    -5890715.375 7  -4512605.44049  24292819.0044
  26528224.375    -2419317.299 5  -1772284.51949  26528231.2194
  25693701.820     9760792.218 6   7670259.10649  25693706.8484
  27311223.508     -106379.247 5    -15151.76559  27311230.6254
  23090633.039    -4835790.077 8  -3736344.63549  23090635.0194
 95  2 12 19 28 30.0080000  0  8 18 14 28 19 31 22 27 29
  23402442.891    -9017800.778 8  -6972579.60549  23402445.4804
  24828597.430    10439518.811 7   8183650.11749  24828602.8204
  26310687.820     -901664.281 5  -2030713.01349  26310693.6444
  24290198.906    -5904464.858 7  -4523319.26449  24290202.5514
  26517828.750    -2473948.544 5  -1814854.15049  26517837.1684
  25717345.273     9885039.738 6   7767075.28349  25717349.9374
  27302695.547     -151196.223 5    -50074.01449  27302702.2034
  23096345.828    -4805769.025 8  -3712951.58349  23096347.8094
 95  2 12 19 29  0.0080000  0  8 18 14 28 19 31 22 27 29
  23398310.516    -9039516.636 8  -6989501.05849  23398313.0004
  24852724.375    10566305.485 7   8282444.76949  24852729.6604
  26306914.758     -921488.459 5  -2046160.40249  26306920.5594
  24287620.102    -5918016.556 7  -4533879.02449  24287623.3834
  26507443.836    -2528525.611 5  -1857381.63049  26507451.1994
  25741034.844    10009526.622 6   7864077.92249  25741039.5084
  27294184.172     -195923.871 5    -84926.69349  27294191.6524
  23102127.086    -4775389.493 8  -3689279.25649  23102129.0084
 95  2 12 19 29 30.0080000  0  8 18 14 28 19 31 22 27 29
  23394234.977    -9060933.300 8  -7006189.38249  23394237.4494
  24876905.453    10693375.919 7   8381460.51749  24876910.5164
  26303210.156     -940958.485 5  -2061331.83149  26303216.2734
  24285084.094    -5931344.956 7  -4544264.78849  24285087.4694
  26497071.328    -2583029.034 5  -1899851.71049  26497078.7384
  25764770.906    10134263.389 6   7961275.27649  25764775.3124
  27285690.266     -240557.483 5   -119706.06449  27285697.4884
  23107980.445    -4744630.133 8  -3665310.96249  23107982.4374
 95  2 12 19 30  0.0080000  0  8 18 14 28 19 31 22 27 29
  23390216.898    -9082048.903 8  -7022643.10749  23390219.3714
  24901140.734    10820733.443 6   8480699.98349  24901145.7274
  26299573.352     -960069.830 5  -2076223.77649  26299578.8944
  24282592.008    -5944438.510 7  -4554467.54949  24282595.5704
  26486715.242    -2637456.320 5  -1942262.45949  26486722.6414
  25788556.008    10259250.678 6   8058667.84549  25788560.4494
  27277214.461     -285098.955 5   -154413.70149  27277221.0944
  23113906.531    -4713488.373 8  -3641044.68849  23113908.4764
 95  2 12 19 30 30.0080000  0  8 18 14 28 19 31 22 27 29
  23386253.344    -9102877.044 8  -7038872.83649  23386255.8874
  24925428.703    10948366.003 6   8580153.75649  24925433.8124
  26296004.812     -978827.141 6  -2090839.84849  26296010.3094
  24280145.133    -5957297.179 7  -4564487.28749  24280148.8364
  26476368.953    -2691821.865 5  -1984625.10149  26476376.2934
  25812385.836    10384479.228 6   8156248.41149  25812389.9844
  27268758.508     -329535.922 5   -189039.85749  27268765.1414
  23119903.625    -4681975.316 8  -3616489.09149  23119905.5124
 95  2 12 19 31  0.0080000  0  8 18 14 28 19 31 22 27 29
  23382346.094    -9123410.840 8  -7054873.20749  23382348.5194
  24949770.344    11076281.701 6   8679828.15649  24949775.7114
  26292504.844     -997219.631 6  -2105171.65249  26292510.5514
  24277741.844    -5969926.179 7  -4574328.06849  24277745.7464
  26466040.461    -2746100.775 5  -2026920.22949  26466047.7664
  25836265.086    10509961.834 6   8254026.94649  25836269.5394
  27260323.945     -373854.909 5   -223574.06947  27260330.5084
  23125972.344    -4650081.805 8  -3591637.04249  23125974.3484
 95  2 12 19 31 30.0080000  0  8 18 14 28 19 31 22 27 29
  23378496.617    -9143640.903 8  -7070636.90649  23378498.9964
  24974166.734    11204483.519 6   8779725.51049  24974172.2074
  26289072.984    -1015251.634 6  -2119222.57249  26289078.4454
  24275377.055    -5982351.647 7  -4584010.24549  24275381.2154
  26455729.266    -2800280.526 5  -2069138.12849  26455736.0864
  25860191.398    10635699.280 6   8352004.06049  25860195.5474
  27251908.352     -418075.533 4   -258031.64247  27251915.7734
  23132112.687    -4617813.410 8  -3566492.87449  23132114.8094
 95  2 12 19 32  0.0080000  0  8 18 14 28 19 31 22 27 29
  23374704.789    -9163565.802 8  -7086162.81349  23374707.2154
  24998615.398    11332963.577 6   8879839.66649  24998620.6844
  26285711.055    -1032919.104 6  -2132989.43449  26285715.9534
  24273050.484    -5994578.239 7  -4593537.45749  24273054.6564
  26445438.797    -2854360.561 5  -2111278.27949  26445446.0084
  25884168.375    10761696.738 6   8450183.77649  25884172.8754
  27243513.539     -462193.096 4   -292408.94148  27243520.3984
  23138325.109    -4585168.412 8  -3541055.24849  23138327.0904
 95  2 12 19 32 30.0080000  0  8 18 14 28 19 31 22 27 29
  23370974.687    -9183167.662 8  -7101437.00449  23370976.9964
  25023116.867    11461720.085 6   8980169.23349  25023122.5164
  26282419.117    -1050218.702 6  -2146469.64449  26282424.1564
  24270762.719    -6006601.355 7  -4602906.11249  24270766.7034
  26435166.758    -2908337.508 5  -2153338.13549  26435174.4494
  25908197.586    10887968.343 6   8548577.11049  25908202.0394
  27235138.773                      -16124.47315
  23144610.812    -4552136.807 8  -3515316.36949  23144613.0274
 95  2 12 19 33  0.0080000  0  8 18 14 28 19 31 22 27 29
  23367308.367    -9202434.451 8  -7116450.09749  23367310.5474
  25047671.703    11590755.814 6   9080716.38349  25047677.5274
  26279196.875    -1067149.458 6  -2159662.45449  26279202.0664
  24268513.242    -6018421.604 7  -4612116.69149  24268516.9344
  26424918.547    -2962191.694 5  -2195302.35149  26424926.6484
  25932277.586    11014511.718 6   8647182.22649  25932282.1804
  27226780.570                      -60048.962 5
  23150971.719    -4518709.868 7  -3489269.44549  23150974.1334
 95  2 12 19 33 30.0080000  0  8 18 14 28 19 31 22 27 29
  23363708.500    -9221351.452 8  -7131190.62749  23363710.8674
  25072278.281    11720062.389 6   9181474.56849  25072283.8244
  26276045.969    -1083707.370 6  -2172564.73349  26276051.6524
  24266303.984    -6030032.386 7  -4621164.05949  24266307.6054
  26414693.273    -3015929.491 5  -2237175.85549  26414701.7264
  25956409.211    11141322.853 6   8745995.97149  25956413.9574
  27218438.375     -103884.302 5    -31876.89959  27218446.0434
  23157409.336    -4484879.386 7  -3462908.06849  23157411.7854
 95  2 12 19 34  0.0080000  0  8 18 14 28 19 31 22 27 29
  23360173.547    -9239928.116 8  -7145665.95949  23360175.8204
  25096932.672    11849621.480 6   9282429.51849  25096938.3794
  26272967.008    -1099894.307 6  -2185177.93949  26272972.2234
  24264134.227    -6041435.048 7  -4630049.25549  24264137.9064
  26404485.000    -3069571.182 5  -2278974.49849  26404493.0554
  25980590.461    11268396.416 6   8845014.20949  25980595.2194
  27210115.680     -147622.390 5    -65958.50648  27210122.4304
  23163923.125    -4450648.449 7  -3436234.65249  23163925.7034
 95  2 12 19 34 30.0080000  0  8 18 14 28 19 31 22 27 29
  23356700.570    -9258177.789 8  -7159886.49249  23356703.0904
  25121633.750    11979425.389 6   9383575.23649  25121639.3054
  26269956.859    -1115711.371 6  -2197502.91749  26269961.8874
  24262001.906    -6052639.525 7  -4638780.01949  24262005.8444
  26394293.672    -3123126.546 5  -2320705.86549  26394302.0554
  26004818.078    11395713.916 6   8944222.51149  26004823.1994
  27201810.961     -191266.057 5    -99966.52049  27201816.0704
  23170512.398    -4416022.796 7  -3409253.66349  23170515.0004
 95  2 12 19 35  0.0080000  0  8 18 14 28 19 31 22 27 29
  23353283.898    -9276132.151 8  -7173876.91049  23353286.5124
  25146376.773    12109450.368 6   9484893.21949  25146381.9414
  26267015.922    -1131161.424 6  -2209541.91149  26267020.5624
  24259904.281    -6063661.799 7  -4647368.80749  24259908.0554
  26384116.344    -3176606.905 5  -2362378.78649  26384123.0354
  26029087.336    11523249.929 6   9043601.07649  26029092.2814
  27193522.156     -234822.057 5   -133906.18648  27193529.2504
  23177173.273    -4381019.246 7  -3381978.21649  23177175.7584
 95  2 12 19 35 30.0080000  0  8 18 14 28 19 31 22 27 29
  23349922.859    -9293794.484 8  -7187639.77649  23349925.5904
  25171162.562    12239697.740 6   9586384.48749  25171167.5194
  26264146.953    -1146239.529 6  -2221291.06949  26264152.0394
  24257841.586    -6074501.339 7  -4655815.21249  24257845.5354
  26373951.586    -3230021.514 5  -2404000.48049  26373957.5164
  26053398.000    11651005.027 6   9143150.36449  26053403.2624
  27185253.469     -278278.307 5   -167768.18149  27185259.6444
  23183903.601    -4345650.519 8  -3354418.21549  23183906.0274
 95  2 12 19 36  0.0080000  0  8 18 14 28 19 31 22 27 29
  23346614.680    -9311180.799 8  -7201187.55649  23346617.2814
  25195990.992    12370171.859 6   9688052.44049  25195996.2544
  26261349.453    -1160942.016 6  -2232747.53049  26261354.3164
  24255813.500    -6085159.329 7  -4664120.14449  24255817.6374
  26363802.891    -3283359.091 5  -2445562.15449  26363808.5274
  26077748.789    11778965.714 6   9242859.83849  26077753.9924
  27176999.562     -321647.809 5   -201562.58749  27177006.5984
  23190703.984    -4309915.467 7  -3326572.76549  23190706.4344
 95  2 12 19 36 30.0080000  0  8 18 14 28 19 31 22 27 29
  23343358.297    -9328293.457 8  -7214522.09749  23343360.7934
  25220862.336    12500872.780 6   9789897.12449  25220867.7854
  26258623.219    -1175269.383 6  -2243911.69749  26258628.6094
  24253820.000    -6095634.577 7  -4672282.68449  24253823.9144
  26353667.758    -3336613.735 5  -2487059.20149  26353674.7584
  26102135.430    11907118.215 6   9342718.78549  26102140.4694
  27168763.344     -364934.170 5   -235292.17049  27168771.0594
  23197572.680    -4273821.474 8  -3298447.62549  23197575.1994
 95  2 12 19 37  0.0080000  0  8 18 14 28 19 31 22 27 29
  23340157.305    -9345115.251 8  -7227629.99149  23340159.8124
  25245778.758    12631806.234 6   9891922.99049  25245784.3594
  26255969.172    -1189216.743 6  -2254779.75349  26255974.1524
  24251862.055    -6105923.856 7  -4680300.31249  24251866.3554
  26343554.094    -3389761.785 5  -2528473.20049  26343560.9884
  26126559.180    12035465.675 6   9442729.64349  26126564.2074
  27160542.016     -408132.491 5   -268953.17249  27160548.5554
  23204508.602    -4237372.454 8  -3270045.84149  23204510.9694
 95  2 12 19 37 30.0080000  0  8 18 14 28 19 31 22 27 29
  23337015.789    -9361623.971 8  -7240493.93149  23337018.3094
  25270740.945    12762983.794 6   9994139.07349  25270746.7234
  26253388.180    -1202777.742 6  -2265346.74749  26253393.1134
  24249942.297    -6116014.134 7  -4688162.87649  24249946.3054
  26333465.586    -3442777.862 5  -2569784.35149  26333472.1134
  26151022.453    12164019.997 6   9542901.69549  26151027.6804
  27152337.797     -451246.647 5   -302548.56349  27152345.6414
  23211516.508    -4200545.811 8  -3241349.80649  23211518.9224
 95  2 12 19 38  0.0090000  0  8 18 14 28 19 31 22 27 29
  23333931.489    -9377831.391 8  -7253123.09749  23333933.9154
  25295746.802    12894390.246 6  10096533.50749  25295752.3454
  26250878.630    -1215962.264 6  -2275620.37249  26250883.8454
  24248057.474    -6125917.073 7  -4695879.46049  24248061.3644
  26323398.880    -3495673.162 5  -2611001.39849  26323406.6534
  26175525.833    12292782.956 6   9643236.31849  26175530.8724
  27144144.903                      -15778.51015
  23218596.708    -4163339.847 8  -3212358.19449  23218598.9584
 95  2 12 19 38 30.0090000  0  8 18 14 28 19 31 22 27 29
  23330908.536    -9393716.411 8  -7265501.04249  23330911.2084
  25320794.825    13026017.103 6  10199099.68649  25320800.7674
  26248442.919    -1228761.918 6  -2285594.11049  26248448.5204
  24246211.075    -6135620.602 7  -4703440.65849  24246214.9194
  26313357.825    -3548439.396 5  -2652117.89749  26313364.4234
  26200071.106    12421766.619 6   9743742.91649  26200076.2514
  27135964.474                      -58762.073 5
  23225749.606    -4125750.479 8  -3183067.82649  23225751.9974
 95  2 12 19 39  0.0090000  0  8 18 14 28 19 31 22 27 29
  23327947.497    -9409276.332 8  -7277625.66549  23327950.2394
  25345884.419    13157861.514 6  10301835.38649  25345890.4074
  26246080.216    -1241178.038 6  -2295268.98349  26246086.1454
  24244403.239    -6145122.384 7  -4710844.65449  24244407.0014
  26303342.372    -3601078.146 5  -2693135.05149  26303349.5244
  26224656.395    12550967.915 6   9844419.10449  26224661.9384
  27127795.575     -101691.194 5    -30104.39859  27127802.4464
  23232978.677    -4087762.000 7  -3153466.46549  23232981.2084
 95  2 12 19 39 30.0090000  0  8 18 14 28 19 31 22 27 29
  23325047.216    -9424517.762 8  -7289502.11349  23325049.8414
  25371014.060    13289920.009 6  10404737.91349  25371020.0604
  26243790.911    -1253209.550 6  -2304644.17949  26243796.4664
  24242634.427    -6154416.235 7  -4718086.62649  24242638.3524
  26293344.630    -3653615.128 5  -2734072.92349  26293352.8494
  26249282.263    12680373.451 6   9945254.45049  26249287.7474
  27119635.653     -144572.422 5    -63518.30349  27119643.1814
  23240285.263    -4049365.834 8  -3123547.41949  23240287.9234
 95  2 12 19 40  0.0090000  0  8 18 14 28 19 31 22 27 29
  23322208.950    -9439434.921 8  -7301125.88849  23322211.3174
  25396185.739    13422197.031 6  10507810.69249  25396191.9624
  26241575.950    -1264850.545 6  -2313715.06749  26241581.4584
  24240904.942    -6163504.615 7  -4725168.49349  24240908.8214
  26283365.575    -3706052.764 5  -2774933.36749  26283373.0444
  26273941.333    12809964.756 6  10046234.55849  26273946.6884
  27111488.067     -187386.860 5    -96880.16649  27111495.1384
  23247668.052    -4010568.678 7  -3093315.92149  23247670.6184
 95  2 12 19 40 30.0090000  0  8 18 14 28 19 31 22 27 29
  23319433.466    -9454020.290 8  -7312491.12449  23319435.9504
  25421396.349    13554679.022 6  10611043.20249  25421402.4544
  26239434.677    -1276100.860 6  -2322481.53649  26239439.8334
  24239212.935    -6172395.523 7  -4732096.48949  24239216.7434
  26273409.028    -3758375.528 5  -2815704.32849  26273416.8024
  26298631.794    12939710.407 6  10147334.92449  26298637.5364
  27103356.583     -230118.492 5   -130177.51149  27103364.5094
  23255126.716    -3971373.921 7  -3062774.59849  23255129.2704
 95  2 12 19 41  0.0090000  0  8 18 14 28 19 31 22 27 29
  23316720.419    -9468276.446 8  -7323599.82749  23316722.9034
  25446644.919    13687361.551 6  10714431.95749  25446651.1424
  26237368.841    -1286956.543 6  -2330940.48949  26237374.3494
  24237557.450    -6181095.144 7  -4738875.42049  24237561.3414
  26263475.888    -3810573.976 5  -2856378.39249  26263483.0404
  26323351.661    13069606.381 6  10248552.44449  26323356.6534
  27095241.294     -272770.077 5   -163412.50949  27095249.0564
  23262660.856    -3931781.599 8  -3031923.48349  23262663.1884
 95  2 12 19 41 30.0090000  0  8 18 14 28 19 31 22 27 29
  23314069.552    -9482207.266 8  -7334455.02349  23314071.9894
  25471930.614    13820237.935 6  10817971.77649  25471937.0244
  26235377.106    -1297422.101 6  -2339095.45349  26235382.9774
  24235934.770    -6189621.299 7  -4745519.18549  24235938.7084
  26253568.731    -3862636.747 5  -2896946.74549  26253575.5284
  26348098.927    13199657.628 6  10349890.93649  26348103.7904
  27087141.364     -315330.972 5   -196576.84149  27087148.2594
  23270268.099    -3891805.993 8  -3000773.70149  23270270.4664
 95  2 12 19 42  0.0090000  0  8 18 14 28 19 31 22 27 29
  23311483.810    -9495795.909 8  -7345043.58649  23311486.1424
  25497252.044    13953301.940 6  10921657.78749  25497258.4774
  26233461.919    -1307488.468 6  -2346939.37149  26233467.5674
  24234346.864    -6197967.991 7  -4752023.10649  24234350.5794
  26243695.645    -3914522.686 6  -2937377.32749  26243702.1734
  26372882.341    13329893.820 6  10451373.54649  26372887.3094
  27079062.052     -357786.252 5   -229658.86849  27079068.9584
  23277948.817    -3851444.101 8  -2969322.91649  23277951.3024
 95  2 12 19 42 30.0090000  0  8 18 14 28 19 31 22 27 29
  23308960.810    -9509054.535 8  -7355374.99049  23308963.1424
  25522606.497    14086539.744 6  11025479.22349  25522613.0134
  26231621.997    -1317159.576 6  -2354475.29049  26231627.6104
  24232794.974    -6206124.107 7  -4758378.53049  24232798.4544
  26233856.083    -3966230.631 6  -2977669.19149  26233862.9894
  26397703.294    13460332.212 6  10553013.73549  26397707.7124
  27071003.317     -400137.320 5   -262659.72649  27071010.9744
  23285700.794    -3810705.920 8  -2937578.91949  23285703.3024
 95  2 12 19 43  0.0090000  0  8 18 14 28 19 31 22 27 29
  23306498.770    -9521992.595 8  -7365456.60849  23306501.1614
  25547995.286    14219957.691 6  11129441.02149  25548002.4384
  26229857.716    -1326428.602 6  -2361697.88049  26229863.9384
  24231281.153    -6214078.554 7  -4764576.81249  24231284.5634
  26224049.403    -4017765.116 6  -3017825.91249  26224055.6384
  26422567.606    13590993.585 6  10654827.67349  26422572.4344
  27062963.614     -442383.828 5   -295579.10649  27062970.5794
  23293524.935    -3769590.088 8  -2905540.65049  23293527.5484
 95  2 12 19 43 30.0090000  0  8 18 14 28 19 31 22 27 29
  23304098.427    -9534605.953 8  -7375285.21249  23304100.8994
  25573417.763    14353552.212 6  11233540.40549  25573424.6814
  26228170.966    -1335292.324 6  -2368604.65949  26228176.3924
  24229807.013    -6221825.838 7  -4770613.66749  24229810.6104
  26214273.411    -4069135.058 6  -3057854.40749  26214280.3414
  26447471.786    13721864.579 6  10756804.95349  26447476.3454
  27054945.317     -484522.057 5   -328414.13549  27054952.1264
  23301419.950    -3728101.111 8  -2873211.61949  23301422.5054
 95  2 12 19 44  0.0090000  0  8 18 14 28 19 31 22 27 29
  23301757.286    -9546909.235 8  -7384872.19949  23301759.8174
  25598872.763    14487317.686 6  11337773.00149  25598879.9854
  26226562.177    -1343746.749 6  -2375192.49649  26226567.5204
  24228373.724    -6229358.582 7  -4776483.34549  24228377.3804
  26204526.349    -4120356.333 6  -3097767.03449  26204533.1814
  26472411.333    13852925.447 6  10858930.17549  26472416.3134
  27046944.974     -526563.915 5   -361174.08549  27046952.0674
  23309384.036    -3686251.020 8  -2840601.19949  23309386.3924
 95  2 12 19 44 30.0090000  0  8 18 14 28 19 31 22 27 29
  23299473.020    -9558913.085 8  -7394225.86049  23299475.5524
  25624360.934    14621256.597 6  11442140.73449  25624368.3094
  26225030.849    -1351794.326 6  -2381463.31149  26225036.5564
  24226977.075    -6236696.342 7  -4782201.08449  24226980.7434
  26194802.044    -4171454.675 6  -3137583.88549  26194809.0794
  26497380.364    13984135.989 6  10961172.01849  26497385.3804
  27038959.505     -568530.188 5   -393875.14049  27038967.0204
  23317417.614    -3644034.416 8  -2807705.18149  23317419.8174
 95  2 12 19 45  0.0090000  0  8 18 14 28 19 31 22 27 29
  23297251.466    -9570586.441 8  -7403321.98649  23297254.1144
  25649884.731    14755384.961 6  11546656.09049  25649891.3644
  26223579.060    -1359420.210 6  -2387405.53849  26223585.1184
  24225615.044    -6243854.470 7  -4787778.85049  24225618.7704
  26185102.599    -4222430.565 6  -3177305.31549  26185109.4704
  26522375.802    14115484.037 6  11063521.01949  26522380.9584
  27030985.966     -610433.586 5   -426527.22749  27030991.8954
  23325527.114    -3601420.044 8  -2774499.21449  23325529.5174
 95  2 12 19 45 30.0090000  0  8 18 14 28 19 31 22 27 29
  23295096.403    -9581912.060 8  -7412147.15549  23295099.0874
  25675445.466    14889706.815 6  11651322.21949  25675451.8884
  26222207.653    -1366627.668 6  -2393021.71549  26222213.2784
  24224285.309    -6250842.194 7  -4793223.83349  24224288.9424
  26175427.481    -4273271.299 6  -3216921.42449  26175434.5054
  26547392.935    14246952.927 6  11165964.19049  26547397.9504
  27023020.989     -652287.001 5   -459140.33349  27023027.3294
  23333713.997    -3558397.165 8  -2740974.93449  23333716.3294
 95  2 12 19 46  0.0090000  0  8 18 14 28 19 31 22 27 29
  23293009.747    -9592877.466 8  -7420691.63449  23293012.3844
  25701044.333    15024230.320 6  11756145.48249  25701050.9314
  26220916.231    -1373415.417 6  -2398310.87949  26220921.9854
  24222986.653    -6257666.513 7  -4798541.49549  24222990.2394
  26165782.442    -4323956.130 6  -3256416.03149  26165788.8174
  26572435.372    14378551.918 6  11268508.72549  26572440.7274
  27015066.177     -694091.069 5   -491714.98349  27015073.6104
  23341982.294    -3514947.077 8  -2707117.76449  23341984.6384
 95  2 12 19 46 30.0090000  0  8 18 14 28 19 31 22 27 29
  23290995.060    -9603465.009 8  -7428941.67849  23290997.5564
  25726682.106    15158957.463 6  11861127.42049  25726688.9664
  26219704.239    -1379785.239 6  -2403274.37049  26219709.8994
  24221717.138    -6264336.611 7  -4803738.97749  24221720.9584
  26156168.122    -4374479.555 6  -3295784.86349  26156174.2864
  26597505.286    14510294.058 6  11371164.82549  26597510.5014
  27007120.114     -735845.992 5   -524251.36949  27007126.9584
  23350334.130    -3471057.715 8  -2672918.30049  23350336.4624
 95  2 12 19 47  0.0090000  0  8 18 14 28 19 31 22 27 29
  23289053.122    -9613670.631 8  -7436894.11849  23289055.6184
  25752358.356    15293885.092 6  11966265.56649  25752365.6144
  26218572.567    -1385733.509 6  -2407909.38149  26218578.0994
  24220478.989    -6270842.950 7  -4808808.85549  24220482.9744
  26146588.442    -4424821.002 6  -3335011.88249  26146594.2784
  26622606.778    14642198.328 6  11473947.24149  26622612.4034
  26999185.755     -777542.725 5   -556742.38049  26999194.0204
  23358767.044    -3426742.620 8  -2638387.09749  23358769.5174
 95  2 12 19 47 30.0090000  0  8 18 14 28 19 31 22 27 29
  23287181.060    -9623508.646 8  -7444560.10949  23287183.6614
  25778069.755    15428998.395 6  12071548.39549  25778076.6614
  26217520.560    -1391259.250 6  -2412215.16349  26217526.1614
  24219275.505    -6277168.594 7  -4813737.93949  24219279.2674
  26137045.903    -4474968.271 6  -3374087.60249  26137051.9504
  26647740.052    14774279.354 6  11576867.39849  26647745.9464
  26991265.177     -819164.117 5   -589174.70449  26991272.7984
  23367276.567    -3382025.425 8  -2603542.56949  23367279.1574
 95  2 12 19 48  0.0090000  0  8 18 14 28 19 31 22 27 29
  23285375.067    -9632996.604 8  -7451953.32849  23285377.7744
  25803813.942    15564286.527 6  12176967.44749  25803821.1654
  26216550.520    -1396357.503 6  -2416187.83249  26216555.7594
  24218107.309    -6283307.615 7  -4818521.59849  24218111.2244
  26127539.575    -4524925.028 6  -3413014.84649  26127546.3954
  26672909.294    14906543.994 6  11679930.62649  26672915.7514
  26983361.778     -860700.831 5   -621541.01349  26983369.5754
  23375858.450    -3336926.464 8  -2568400.56349  23375861.0174
 95  2 12 19 48 30.0090000  0  8 18 14 28 19 31 22 27 29
  23283634.216    -9642146.456 8  -7459083.08949  23283637.0284
  25829587.435    15699723.562 6  12282502.52449  25829594.6574
  26215661.919    -1401028.440 6  -2419827.53049  26215667.0054
  24216974.856    -6289258.691 7  -4823158.80349  24216978.4894
  26118065.520    -4574709.283 6  -3451807.67249  26118071.9194
  26698110.528    15038980.217 6  11783127.56049  26698116.5524
  26975472.716     -902158.702 5   -653845.92149  26975479.9034
  23384509.192    -3291467.913 8  -2532978.35849  23384511.6654
 95  2 12 19 49  0.0090000  0  8 18 14 28 19 31 22 27 29
  23281958.614    -9650952.217 8  -7465944.72649  23281961.2864
  25855385.622    15835293.763 6  12388141.37849  25855392.9744
  26214856.411    -1405261.704 6  -2423126.18549  26214861.8844
  24215880.513    -6295010.385 7  -4827640.64549  24215883.9464
  26108626.833    -4624311.896 6  -3490458.97649  26108633.3724
  26723343.216    15171579.548 6  11886451.58149  26723349.1694
  26967601.106     -943524.462 5   -686079.02449  26967608.4704
  23393230.966    -3245634.268 8  -2497263.86749  23393233.4974
 95  2 12 19 49 30.0090000  0  8 18 14 28 19 31 22 27 29
  23280348.364    -9659414.268 8  -7472538.54249  23280350.8134
  25881207.684    15970988.127 6  12493876.95849  25881214.9774
  26214134.114    -1409055.801 6  -2426082.62449  26214139.7744
  24214825.739    -6300553.856 7  -4831960.24049  24214829.2674
  26099220.310    -4673741.143 6  -3528975.18049  26099227.3564
  26748606.895    15304335.446 6  11989897.60349  26748611.8764
  26959746.950     -984792.184 5   -718235.73049  26959753.6774
  23402027.645    -3199407.981 8  -2461243.42249  23402030.3414
 95  2 12 19 50  0.0090000  0  8 18 14 28 19 31 22 27 29
  23278804.161    -9667529.346 8  -7478861.98749  23278806.6454
  25907051.895    16106798.556 6  12599702.98449  25907059.9034
  26213495.395    -1412413.459 6  -2428698.95749  26213501.6184
  24213806.778    -6305906.859 7  -4836131.41249  24213810.6454
  26089846.153    -4723001.194 6  -3567359.53149  26089853.0364
  26773893.599    15437220.957 5  12093444.65449  26773899.6454
  26951910.028       -6858.26714
  23410900.919    -3152778.339 8  -2424908.67649  23410903.6024
 95  2 12 19 50 30.0090000  0  8 18 14 28 19 31 22 27 29
  23277328.333    -9675286.028 8  -7484906.16349  23277330.9464
  25932917.349    16242718.740 6  12705614.52649  25932925.2394
  26212939.778    -1415332.832 6  -2430973.78349  26212946.0834
  24212823.177    -6311076.791 7  -4840159.92949  24212826.8214
  26080504.239    -4772092.545 6  -3605612.41949  26080511.0834
  26799204.786    15570225.600 6  12197084.50649  26799211.1854
  26944088.903      -47957.023 5
  23419854.552    -3105727.229 8  -2388245.50849  23419857.2004
 95  2 12 19 51  0.0090000  0  8 18 14 28 19 31 22 27 29
  23275921.810    -9682676.417 8  -7490664.91849  23275924.3994
  25958804.536    16378757.111 6  12811618.16449  25958812.0054
  26212468.341    -1417810.361 6  -2432904.34549  26212473.4504
  24211875.185    -6316058.080 7  -4844041.45649  24211878.8994
  26071201.153    -4820984.799 6  -3643710.18749  26071207.3884
  26824537.192    15703349.678 5  12300817.44149  26824542.9704
  26936285.286      -88971.150 5    -25562.74259  26936290.6304
  23428890.044    -3058244.545 8  -2351246.05449  23428892.7634
 95  2 12 19 51 30.0090000  0  8 18 14 28 19 31 22 27 29
  23274585.411    -9689699.301 8  -7496137.30549  23274588.0834
  25984718.224    16514930.961 6  12917727.36449  25984725.9034
  26212080.325    -1419847.928 6  -2434492.04949  26212085.5284
  24210961.255    -6320860.366 7  -4847783.49749  24210964.9114
  26061936.192    -4869668.968 6  -3681645.79749  26061942.3454
  26849892.481    15836591.227 6  12404641.91149  26849898.9274
  26928492.755                      -23196.59815
  23438003.466    -3010354.093 8  -2313928.85949  23438006.2434
 95  2 12 19 52  0.0090000  0  8 18 14 28 19 31 22 27 29
  23273320.685    -9696344.641 8  -7501315.50049  23273323.4854
  26010658.942    16651251.323 6  13023950.73249  26010666.8684
  26211777.544    -1421437.953 6  -2435731.02049  26211783.7314
  24210081.145    -6325485.375 7  -4851387.40049  24210084.8254
  26052715.184    -4918124.205 6  -3719403.01149  26052721.3954
  26875269.341    15969949.840 5  12508557.60549  26875275.5404
  26920713.794                      -64076.123 5
  23447193.325    -2962061.663 8  -2276298.43049  23447195.9624
 95  2 12 19 52 30.0090000  0  8 18 14 28 19 31 22 27 29
  23272128.263    -9702609.883 8  -7506197.51549  23272130.9354
  26036629.020    16787725.524 6  13130293.97349  26036637.3804
  26211561.247    -1422576.707 6  -2436618.35349  26211567.3064
  24209236.419    -6329924.836 7  -4854846.72549  24209239.9704
  26043541.138    -4966337.374 6  -3756971.61749  26043547.5714
  26900671.028    16103440.793 5  12612576.43149  26900676.9234
  26912950.630     -104872.970 5     -3175.40059  26912957.4274
  23456459.669    -2913367.868 8  -2238355.25449  23456462.2004
 95  2 12 19 53  0.0090000  0  8 18 14 28 19 31 22 27 29
  23271010.263    -9708485.546 8  -7510775.95749  23271012.9354
  26062629.403    16924359.076 6  13236761.37449  26062637.6924
  26211430.974    -1423261.799 6  -2437152.19949  26211436.7514
  24208428.575    -6334171.110 7  -4858155.50949  24208432.1384
  26034411.419    -5014309.090 6  -3794352.08049  26034417.9934
  26926100.872    16237068.999 6  12716702.18649  26926107.0604
  26905203.450     -145584.526 5    -34898.67049  26905209.6734
  23465801.950    -2864273.253 8  -2200099.74949  23465804.4114
 95  2 12 19 53 30.0090000  0  8 18 14 28 19 31 22 27 29
  23269965.466    -9713978.029 8  -7515055.81849  23269968.0324
  26088661.380    17061157.495 6  13343357.25349  26088669.3764
  26211387.450    -1423491.470 6  -2437331.15449  26211392.1844
  24207655.099    -6338234.539 7  -4861321.81949  24207658.7554
  26025325.364    -5062059.833 6  -3831560.35949  26025332.2944
  26951555.638    16370830.949 6  12820932.17949  26951562.1424
  26897475.239     -186194.196 5    -66542.51649  26897481.8254
  23475221.255    -2814773.810 8  -2161528.78849  23475223.8214
 95  2 12 19 54  0.0090000  0  8 18 14 28 19 31 22 27 29
  23268989.520    -9719105.671 8  -7519051.39249  23268992.1224
  26114720.552    17198097.079 6  13450063.11749  26114728.8064
  26211429.700    -1423268.794 6  -2437157.64649  26211434.9504
  24206916.466    -6342117.776 8  -4864347.72149  24206920.0994
  26016279.114    -5109596.458 6  -3868601.79649  26016286.1144
  26977034.489    16504721.724 6  12925262.53549  26977040.3954
  26889767.169     -226698.354 5    -98104.12849  26889774.3804
  23484720.224    -2764855.216 8  -2122631.21949  23484722.8604
 95  2 12 19 54 30.0090000  0  8 18 14 28 19 31 22 27 29
  23268083.028    -9723868.783 8  -7522762.91749  23268085.6884
  26140805.427    17335169.000 6  13556872.10249  26140814.3844
  26211559.263    -1422589.547 6  -2436628.37049  26211564.1734
  24206211.427    -6345821.743 7  -4867233.93049  24206215.0014
  26007272.716    -5156924.668 6  -3905480.83749  26007279.0674
  27002538.028    16638749.598 5  13029699.72349  27002544.6384
  26882078.372     -267109.427 5   -129593.22649  26882084.6654
  23494301.294    -2714508.107 8  -2083399.73749  23494303.8254
 95  2 12 19 55  0.0090000  0  8 18 14 28 19 31 22 27 29
  23267246.138    -9728267.214 8  -7526190.27749  23267248.7634
  26166912.794    17472363.858 6  13663776.87749  26166921.0014
  26211774.474    -1421455.345 6  -2435744.56549  26211779.3494
  24205539.755    -6349350.001 7  -4869983.22749  24205543.5404
  25998305.153    -5204051.149 6  -3942202.68949  25998311.6574
  27028065.255    16772897.204 5  13134230.20949  27028072.1964
  26874402.255     -307447.389 5   -161025.30549  26874409.6184
  23503964.138    -2663730.263 8  -2043832.62449  23503966.7274
 95  2 12 19 55 30.0090000  0  8 18 14 28 19 31 22 27 29
  23266475.856    -9732313.765 8  -7529343.45049  23266478.5174
  26193043.013    17609676.449 6  13770773.40149  26193051.5714
  26212076.997    -1419865.158 6  -2434505.44549  26212082.1424
  24204899.958    -6352713.325 8  -4872604.01349  24204903.4624
  25989377.747    -5250963.291 6  -3978757.53549  25989384.1694
  27053613.911    16907151.836 5  13238844.09249  27053620.3104
  26866739.231     -347713.177 5   -192401.18349  26866747.1224
  23513709.130    -2612520.353 8  -2003928.83849  23513711.6024
 95  2 12 19 56  0.0090000  0  8 18 14 28 19 31 22 27 29
  23265773.544    -9736004.389 8  -7532219.27449  23265776.2744
  26219189.653    17747078.595 6  13877839.69849  26219198.3064
  26212465.247    -1417826.414 6  -2432916.81149  26212470.5444
  24204290.677    -6355916.299 8  -4875099.84649  24204294.1814
  25980492.349    -5297656.817 6  -4015142.01649  25980498.6184
  27079180.317    17041504.481 5  13343534.34249  27079186.6924
  26859085.544     -387934.117 5   -223742.12849  26859093.9034
  23523533.083    -2560893.610 8  -1963700.24949  23523535.4974
 95  2 12 19 56 30.0090000  0  8 18 14 28 19 31 22 27 29
  23265146.263    -9739301.765 8  -7534788.66749  23265149.0174
  26245356.645    17884585.171 6  13984987.36449  26245365.3564
  26212941.528    -1415323.512 6  -2430966.50149  26212946.6844
  24203714.630    -6358943.716 8  -4877458.87449  24203718.3684
  25971649.520    -5344124.782 6  -4051350.75649  25971655.8494
  27104767.091    17175959.881 5  13448304.66749  27104773.9854
  26851443.130     -428093.392 5   -255035.00549  26851450.2594
  23533438.747    -2508840.107 8  -1923139.11749  23533441.2674
 95  2 12 19 57  0.0090000  0  8 18 14 28 19 31 22 27 29
  23264593.989    -9742204.134 8  -7537050.25349  23264596.6264
  26271541.685    18022189.473 6  14092211.18849  26271550.2204
  26213504.856    -1412363.526 6  -2428660.02949  26213510.2354
  24203169.997    -6361803.860 8  -4879687.58049  24203173.7354
  25962848.833    -5390371.035 6  -4087386.73249  25962855.4314
  27130370.489    17310506.178 5  13553145.82949  27130376.8174
  26843814.856     -468180.954 5   -286271.98449  26843821.8684
  23543422.505    -2456375.537 8  -1882257.67849  23543425.0364
 95  2 12 19 57 30.0090000  0  8 18 14 28 19 31 22 27 29
  23264116.638    -9744713.889 8  -7539005.92749  23264119.1104
  26297745.974    18159889.898 6  14199509.91849  26297754.6264
  26214155.263    -1408944.249 6  -2425995.65849  26214160.9704
  24202658.849    -6364490.262 8  -4881780.87349  24202662.5404
  25954092.591    -5436382.533 6  -4123239.78249  25954099.3064
  27155993.309    17445158.201 5  13658069.33649  27156000.4744
  26836200.231     -508197.872 5   -317453.91049  26836207.6534
  23553481.184    -2403517.403 8  -1841069.55949  23553483.7274
 95  2 12 19 58  0.0090000  0  8 18 14 28 19 31 22 27 29
  23263715.575    -9746822.009 8  -7540648.63449  23263718.0364
  26323965.145    18297674.534 6  14306874.24249  26323973.4584
  26214893.622    -1405064.993 6  -2422972.86749  26214898.9544
  24202183.942    -6366986.247 8  -4883725.80249  24202187.7164
  25945380.091    -5482167.914 6  -4158916.64649  25945386.8294
  27181639.450    17579928.208 5  13763084.81849  27181647.0604
  26828596.153     -548155.738 5   -348589.84749  26828603.6344
  23563613.958    -2350268.136 8  -1799576.66349  23563616.4664
 95  2 12 19 58 30.0090000  0  8 18 14 28 19 31 22 27 29
  23263390.833    -9748527.145 8  -7541977.32449  23263393.2594
  26350203.575    18435558.999 6  14414316.37049  26350211.8524
  26215720.989    -1400715.469 6  -2419583.60849  26215726.5204
  24201746.692    -6369283.790 8  -4885516.09849  24201750.5364
  25936711.536    -5527720.390 6  -4194412.04349  25936717.7944
  27207307.856    17714817.583 5  13868193.33649  27207314.0094
  26821007.395     -588036.129 5   -379665.41049  26821015.1814
  23573822.395    -2296622.647 8  -1757775.02749  23573825.0794
 95  2 12 19 59  0.0090000  0  8 18 14 28 19 31 22 27 29
  23263137.575    -9749857.698 8  -7543014.13149  23263139.9314
  26376460.060    18573532.535 6  14521827.89149  26376468.5244
  26216637.091    -1395903.090 6  -2415833.67849  26216642.5054
  24201345.067    -6371393.417 8  -4887159.96349  24201348.6424
  25928089.270    -5573031.025 6  -4229718.98549  25928096.0794
  27232995.724    17849808.084 5  13973380.61349  27233001.7704
  26813430.599     -627850.821 5   -410689.77449  26813438.1614
  23584104.036    -2242592.690 8  -1715673.80749  23584106.6964
 95  2 12 19 59 30.0090000  0  8 18 14 28 19 31 22 27 29
  23262955.263    -9750815.872 8  -7543760.76749  23262957.7474
  26402732.794    18711596.707 5  14629410.03549  26402741.8804
  26217641.989    -1390623.931 6  -2411720.03549  26217647.4624
  24200979.731    -6373313.856 8  -4888656.40349  24200983.5524
  25919515.950    -5618089.453 6  -4264829.39649  25919522.9154
  27258699.216    17984877.448 5  14078629.36549  27258705.8024
  26805866.544     -667599.989 5   -441663.09249  26805873.6964
  23594460.270    -2188169.395 8  -1673266.09449  23594463.0014
 95  2 12 20  0  0.0090000  0  8 18 14 28 19 31 22 27 29
  23262845.161    -9751394.180 8  -7544211.40449  23262847.6574
  26429021.974    18849745.797 5  14737058.33349  26429030.6854
  26218735.552    -1384875.367 6  -2407240.62049  26218740.7204
  24200646.708    -6375063.156 8  -4890019.48549  24200650.5634
  25910987.825    -5662900.063 6  -4299746.70949  25910994.3414
  27284413.333    18120002.373 5  14183921.42349  27284420.6734
  26798316.708     -707273.111 5   -472577.14749  26798324.6224
  23604896.606    -2133327.948 8  -1630532.54449  23604899.3134
 95  2 12 20  0 30.0090000  0  8 18 14 28 19 31 22 27 29
  23262806.997    -9751596.472 8  -7544369.04049  23262809.5174
  26455328.294    18987985.933 5  14844777.59749  26455337.1224
  26219917.778    -1378661.678 6  -2402398.74949  26219923.0174
  24200340.575    -6376672.239 8  -4891273.31649  24200344.4664
  25902508.481    -5707459.025 6  -4334467.92549  25902515.0444
  27310133.450    18255166.208 5  14289243.79249  27310140.5204
  26790782.341     -746867.960 5   -503430.22649  26790789.9854
  23615410.059    -2078079.016 8  -1587481.47049  23615412.6494
 95  2 12 20  1  0.0090000  0  8 18 14 28 19 31 22 27 29
  23262841.294    -9751415.337 8  -7544227.90249  23262843.9074
  26481653.013    19126320.711 5  14952570.58549  26481662.1694
  26221190.083    -1371976.809 6  -2397189.72149  26221195.4854
  24200061.341    -6378140.327 8  -4892417.28349  24200065.0444
  25894080.005    -5751755.384 6  -4368984.53349  25894085.9704
  27335865.349    18390387.741 5  14394611.13049  27335872.0754
  26783261.263     -786392.702 5   -534228.68949  26783268.5444
  23626003.942    -2022407.449 8  -1544101.06849  23626006.5444
 95  2 12 20  1 30.0090000  0  8 18 14 28 19 31 22 27 29
  23262951.239    -9750837.461 8  -7543777.61049  23262953.7594
  26507994.294    19264748.200 5  15060435.83749  26508003.5564
  26222552.059    -1364817.814 6  -2391611.23149  26222557.4274
  24199808.114    -6379470.198 8  -4893453.53749  24199811.9584
  25885697.466    -5795803.426 6  -4403307.63549  25885703.1964
  27361610.536    18525683.017 5  14500035.94949  27361617.0284
  26775752.427     -825848.180 5   -564973.13049  26775759.6494
  23636677.200    -1966319.347 8  -1500396.09549  23636679.8254
 95  2 12 20  2  0.0090000  0  8 18 14 28 19 31 22 27 29
  23263137.325    -9749859.816 8  -7543015.80949  23263139.7984
  26534351.372    19403250.407 5  15168359.29849  26534361.0444
  26224004.544    -1357184.821 6  -2385663.40349  26224009.5604
  24199581.099    -6380664.872 8  -4894384.44649  24199584.8254
  25877361.231    -5839607.730 6  -4437440.82149  25877367.1494
  27387375.333    18661074.136 5  14605535.41249  27387382.7554
  26768255.161     -865246.168 5   -595672.80749  26768262.6424
  23647429.013    -1909818.780 8  -1456369.72149  23647431.5794
 95  2 12 20  2 30.0090000  0  8 18 14 28 19 31 22 27 29
  23263400.583    -9748476.553 8  -7541937.94049  23263402.9744
  26560721.817    19541823.980 5  15276338.35049  26560730.7274
  26225548.544    -1349074.355 6  -2379343.52249  26225553.5714
  24199383.544    -6381702.870 8  -4895193.26649  24199387.1304
  25869074.138    -5883159.858 6  -4471377.47549  25869080.3604
  27413159.395    18796573.174 5  14711119.00949  27413164.5404
  26760768.481     -904590.020 5   -626330.30549  26760775.5634
  23658256.239    -1852921.302 8  -1412034.06949  23658258.8524
 95  2 12 20  3  0.0090000  0  8 18 14 28 19 31 22 27 29
  23263740.200    -9746692.426 8  -7540547.70649  23263742.6384
  26587099.935    19680442.399 5  15384352.35349  26587108.7634
  26227180.841    -1340492.776 6  -2372656.52649  26227186.3024
  24199217.270    -6382575.863 8  -4895873.50649  24199221.0094
  25860834.364    -5926460.416 6  -4505118.11449  25860840.7514
  27438959.614    18932153.894 5  14816766.22349  27438965.7314
  26753289.989     -943889.920 5   -656953.57549  26753297.0134
  23669157.302    -1795635.891 8  -1367396.12649  23669159.8804
 95  2 12 20  3 30.0090000  0  8 18 14 28 19 31 22 27 29
  23264159.224    -9744490.080 8  -7538831.59449  23264161.4624
  26613486.778    19819104.613 5  15492400.48649  26613495.8064
  26228905.552    -1331430.039 6  -2365594.60249  26228910.9314
  24199084.661    -6383272.611 8  -4896416.41649  24199088.2944
  25852647.372    -5969480.453 6  -4538640.15449  25852653.8644
  27464772.700    19067801.478 5  14922465.53749  27464779.9814
  26745822.911     -983127.988 5   -687528.65149  26745829.7204
  23680134.622    -1737949.828 8  -1322445.98849  23680137.2004
 95  2 12 20  4  0.0090000  0  8 18 14 28 19 31 22 27 29
  23264658.395    -9741866.714 8  -7536787.41049  23264660.6814
  26639880.614    19957802.799 6  15600476.62949  26639889.5484
  26230722.536    -1321884.317 6  -2358156.32649  26230727.7164
  24198987.630    -6383783.320 8  -4896814.35949  24198991.0174
  25844519.794    -6012194.059 6  -4571923.42749  25844526.4384
  27490596.872    19203509.907 5  15028212.29549  27490602.7554
  26738367.841    -1022305.507 5   -718056.59149  26738374.7004
  23691191.028    -1679848.223 8  -1277172.05049  23691193.7354
 95  2 12 20  4 30.0100000  0  8 18 14 28 19 31 22 27 29
  23265235.353    -9738834.334 8  -7534424.51549  23265237.7914
  26666283.877    20096551.212 6  15708591.91949  26666293.1744
  26232629.494    -1311860.027 6  -2350345.14649  26232634.5214
  24198924.752    -6384113.108 8  -4897071.32449  24198928.1624
  25836448.010    -6054609.915 6  -4604974.67849  25836453.8574
  27516431.892    19339267.322 5  15133997.20349  27516438.1974
  26730924.682    -1061419.194 5   -748534.72649  26730931.8104
  23702326.072    -1621333.024 8  -1231575.82849  23702328.6504
 95  2 12 20  5  0.0100000  0  8 18 14 28 19 31 22 27 29
  23265888.635    -9735402.389 8  -7531750.27349  23265891.0724
  26692695.799    20235343.108 6  15816741.08549  26692704.7324
  26234628.502    -1301355.271 6  -2342159.57949  26234633.7054
  24198894.603    -6384273.614 8  -4897196.38249  24198898.0144
  25828435.346    -6096715.830 6  -4637784.42349  25828441.4044
  27542274.611    19475067.583 6  15239815.47049  27542280.3654
  26723495.393    -1100458.749 5   -778955.12749  26723502.8264
  23713541.642    -1562394.761 8  -1185649.94749  23713544.1504
 95  2 12 20  5 30.0100000  0  8 18 14 28 19 31 22 27 29
  23266617.205    -9731573.617 8  -7528766.81849  23266619.6074
  26719115.588    20374179.838 6  15924925.18449  26719124.4984
  26236719.361    -1290367.376 6  -2333597.53249  26236724.4714
  24198896.174    -6384262.132 8  -4897187.42549  24198899.6314
  25820480.299    -6138521.653 6  -4670360.32249  25820486.4164
  27568131.244    19610944.082 6  15345693.15149  27568137.3504
  26716079.697    -1139429.450 5   -809321.86949  26716086.8264
  23724840.080    -1503021.970 8  -1139385.47549  23724842.7174
 95  2 12 20  6  0.0100000  0  8 18 14 28 19 31 22 27 29
  23267419.143    -9727358.471 8  -7525482.29149  23267421.4984
  26745541.135    20513044.988 6  16033131.43249  26745550.8534
  26238900.846    -1278903.056 6  -2324664.25549  26238905.6154
  24198929.330    -6384089.516 8  -4897052.90449  24198933.0574
  25812573.517    -6180066.823 6  -4702733.08849  25812579.8224
  27594000.682    19746894.823 5  15451628.70549  27594007.5024
  26708673.361    -1178349.197 5   -839648.90749  26708680.6314
  23736218.619    -1443227.623 8  -1092792.51849  23736221.3264
 95  2 12 20  6 30.0100000  0  8 18 14 28 19 31 22 27 29
  23268294.557    -9722757.574 8  -7521897.17649  23268296.9244
  26771974.658    20651953.376 6  16141371.35649  26771984.2714
  26241175.752    -1266951.460 6  -2315351.27649  26241180.8144
  24198991.572    -6383759.601 8  -4896795.81549  24198995.2404
  25804719.650    -6221344.030 6  -4734897.06749  25804725.7214
  27619884.127    19882918.245 5  15557620.93849  27619891.3734
  26701279.205    -1217207.955 5   -869928.42649  26701286.3224
  23747678.713    -1383004.662 8  -1045865.57349  23747681.4434
 95  2 12 20  7  0.0100000  0  8 18 14 28 19 31 22 27 29
  23269246.182    -9717758.358 8  -7518001.68749  23269248.5024
  26798414.135    20790896.034 6  16249637.97949  26798423.6434
  26243541.713    -1254513.357 6  -2305659.19749  26243547.1624
  24199083.760    -6383276.365 8  -4896419.25549  24199087.5104
  25796917.400    -6262340.406 6  -4766842.20949  25796923.3774
  27645781.932    20019004.085 5  15663661.72049  27645787.1704
  26693893.072    -1256019.689 5   -900171.31449  26693898.8964
  23759220.807    -1322349.412 8   -998601.78349  23759223.5494
 95  2 12 20  7 30.0100000  0  8 18 14 28 19 31 22 27 29
  23270275.994    -9712346.242 8  -7513784.45249  23270278.2444
  26824862.658    20929878.732 5  16357935.80349  26824872.4124
  26246002.525    -1241582.210 6  -2295582.93949  26246008.1394
  24199205.838    -6382635.113 8  -4895919.56649  24199209.4474
  25789168.580    -6303062.026 6  -4798573.24049  25789174.7674
  27671687.252    20155138.710 5  15769740.50849  27671695.1194
  26686516.228    -1294785.600 5   -930378.43649  26686522.9324
  23770845.338    -1261261.525 8   -951000.87049  23770848.0804
 95  2 12 20  8  0.0100000  0  8 18 14 28 19 31 22 27 29
  23271382.580    -9706530.133 8  -7509252.42049  23271384.9474
  26851321.049    21068916.943 5  16466276.87049  26851331.1194
  26248556.963    -1228158.512 6  -2285122.85749  26248562.2254
  24199353.908    -6381856.197 8  -4895312.60949  24199357.2484
  25781473.533    -6343497.382 6  -4830081.22649  25781480.0144
  27697595.580    20291290.400 5  15875832.67949  27697603.1544
  26679151.213    -1333492.523 5   -960539.61749  26679157.9984
  23782550.369    -1199752.640 8   -903071.91249  23782553.0884
 95  2 12 20  8 30.0100000  0  8 18 14 28 19 31 22 27 29
  23272565.744    -9700313.952 8  -7504408.64049  23272568.1354
  26877792.127    21208022.807 5  16574670.65949  26877802.9714
  26251204.861    -1214242.009 6  -2274278.78149  26251210.3574
  24199528.424    -6380939.839 8  -4894598.55149  24199531.8344
  25773837.924    -6383625.734 6  -4861350.00149  25773844.2054
  27723504.877    20427449.730 5  15981930.74849  27723512.8504
  26671797.932    -1372132.069 5   -990648.30049  26671804.5414
  23794333.158    -1137833.473 8   -854823.25249  23794335.8774
 95  2 12 20  9  0.0100000  0  8 18 14 28 19 31 22 27 29
  23273828.096    -9693678.736 8  -7499238.34349  23273830.6394
  26904274.369    21347183.989 5  16683107.55849  26904284.4634
  26253947.010    -1199833.966 6  -2263051.69449  26253952.2254
  24199731.713    -6379872.641 8  -4893766.95549  24199735.3104
  25766258.392    -6423454.570 6  -4892385.36649  25766265.0374
  27749417.510    20563616.214 5  16088034.45249  27749424.6854
  26664458.502    -1410699.410 5  -1020700.69549  26664465.5374
  23806193.518    -1075507.202 8   -806257.36949  23806196.3894
 95  2 12 20  9 30.0100000  0  8 18 14 28 19 31 22 27 29
  23275169.705    -9686629.342 8  -7493745.31249  23275172.1544
  26930764.393    21486392.936 5  16791581.64049  26930774.9904
  26256783.221    -1184931.801 6  -2251439.58149  26256788.3774
  24199965.783    -6378640.956 8  -4892807.19149  24199969.5104
  25758736.994    -6462981.962 6  -4923185.83849  25758742.9824
  27775332.455    20699796.013 5  16194148.39149  27775340.7794
  26657135.236    -1449183.850 5  -1050688.50549  26657141.9044
  23818129.127    -1012785.682 8   -757383.50449  23818131.9514
 95  2 12 20 10  0.0100000  0  8 18 14 28 19 31 22 27 29
  23276591.533    -9679157.811 8  -7487923.34849  23276593.9124
  26957263.846    21625645.591 5  16900089.79849  26957274.5374
  26259714.010    -1169530.124 6  -2239438.24349  26259718.9554
  24200234.760    -6377229.019 8  -4891706.96949  24200238.3694
  25751274.158    -6502197.732 6  -4953743.47749  25751280.1464
  27801250.869    20836000.758 5  16300281.93149  27801259.7094
  26649829.174    -1487577.484 5  -1080605.57249  26649836.0574
  23830141.807     -949659.258 8   -708194.12649  23830144.6194
 95  2 12 20 10 30.0100000  0  8 18 14 28 19 31 22 27 29
  23278095.572    -9671253.390 8  -7481764.06149  23278097.7754
  26983765.275    21764910.330 5  17008607.37249  26983776.7644
  26262737.603    -1153637.520 6  -2227054.36649  26262742.2794
  24200539.830    -6375625.443 8  -4890457.41549  24200543.3814
  25743867.900    -6541115.982 6  -4984069.28849  25743874.0534
  27827172.635    20972237.589 3  16406440.41647  27827179.4554
  26642535.244    -1525904.787 5  -1110470.92349  26642542.0064
  23842232.385     -886122.649 8   -658685.12649  23842235.0334
 95  2 12 20 11  0.0100000  0  8 18 14 28 19 31 22 27 29
  23279682.736    -9662913.002 8  -7475265.06149  23279684.9514
  27010266.885    21904175.576 5  17117125.33149  27010277.7994
  26265855.635    -1137251.393 6  -2214285.92749  26265860.5334
  24200881.400    -6373830.466 8  -4889058.71849  24200884.8344
  25736518.986    -6579736.692 6  -5014163.25149  25736524.8924
  27853109.010    21108513.889 5  16512629.61149  27853117.2054
  26635254.635    -1564166.640 6  -1140285.27649  26635261.3264
  23854401.728     -822172.883 8   -608854.18849  23854404.2714
 95  2 12 20 11 30.0100000  0  8 18 14 28 19 31 22 27 29
  23281348.314    -9654159.651 8  -7468444.27049  23281350.6934
  27036768.416    22043443.473 5  17225645.33549  27036779.3894
  26269068.088    -1120370.120 6  -2201131.66549  26269073.4204
  24201255.338    -6371864.310 8  -4887526.63749  24201258.9714
  25729226.728    -6618058.615 6  -5044024.38949  25729232.7994
  27879049.635       49983.16515
  26627985.478    -1602365.617 5  -1170050.66449  26627991.2794
  23866650.080     -757806.914 8   -558698.93449  23866652.8104
 95  2 12 20 12  0.0100000  0  8 18 14 28 19 31 22 27 29
  23283092.338    -9644995.172 8  -7461303.12249  23283094.7404
  27063269.275    22182706.591 5  17334161.63149  27063280.5414
  26272374.955    -1102995.056 6  -2187592.62749  26272380.3574
  24201658.760    -6369743.263 8  -4885873.85849  24201662.4044
  25721990.010    -6656084.565 6  -5073654.87349  25721996.3144
  27904997.861      186336.270 5
  26620726.799    -1640510.058 5  -1199773.53849  26620732.6354
  23878979.963     -693013.181 8   -508210.35749  23878982.8344
 95  2 12 20 12 30.0100000  0  7 18 14 28 19 31 27 29
  23284914.283    -9635420.934 8  -7453842.67649  23284916.7214
  27089770.666    22321965.929 5  17442674.97049  27089781.9084
  26275775.330    -1085125.316 6  -2173668.12949  26275780.4164
  24202089.643    -6367479.768 8  -4884110.08849  24202093.2054
  25714813.049    -6693797.966 6  -5103041.82049  25714819.0374
  26613477.127    -1678605.672 5  -1229458.31249  26613483.5604
  23891388.252     -627806.754 8   -457400.20449  23891391.1934
 95  2 12 20 13  0.0100000  0  7 18 14 28 19 31 27 29
  23286813.932    -9625437.924 8  -7446063.70749  23286816.4984
  27116272.658    22461233.627 5  17551194.82949  27116284.6624
  26279271.244    -1066753.233 6  -2159352.20349  26279276.5414
  24202546.057    -6365080.457 8  -4882240.48249  24202549.7254
  25707700.869    -6731174.565 6  -5132166.33549  25707707.0104
  26606239.369    -1716642.273 5  -1259097.14049  26606246.0254
  23903874.369     -562192.171 8   -406272.00449  23903877.2994
 95  2 12 20 13 30.0100000  0  7 18 14 28 19 31 27 29
  23288793.588    -9615034.541 8  -7437957.17349  23288795.9904
  27142775.791    22600501.638 5  17659714.92649  27142787.1504
  26282862.986    -1047881.865 6  -2144647.22449  26282867.7564
  24203028.768    -6362544.301 8  -4880264.24249  24203032.4944
  25700653.158    -6768210.688 6  -5161025.54949  25700658.7834
  26599010.260    -1754630.013 5  -1288697.89149  26599016.6114
  23916439.502     -496163.154 8   -354820.86349  23916442.2444
 95  2 12 20 14  0.0100000  0  7 18 14 28 19 31 27 29
  23290857.135    -9604192.332 8  -7429508.70149  23290859.3384
  27169275.596    22739762.419 5  17768229.38849  27169287.1434
  26286548.096    -1028511.350 6  -2129553.29249  26286553.1584
  24203539.924    -6359858.580 8  -4878171.46749  24203543.5334
  25693672.486    -6804894.374 6  -5189610.12449  25693678.1234
  26591788.236    -1792581.057 5  -1318270.04349  26591795.3774
  23929080.307     -429734.990 8   -303058.70449  23929083.1194
 95  2 12 20 14 30.0100000  0  7 18 14 28 19 31 27 29
  23293005.330    -9592902.676 8  -7420711.56949  23293007.6624
  27195776.736    22879023.498 5  17876744.05249  27195787.6154
  26290330.338    -1008636.976 6  -2114066.74249  26290335.4474
  24204080.307    -6357018.510 8  -4875958.41449  24204083.8694
  25686760.369    -6841216.974 6  -5217913.34049  25686766.0644
  26584574.369    -1830486.178 5  -1347806.42249  26584581.6034
  23941795.853     -362912.415 8   -250989.20249  23941798.7834
 95  2 12 20 15  0.0100000  0  7 18 14 28 19 31 27 29
  23295239.275    -9581162.376 8  -7411563.28449  23295241.8774
  27222275.260    23018272.082 5  17985249.00249  27222287.3464
  26294208.900     -988257.011 6  -2098186.23249  26294214.4434
  24204651.439    -6354018.584 8  -4873620.79049  24204654.8264
  25679915.377    -6877184.546 6  -5245939.90549  25679921.2604
  26577372.197    -1868335.137 5  -1377299.01149  26577378.8424
  23954590.650     -295676.181 8   -198597.37849  23954593.6744
 95  2 12 20 15 30.0100000  0  7 18 14 28 19 31 27 29
  23297558.994    -9568971.762 8  -7402064.10649  23297561.6544
  27248768.885    23157498.308 5  18093736.52249  27248780.1504
  26298183.713     -967367.941 6  -2081909.00849  26298189.0334
  24205253.463    -6350855.611 8  -4871156.11749  24205256.7094
  25673135.580    -6912813.698 6  -5273702.78049  25673141.1114
  26570181.127    -1906124.681 5  -1406745.30849  26570188.2684
  23967464.721     -228022.809 8   -145880.51449  23967467.6624
 95  2 12 20 16  0.0100000  0  7 18 14 28 19 31 27 29
  23299962.744    -9556341.464 8  -7392222.31949  23299965.3574
  27275257.213    23296695.932 5  18202201.75149  27275269.0414
  26302254.783     -945973.232 6  -2065237.78149  26302259.7874
  24205882.338    -6347549.107 8  -4868579.60449  24205885.6434
  25666417.369    -6948117.351 6  -5301212.01949  25666422.8894
  26563001.603    -1943855.500 5  -1436145.86649  26563008.1664
  23980416.916     -159958.761 8    -92843.63749  23980419.8574
 95  2 12 20 16 30.0100000  0  7 18 14 28 19 31 27 29
  23302449.744    -9543271.513 8  -7382037.94449  23302452.3694
  27301739.408    23435856.741 5  18310638.27349  27301751.1894
  26306422.689     -924071.854 6  -2048171.74849  26306427.5884
  24206537.142    -6344108.367 8  -4865898.49649  24206540.6004
  25659762.627    -6983090.705 6  -5328463.87649  25659768.1704
  26555835.119    -1981513.608 5  -1465489.74849  26555841.7284
  23993449.510      -91473.039 8    -39478.17649  23993452.3464
 95  2 12 20 17  0.0100000  0  7 18 14 28 19 31 27 29
  23305019.471    -9529768.033 8  -7371515.75449  23305021.9434
  27328213.666    23574973.961 5  18419040.83849  27328225.3774
  26310686.564     -901662.839 6  -2030710.17049  26310691.9084
  24207216.268    -6340540.188 8  -4863118.08549  24207219.8774
  25653169.432    -7017732.927 6  -5355457.71649  25653175.0804
  26548680.267    -2019112.194 5  -1494787.25749  26548687.0294
  24006562.736      -22562.442 8     14218.35249  24006565.6194
 95  2 12 20 17 30.0100000  0  7 18 14 28 19 31 27 29
  23307671.627    -9515830.202 8  -7360655.11249  23307674.1234
  27354681.580    23714062.763 5  18527421.25249  27354692.8464
  26315047.955     -878745.831 6  -2012852.74249  26315053.3344
  24207919.330    -6336844.952 8  -4860238.67049  24207922.9164
  25646641.439    -7052040.271 7  -5382190.61849  25646647.0534
  26541533.361    -2056666.661 5  -1524050.39949  26541539.8424
  24019754.025       46756.840 8     68233.32949  24019757.0144
 95  2 12 20 18  0.0100000  0  7 18 14 28 19 31 27 29
  23310408.010    -9501450.765 8  -7349450.35649  23310410.4594
  27381144.072    23853123.248 5  18635779.59949  27381156.3814
  26319506.041     -855316.952 6  -1994596.45249  26319510.9984
  24208647.260    -6333019.610 8  -4857257.87549  24208650.7644
  25640181.330    -7085986.418 6  -5408642.05849  25640187.2834
  26534396.791    -2094170.770 6  -1553274.30049  26534402.8384
  24033021.221      116478.564 8    122561.90549  24033024.2324
 95  2 12 20 18 30.0100000  0  7 18 14 28 19 31 27 29
  23313223.103    -9486656.192 8  -7337922.12449  23313225.6354
  27407599.838    23992147.071 5  18744109.36949  27407612.0294
  26324060.392     -831384.940 6  -1975948.12049  26324065.0924
  24209401.932    -6329052.751 8  -4854166.80349  24209405.3424
  25633791.400    -7119566.826 7  -5434808.50549  25633796.9554
  26527266.666    -2131641.609 6  -1582472.29449  26527272.3034
  24046363.088      186589.532 8    177193.78249  24046366.1824
 95  2 12 20 19  0.0100000  0  7 18 14 28 19 31 27 29
  23316118.002    -9471444.463 8  -7326068.84249  23316120.6624
  27434051.174    24131146.163 5  18852419.85849  27434063.8934
  26328711.135     -806944.841 6  -1956903.87849  26328715.5884
  24210186.807    -6324929.377 8  -4850953.78049  24210190.3574
  25627469.853    -7152786.536 7  -5460693.89849  25627475.6074
  26520140.596    -2169089.834 6  -1611652.67149  26520146.7254
  24059780.119      257096.204 8    232133.99549  24059783.1784
 95  2 12 20 19 30.0100000  0  7 18 14 28 19 31 27 29
  23319094.971    -9455800.071 8  -7313878.41049  23319097.6664
  27460495.900    24270117.202 5  18960708.49849  27460508.2794
  26333459.627     -781990.060 6  -1937458.58849  26333463.9044
  24211003.814    -6320634.495 8  -4847607.10049  24211007.2604
  25621218.885    -7185638.052 7  -5486292.36449  25621224.1824
  26513023.861    -2206488.886 6  -1640794.72149  26513029.9324
  24073273.330      328001.877 8    287385.13149  24073276.2134
 95  2 12 20 20  0.0100000  0  8 18 14 28 19 31  2 27 29
  23322151.939    -9439736.368 8  -7301361.24849  23322154.5764
  27486933.955    24409042.490 5  19068961.46449  27486946.2404
  26338306.564     -756523.208 6  -1917614.27049  26338311.1354
  24211853.674    -6316169.313 8  -4844127.73049  24211857.1784
  25615036.064    -7218126.541 7  -5511607.96249  25615041.2914
  27942612.580      -10686.45714
  26505918.619    -2243825.587 6  -1669888.18849  26505924.5964
  24086845.869      399327.351 8    342963.37649  24086848.7874
 95  2 12 20 20 30.0100000  0  8 18 14 28 19 31  2 27 29
  23325288.682    -9423252.489 8  -7288516.67449  23325291.2714
  27513364.189       78695.60615
  26343249.338     -730546.527 6  -1897372.67549  26343254.0254
  24212735.986    -6311531.971 8  -4840514.20949  24212739.6074
  25608920.174    -7250265.405 7  -5536651.12049  25608925.4474
  27930424.205      -74734.801 4
  26498822.580    -2281114.921 6  -1698944.77249  26498828.2754
  24100502.432      471092.771 8    398884.43249  24100505.3264
 95  2 12 20 21  0.0100000  0  7 18 14 28 19 31 27 29
  23328509.189    -9406328.917 8  -7275329.48749  23328511.7324
  27539786.603      217543.794 5     28843.92459  27539800.1194
  26348289.893     -704061.165 6  -1876734.71749  26348294.5454
  24213647.807    -6306740.878 8  -4836780.88249  24213651.4394
  25602869.572    -7282058.899 6  -5561425.15149  25602875.3264
  26491737.814    -2318344.218 6  -1727954.52549  26491743.5574
  24114241.799      543293.998 7    455145.06949  24114244.7994
 95  2 12 20 21 30.0100000  0  8 18 14 28 19 31  2 27 29
  23331815.932    -9388951.602 8  -7261788.72849  23331818.6154
  27566202.189      356358.104 5    137010.44349  27566215.4714
  26353427.978     -677058.007 6  -1855693.28049  26353432.6314
  24214590.799    -6301786.738 8  -4832920.50749  24214594.1034
  25596888.822    -7313487.683 6  -5585915.00649  25596893.9554
  27906125.103      -61647.507 5
  26484668.018    -2355499.377 6  -1756906.55149  26484673.5724
  24128064.689      615932.336 8    511746.31649  24128067.7604
 95  2 12 20 22  0.0100000  0  8 18 14 28 19 31  2 27 29
  23335206.877    -9371130.826 8  -7247902.48749  23335209.4784
  27592611.689      495138.916 5    245150.74749  27592625.5804
  26358663.174     -649543.858 6  -1834253.73049  26358667.8264
  24215563.338    -6296673.705 8  -4828936.39549  24215566.9124
  25590976.752    -7344554.733 6  -5610123.05149  25590982.3894
  27894011.408     -125304.050 5    -28095.43659  27894024.5604
  26477605.775    -2392607.035 6  -1785821.60249  26477611.4354
  24141967.510      688993.788 8    568677.19249  24141970.5684
 95  2 12 20 22 30.0100000  0  8 18 14 28 19 31  2 27 29
  23338687.572    -9352840.048 8  -7233649.93349  23338690.2684
  27619015.978      633894.926 5    353271.81449  27619030.3034
  26363998.517     -621509.292 6  -1812408.59449  26364003.5334
  24216565.908    -6291404.536 8  -4824830.54349  24216569.4594
  25585137.127    -7375239.821 6  -5634033.38849  25585143.0924
  27881922.353     -188834.497 5    -77599.52149  27881934.1704
  26470554.650    -2429662.827 6  -1814696.15649  26470560.7684
  24155948.830      762466.185 8    625928.36749  24155952.0294
 95  2 12 20 23  0.0100000  0  7 18 28 19 31  2 27 29
  23342260.267    -9334065.575 8  -7219020.47949  23342262.9634
  26369432.658     -592950.377 6  -1790154.88249  26369437.9904
  24217598.564    -6285978.003 8  -4820602.08149  24217602.4204
  25579374.088    -7405527.994 6  -5657634.45549  25579379.5724
  27869856.752     -252241.646 5   -127007.51649  27869869.2954
  26463516.088    -2466648.708 6  -1843516.24249  26463521.9354
  24170006.088      836338.803 7    683491.39149  24170009.2754
 95  2 12 20 23 30.0100000  0  7 18 28 19 31  2 27 29
  23345922.971    -9314816.527 8  -7204021.23349  23345925.7254
  26374965.869     -563870.075 6  -1767494.89749  26374970.7794
  24218660.877    -6280396.238 8  -4816252.65749  24218664.5684
  25573686.408    -7435415.146 6  -5680923.03849  25573692.0684
  27857815.807     -315513.924 5   -176310.42949  27857827.0964
  26456489.947    -2503571.998 6  -1872287.52449  26456496.1004
  24184140.080      910612.022 8    741366.56949  24184143.2684
 95  2 12 20 24  0.0100000  0  8 18 14 28 19 31  2 27 29
  23349675.314    -9295098.455 8  -7188656.50949  23349678.0104
  27698172.768      106236.23815
  26380598.596     -534272.255 6  -1744431.64149  26380603.3184
  24219749.611    -6274674.473 8  -4811794.14249  24219753.3614
  25568073.564    -7464907.295 6  -5703903.81849  25568079.2254
  27845801.721     -378647.903 5   -225505.60148  27845813.6314
  26449475.002    -2540434.094 6  -1901011.15449  26449481.1894
  24198351.338      985292.374 8    799558.99349  24198354.4904
 95  2 12 20 24 30.0100000  0  8 18 14 28 19 31  2 27 29
  23353517.182    -9274909.200 8  -7172924.63149  23353519.9004
  27724528.377      244737.163 5     35962.86059  27724542.2324
  26386328.189     -504162.893 6  -1720969.79349  26386333.0644
  24220862.892    -6268823.772 8  -4807235.15549  24220866.6894
  25562535.814    -7494008.359 6  -5726579.87149  25562541.4984
  27833813.510     -441641.621 5   -274591.46949  27833823.9204
  26442471.557    -2577236.314 6  -1929688.14449  26442477.6154
  24212641.525     1060385.378 8    858072.96049  24212644.4554
 95  2 12 20 25  0.0100000  0  8 18 14 28 19 31  2 27 29
  23357447.041    -9254258.216 8  -7156832.96249  23357449.6544
  27750868.205      383151.359 5    143817.58449  27750881.8384
  26392155.549     -473536.591 6  -1697105.13949  26392160.2834
  24222003.619    -6262829.425 8  -4802564.23749  24222007.1004
  25557072.150    -7522719.860 6  -5748952.36949  25557077.3534
  27821855.400     -504483.316 5   -323558.84648  27821867.0174
  26435478.158    -2613985.401 6  -1958323.69649  26435484.0884
  24227009.338     1135888.672 8    916906.64049  24227012.0334
 95  2 12 20 25 30.0100000  0  8 18 14 28 19 31  2 27 29
  23361460.861    -9233164.932 8  -7140396.64749  23361463.5334
  27777193.963                       73766.46915
  26398081.666     -442396.767 6  -1672840.33849  26398086.4714
  24223170.385    -6256697.218 8  -4797785.88949  24223173.9824
  25551681.150    -7551051.268 6  -5771028.69749  25551686.4824
  27809925.150     -567175.537 4   -372409.77748  27809936.2404
  26428492.283    -2650699.840 6  -1986932.24249  26428498.2714
  24241453.666     1211794.172 8    976053.72249  24241456.4904
 95  2 12 20 26  0.0100000  0  8 18 14 28 19 31  2 27 29
  23365560.275    -9211621.638 8  -7123609.67549  23365563.0294
  27803508.596                       50696.71915
  26404107.119     -410731.782 6  -1648166.32049  26404112.2174
  24224366.127    -6250413.216 8  -4792889.26049  24224369.6894
  25546362.869    -7578997.793 6  -5792805.12249  25546368.3894
  27798022.346     -629722.895 4   -421147.81748  27798034.2214
  26421512.330    -2687377.849 6  -2015512.43949  26421518.3654
  24255976.072     1288111.193 8   1035521.47249  24255979.1434
 95  2 12 20 26 30.0100000  0  8 18 14 28 19 31  2 27 29
  23369747.807    -9189616.724 8  -7106462.99549  23369750.4434
  27829816.713                      188947.190 4
  26410236.916     -378522.338 6  -1623068.06049  26410241.9674
  24225594.221    -6243961.327 8  -4787861.81349  24225597.6784
  25541123.283    -7606533.167 6  -5814261.16449  25541128.6744
  27786151.432     -692105.023 3   -469757.09247  27786162.4164
  26414542.807    -2724003.298 6  -2044051.67049  26414548.5844
  24270579.432     1364852.350 8   1095319.71749  24270582.6434
 95  2 12 20 27  0.0100000  0  8 18 14 28 19 31  2 27 29
  23374015.721    -9167188.704 8  -7088986.62849  23374018.4754
  27856110.494                      105920.09414
  26416464.572     -345795.628 6  -1597566.73049  26416469.9634
  24226848.353    -6237370.895 8  -4782726.40649  24226851.8104
  25535957.916    -7633675.087 6  -5835410.62749  25535963.4004
  27774305.932     -754352.830 3   -518261.70349  27774317.2324
  26407576.971    -2760610.143 6  -2072576.41349  26407582.3504
  24285258.213     1441989.765 8   1155426.73649  24285261.4244
 95  2 12 20 27 30.0100000  0  8 18 14 28 19 31  2 27 29
  23378365.494    -9144330.928 8  -7071175.38549  23378368.1314
  27882389.275      244007.689 4     43027.12458  27882403.3304
  26422789.518     -312556.207 6  -1571665.90249  26422794.8264
  24228126.182    -6230654.872 8  -4777493.14149  24228129.7444
  25530869.322    -7660416.595 7  -5856248.07349  25530874.5964
  27762485.041     -816472.535 3   -566666.47948  27762496.0254
  26400614.338    -2797196.098 6  -2101084.86149  26400620.0454
  24300015.525     1519539.183 8   1215854.79149  24300018.7954
 95  2 12 20 28  0.0100000  0  8 18 14 28 19 31  2 27 29
  23382801.650    -9121019.314 8  -7053010.50249  23382804.3924
  27908647.603      381997.108 4    150550.85849  27908661.9394
  26429215.268     -278789.111 6  -1545353.88749  26429220.0844
  24229429.252    -6223807.318 8  -4772157.38349  24229432.9084
  25525862.127    -7686728.872 7  -5876751.06749  25525867.3654
  27750693.197     -878440.768 3   -614953.24849  27750705.1894
  26393662.346    -2833730.390 6  -2129553.06349  26393667.8184
  24314855.307     1597522.651 8   1276621.07449  24314858.6464
 95  2 12 20 28 30.0100000  0  8 18 14 28 19 31  2 27 29
  23387323.760    -9097254.592 8  -7034492.55249  23387326.4554
  27934883.103                       22964.48713
  26435739.502     -244507.717 6  -1518641.12949  26435744.4004
  24230755.908    -6216835.934 8  -4766725.13349  24230759.4354
  25520935.947    -7712615.807 7  -5896922.62249  25520941.5144
  27738926.939     -940267.595 3   -663129.78349  27738938.6154
  26386718.814    -2870219.889 6  -2157986.36349  26386724.2054
  24329773.916     1675919.546 8   1337709.50449  24329777.1274
 95  2 12 20 29  0.0100000  0  7 18 28 19 31  2 27 29
  23391935.635    -9073019.453 8  -7015608.04049  23391938.3304
  26442361.963     -209705.472 6  -1491522.51149  26442366.7914
  24232108.478    -6209728.441 8  -4761186.82049  24232112.1114
  25516091.877    -7738071.758 7  -5916758.34649  25516097.3144
  27727189.986    -1001948.944 4   -711193.01449  27727200.6894
  26379786.557    -2906646.275 6  -2186370.48349  26379791.8304
  24344771.486     1754731.980 8   1399121.73349  24344774.6394
 95  2 12 20 29 30.0100000  0  7 18 28 19 31  2 27 29
  23396640.666    -9048293.651 8  -6996341.19549  23396643.3614
  26449087.150     -174364.921 6  -1463984.44649  26449091.8504
  24233490.150    -6202467.294 8  -4755528.78249  24233493.4784
  25511330.728    -7763090.956 7  -5936253.74549  25511336.1074
  27715484.455    -1063460.221 5   -759123.70949  27715495.9554
  26372872.900    -2942977.855 6  -2214680.73149  26372878.5964
  24359850.135     1833970.402 8   1460865.90549  24359853.3574
 95  2 12 20 30  0.0100000  0  7 18 28 19 31  2 27 29
  23401437.885    -9023083.730 8  -6976697.11849  23401440.4754
  26455914.150     -138486.891 6  -1436027.55849  26455918.9554
  24234903.533    -6195039.516 8  -4749740.89749  24234906.9904
  25506651.189    -7787682.191 7  -5955415.66549  25506656.4984
  27703810.103    -1124807.950 5   -806926.96749  27703821.8614
  26365978.057    -2979209.444 6  -2242913.04649  26365984.0104
  24375006.518     1913617.274 8   1522928.35349  24375009.6354
 95  2 12 20 30 30.0100000  0  7 18 28 19 31  2 27 29
  23406325.158    -8997402.135 8  -6956685.50049  23406327.9004
  26462842.682     -102077.878 6  -1407656.91249  26462847.2054
  24236349.244    -6187442.339 8  -4743821.01149  24236352.6194
  25502049.721    -7811861.059 7  -5974256.26249  25502054.8894
  27692165.135    -1186005.858 5   -854613.48349  27692176.3424
  26359098.244    -3015361.779 6  -2271083.62549  26359104.2094
  24390237.869     1993659.028 8   1585298.50349  24390241.0924
 95  2 12 20 31  0.0100000  0  7 18 28 19 31  2 27 29
  23411299.986    -8971259.248 8  -6936314.43749  23411302.6114
  26469872.377      -65135.205 6  -1378870.42749  26469877.1824
  24237826.268    -6179682.548 8  -4737774.41249  24237829.6544
  25497526.861    -7835630.477 7  -5992777.80649  25497531.9004
  27680549.814    -1247042.138 5   -902174.02849  27680560.9044
  26352233.861    -3051433.362 6  -2299191.25249  26352240.2134
  24405547.166     2074110.492 8   1647987.90449  24405550.2834
 95  2 12 20 31 30.0110000  0  7 18 28 19 31  2 27 29
  23416364.202    -8944647.835 8  -6915578.29049  23416366.7334
  26477004.460      -27657.115 6  -1349666.72849  26477009.4404
  24239334.444    -6171754.605 8  -4731596.78549  24239337.9484
  25493082.616    -7858985.859 7  -6010976.72649  25493087.7374
  27668966.460    -1307912.428 5   -949605.22949  27668977.7264
  26345379.991    -3087447.989 6  -2327254.50149  26345386.5424
  24420934.069     2154968.585 8   1710994.16249  24420937.2684
 95  2 12 20 32  0.0110000  0  7 18 28 19 31  2 27 29
  23421517.272    -8917566.918 8  -6894476.29149  23421519.9214
  26484236.655       10350.103 6  -1320050.73149  26484241.5304
  24240873.843    -6163665.032 8  -4725293.21049  24240877.5114
  25488720.202    -7881907.526 7  -6028837.68549  25488725.2064
  27657414.983    -1368615.478 5   -996906.09849  27657425.3234
  26338534.499    -3123424.066 6  -2355287.72049  26338541.2724
  24436397.546     2236227.960 8   1774313.10449  24436400.5694
 95  2 12 20 32 30.0110000  0  7 18 28 19 31  2 27 29
  23426763.819    -8889996.784 8  -6872993.08449  23426766.4914
  26491571.968       48893.404 6  -1290017.00149  26491576.5974
  24242441.827    -6155424.182 8  -4718871.75649  24242445.4724
  25484444.100    -7904380.714 7  -6046349.18349  25484449.0224
  27645897.851    -1429135.277 5  -1044064.18849  27645909.2574
  26331694.897    -3159368.419 6  -2383296.21749  26331700.7104
  24451940.632     2317907.702 8   1837959.61049  24451943.6794
 95  2 12 20 33  0.0110000  0  7 18 28 19 31  2 27 29
  23432105.436    -8861925.399 8  -6851119.28949  23432108.0504
  26499007.265       87969.993 6  -1259567.72949  26499012.1634
  24244038.882    -6147033.600 8  -4712333.62549  24244042.3974
  25480254.327    -7926397.441 7  -6063504.99449  25480259.1794
  27634417.413    -1489463.843 5  -1091073.23349  27634428.2924
  26324860.132    -3195282.551 6  -2411281.16449  26324866.1084
  24467563.851     2400007.318 8   1901933.28949  24467566.8864
 95  2 12 20 33 30.0110000  0  7 18 28 19 31  2 27 29
  23437543.936    -8833347.229 8  -6828850.59749  23437546.7024
  26506545.335      127579.265 6  -1228703.37249  26506550.0464
  24245662.436    -6138500.788 8  -4705684.66649  24245665.9524
  25476153.936    -7947944.103 7  -6080294.52049  25476158.8824
  27622972.476    -1549604.650 5  -1137935.95849  27622982.8514
  26318031.132    -3231168.518 6  -2439244.13449  26318037.9054
  24483263.686     2482510.523 8   1966221.45749  24483266.7924
 95  2 12 20 34  0.0110000  0  7 18 28 19 31  2 27 29
  23443076.866    -8804271.481 8  -6806194.17849  23443079.7254
  26514184.499      167727.408 6  -1197419.11849  26514189.6204
  24247312.679    -6129827.125 8  -4698925.95649  24247316.2064
  25472143.366    -7969020.320 7  -6096717.46749  25472148.4764
  27611564.663    -1609554.632 5  -1184649.97149  27611575.2724
  26311211.921    -3267001.442 6  -2467165.77749  26311218.4254
  24499043.788     2565435.571 8   2030838.32449  24499047.1164
 95  2 12 20 34 30.0110000  0  7 18 28 19 31  2 27 29
  23448705.288    -8774693.603 8  -6783146.48649  23448708.0774
  26521927.147      208417.559 6  -1165712.51949  26521932.4444
  24248991.710    -6121005.512 8  -4692051.95349  24248995.0154
  25468219.233    -7989640.893 7  -6112785.36049  25468224.2724
  27600189.960    -1669330.096 5  -1231228.00449  27600201.4364
  26304406.335    -3302766.853 6  -2495034.83249  26304412.2884
  24514902.827     2648774.420 8   2095777.63349  24514906.0974
 95  2 12 20 35  0.0110000  0  7 18 28 19 31  2 27 29
  23454424.319    -8744639.260 8  -6759727.52749  23454427.1904
  26529774.343      249652.737 6  -1133581.22249  26529779.4174
  24250702.265    -6112016.033 8  -4685047.14649  24250705.4644
  25464381.733    -8009805.025 7  -6128497.58949  25464386.6434
  27588844.905    -1728945.452 5  -1277681.25049  27588855.4794
  26297615.460    -3338453.768 6  -2522842.73349  26297620.9214
  24530837.710     2732512.888 8   2161028.32949  24530840.8624
 95  2 12 20 35 30.0110000  0  7 18 28 19 31  2 27 29
  23460230.546    -8714126.590 8  -6735951.42349  23460233.4524
  26537723.061      291420.368 6  -1101035.03049  26537728.0774
  24252443.280    -6102867.146 8  -4677918.12949  24252446.6324
  25460628.788    -8029526.131 7  -6143864.60249  25460634.1434
  27577526.882    -1788421.324 5  -1324025.78349  27577537.8784
  26290838.476    -3374065.887 6  -2550592.33149  26290844.2294
  24546847.218     2816643.781 8   2226584.80949  24546850.4994
 95  2 12 20 36  0.0110000  0  7 18 28 19 31  2 27 29
  23466126.171    -8683145.346 8  -6711810.19549  23466129.0654
  26545773.202      333726.391 6  -1068069.31349  26545778.1004
  24254218.811    -6093537.421 8  -4670648.20949  24254222.1984
  25456960.788    -8048803.403 7  -6158885.76249  25456965.8864
  27566236.382    -1847751.575 5  -1370256.86849  27566246.3234
  26284076.718    -3409595.772 6  -2578277.86749  26284082.5424
  24562934.999     2901186.102 8   2292461.88249  24562938.2684
 95  2 12 20 36 30.0110000  0  7 18 28 19 31  2 27 29
  23472111.749    -8651691.511 8  -6687300.71349  23472114.5974
  26553925.499      376567.839 6  -1034686.38449  26553930.4914
  24256027.679    -6084029.566 8  -4663239.48549  24256031.0894
  25453377.929    -8067631.419 7  -6173556.85749  25453382.8154
  27554975.093    -1906925.373 5  -1416366.01449  27554985.6434
  26277329.796    -3445052.633 6  -2605906.46649  26277336.0654
  24579099.663     2986132.069 8   2358653.48549  24579102.8974
 95  2 12 20 37  0.0110000  0  7 18 28 19 31  2 27 29
  23478186.444    -8619769.290 8  -6662426.25349  23478189.2574
  26562180.257      419942.064 6  -1000888.30649  26562185.2964
  24257867.538    -6074362.690 8  -4655706.85249  24257870.8904
  25449882.429    -8085998.918 7  -6187869.10949  25449887.3504
  27543752.038    -1965903.302 5  -1462322.57949  27543763.3044
  26270596.319    -3480439.526 6  -2633480.57349  26270602.6594
  24595344.421     3071499.070 7   2425173.15649  24595347.7614
 95  2 12 20 37 30.0110000  0  7 18 28 19 31  2 27 29
  23484355.757    -8587348.259 8  -6637163.11149  23484358.6864
  26570535.788      463851.820 6   -966672.92749  26570540.7334
  24259732.616    -6064561.176 8  -4648069.29849  24259736.0034
  25446474.851    -8103907.246 7  -6201823.57349  25446479.7024
  27532568.835    -2024667.335 5  -1508112.44149  27532579.7024
  26263875.413    -3515757.311 6  -2661000.83649  26263881.7414
  24611672.538     3157303.540 7   2492033.71749  24611676.0074
 95  2 12 20 38  0.0110000  0  6 18 28 19 31 27 29
  23490615.546    -8554453.124 8  -6611530.54149  23490618.3474
  26578988.077      508271.327 6   -932060.34149  26578993.2804
  24261614.944    -6054669.080 8  -4640361.17049  24261618.3904
  25443149.444    -8121382.809 7  -6215440.83249  25443154.1794
  26257160.155    -3551046.152 6  -2688498.54649  26257166.0384
  24628077.561     3243511.626 7   2559208.78449  24628080.8904
 95  2 12 20 38 30.0110000  0  6 18 28 19 31 27 29
  23496971.257    -8521054.356 8  -6585505.53149  23496974.0224
  26587542.554      553224.169 6   -897032.17149  26587547.8864
  24263518.374    -6044667.427 8  -4632567.66549  24263521.9724
  25439911.718    -8138394.664 7  -6228696.75749  25439916.8624
  26250454.429    -3586283.963 6  -2715956.50549  26250459.7844
  24644561.577     3330135.054 8   2626707.49249  24644564.8354
 95  2 12 20 39  0.0110000  0  7 18 28 19 31  2 27 29
  23503425.186    -8487138.307 8  -6559077.44449  23503427.9644
  26596199.647      598717.907 6   -861582.53049  26596204.7454
  24265443.679    -6034549.557 8  -4624683.60749  24265447.0894
  25436764.741    -8154931.337 7  -6241582.41349  25436769.6984
  27499244.179      -21308.43415
  26243759.350    -3621465.447 6  -2743370.56549  26243764.5654
  24661124.780     3417174.646 7   2694530.48149  24661127.9914
 95  2 12 20 39 30.0110000  0  7 18 28 19 31  2 27 29
  23509981.835    -8452682.518 8  -6532228.78249  23509984.5074
  26604963.835      644774.197 6   -825694.53349  26604968.6404
  24267400.218    -6024266.271 8  -4616670.64649  24267403.7104
  25433713.561    -8170965.534 7  -6254076.53849  25433718.1904
  27488206.421      -79309.511 5
  26237077.866    -3656575.491 6  -2770728.95349  26237083.4214
  24677767.772     3504634.594 7   2762681.02549  24677771.0424
 95  2 12 20 40  0.0110000  0  7 18 28 19 31  2 27 29
  23516634.929    -8417721.447 8  -6504986.39549  23516637.6004
  26613830.538      691368.828 6   -789387.04449  26613835.1674
  24269389.069    -6013816.011 8  -4608527.58249  24269392.4094
  25430756.249    -8186506.788 7  -6266186.55149  25430760.7844
  27477199.124     -137155.333 5    -40560.21559  27477209.1944
  26230405.702    -3691639.056 6  -2798051.14449  26230410.9994
  24694484.780     3592483.038 7   2831134.28849  24694488.0034
 95  2 12 20 40 30.0110000  0  7 18 28 19 31  2 27 29
  23523379.663    -8382276.592 8  -6477367.03249  23523382.4524
  26622798.132      738492.050 6   -752667.68449  26622802.8194
  24271408.632    -6003203.418 8  -4600258.01449  24271412.2184
  25427891.952    -8201558.004 7  -6277914.72449  25427896.4994
  27466220.194     -194849.805 5    -85516.70549  27466230.5584
  26223741.780    -3726656.994 6  -2825337.77949  26223747.2184
  24711272.983     3680705.100 7   2899878.68449  24711276.3584
 95  2 12 20 41  0.0110000  0  7 18 28 19 31  2 27 29
  23530214.921    -8346357.670 8  -6449378.26649  23530217.7924
  26631866.866      786148.094 6   -715533.13049  26631871.7064
  24273460.343    -5992421.462 8  -4591856.48249  24273463.8234
  25425123.108    -8216107.436 7  -6289251.88849  25425127.7144
  27455273.749     -252374.192 5   -130340.67649  27455283.2804
  26217087.522    -3761625.528 6  -2852585.91149  26217092.9834
  24728135.546     3769318.250 7   2968927.82949  24728138.9564
 95  2 12 20 41 30.0110000  0  7 18 28 19 31  2 27 29
  23537139.936    -8309965.562 8  -6421020.79149  23537142.7964
  26641036.265      834337.081 6   -677983.28249  26641041.5264
  24275546.554    -5981458.731 8  -4583314.07949  24275549.8704
  25422449.960    -8230154.717 7  -6300197.76749  25422454.8824
  27444363.468     -309706.510 5   -175014.98949  27444373.1404
  26210443.108    -3796542.532 6  -2879793.90249  26210448.3354
  24745073.335     3858326.783 7   3038285.06949  24745076.9444
 95  2 12 20 42  0.0110000  0  7 18 28 19 31  2 27 29
  23544152.733    -8273113.519 8  -6392304.92749  23544155.6284
  26650305.374      883046.597 6   -640027.83649  26650310.8474
  24277661.218    -5970345.072 8  -4574654.08549  24277664.6284
  25419869.327    -8243715.955 7  -6310764.90949  25419874.4604
  27433490.585     -366844.538 5   -219537.88549  27433499.9994
  26203806.882    -3831414.650 6  -2906966.91449  26203812.0504
  24762083.491     3947717.245 7   3107939.91549  24762087.1714
 95  2 12 20 42 30.0110000  0  7 18 28 19 31  2 27 29
  23551258.116    -8235775.697 8  -6363210.52949  23551261.0114
  26659676.429      932289.905 6   -601656.43249  26659681.5734
  24279806.077    -5959073.891 8  -4565871.33549  24279809.4644
  25417384.640    -8256774.611 7  -6320940.43049  25417389.5264
  27422656.530     -423774.824 5   -263898.91949  27422665.9684
  26197183.038    -3866224.627 6  -2934091.50149  26197188.5224
  24779170.304     4037507.276 7   3177906.11649  24779174.1714
 95  2 12 20 43  0.0110000  0  7 18 28 19 31  2 27 29
  23558460.999    -8197924.484 8  -6333716.08649  23558463.7534
  26669148.999      982069.138 6   -562867.42649  26669153.9914
  24281983.515    -5947630.743 8  -4556954.58449  24281986.9134
  25414994.093    -8269337.168 7  -6330729.38849  25414998.5464
  27411864.944     -480484.974 5   -308088.40349  27411873.5264
  26190571.858    -3900964.665 6  -2961161.60349  26190577.2844
  24796335.640     4127713.016 7   3248196.25149  24796339.4484
 95  2 12 20 43 30.0110000  0  7 18 28 19 31  2 27 29
  23565763.515    -8159548.280 8  -6303812.55849  23565766.1864
  26678722.858     1032381.691 6   -523662.85849  26678727.8744
  24284192.374    -5936025.199 8  -4547911.29749  24284195.6674
  25412694.561    -8281418.799 7  -6340143.57849  25412699.5424
  27401115.257     -536974.241 5   -352105.76349  27401124.6014
  26183973.725    -3935638.434 6  -2988180.05749  26183979.3394
  24813577.327     4218317.144 7   3318796.81549  24813581.3234
 95  2 12 20 44  0.0110000  0  7 18 28 19 31  2 27 29
  23573165.061    -8120652.452 8  -6273504.13449  23573167.7924
  26688397.202     1083221.941 6   -484047.09349  26688402.4174
  24286428.530    -5924273.398 8  -4538754.04149  24286431.7414
  25410487.382    -8293020.776 7  -6349184.02049  25410492.1754
  27390404.811     -593255.727 5   -395961.21549  27390414.1434
  26177386.843    -3970254.508 6  -3015153.54949  26177392.1754
  24830893.632     4309315.249 7   3389704.37749  24830897.6634
 95  2 12 20 44 30.0110000  0  7 18 28 19 31  2 27 29
  23580666.788    -8081231.745 8  -6242786.70849  23580669.4134
  26698174.491     1134598.733 6   -444013.23949  26698179.4254
  24288694.718    -5912363.995 8  -4529473.97749  24288698.0114
  25408372.351    -8304133.440 7  -6357843.18249  25408377.1674
  27379734.452     -649329.919 6   -439655.14449  27379742.6124
  26170811.530    -4004805.074 6  -3042075.99649  26170816.8504
  24848288.397     4400723.436 7   3460931.47849  24848292.1364
 95  2 12 20 45  0.0110000  0  7 18 28 19 31  2 27 29
  23588263.600    -8041309.738 8  -6211678.66349  23588266.1084
  26708052.858     1186511.268 6   -403561.92849  26708057.4644
  24290991.124    -5900296.305 8  -4520070.57149  24290994.4174
  25406349.694    -8314762.333 7  -6366125.36549  25406354.5694
  27369101.319     -705207.122 6   -483195.57049  27369109.3864
  26164247.897    -4039298.850 6  -3068954.18949  26164253.2764
  24865760.726     4492542.197 7   3532478.51249  24865764.4994
 95  2 12 20 45 30.0110000  0  7 18 28 19 31  2 27 29
  23595951.015    -8000912.684 8  -6180200.45349  23595953.5934
  26718033.811     1238956.825 6   -362695.28149  26718038.1014
  24293315.858    -5888079.435 8  -4510550.91849  24293319.1514
  25404421.030    -8324896.790 7  -6374022.27849  25404425.6004
  27358501.436     -760909.533 6   -526599.79349  27358510.1014
  26157693.421    -4073741.843 6  -3095792.81749  26157698.4014
  24883308.835     4584758.016 7   3604334.94349  24883312.4444
 95  2 12 20 46  0.0110000  0  7 18 28 19 31  2 27 29
  23603727.077    -7960049.535 8  -6148359.05149  23603729.7144
  26728115.007     1291934.233 6   -321414.20449  26728119.9524
  24295667.632    -5875722.303 8  -4500921.97049  24295670.8434
  25402587.319    -8334533.641 7  -6381531.45349  25402591.7844
  27347932.577     -816446.319 6   -569874.95049  27347941.8044
  26151149.757    -4108128.451 6  -3122587.50049  26151154.7724
  24900934.522     4677382.088 7   3676509.49449  24900938.1904
 95  2 12 20 46 30.0110000  0  7 18 28 19 31  2 27 29
  23611592.311    -7918717.526 8  -6116152.30949  23611595.0074
  26738297.265     1345443.043 6   -279719.05549  26738302.5384
  24298045.952    -5863223.305 8  -4491182.47249  24298049.2804
  25400848.811    -8343669.679 7  -6388650.38349  25400853.2764
  27337395.405     -871818.881 5   -613022.13849  27337404.3974
  26144616.272    -4142458.744 6  -3149338.28349  26144621.6404
  24918638.624     4770415.478 7   3749002.98649  24918642.2804
 95  2 12 20 47  0.0110000  0  7 18 28 19 31  2 27 29
  23619548.788    -7876905.906 8  -6083571.83749  23619551.4954
  26748579.163     1399479.867 6   -237612.47349  26748584.4254
  24300452.140    -5850578.167 8  -4481329.09849  24300455.6554
  25399204.585    -8352308.005 7  -6395381.47949  25399208.9214
  27326892.358     -927011.937 5   -656029.43249  27326901.4684
  26138093.827    -4176734.631 6  -3176046.67449  26138098.8544
  24936418.694     4863850.797 7   3821809.66949  24936422.2924
 95  2 12 20 47 30.0110000  0  7 18 28 19 31  2 27 29
  23627603.022    -7834581.396 8  -6050591.71749  23627605.8004
  26758965.351     1454051.163 6   -195089.41049  26758970.0264
  24302886.226    -5837787.976 8  -4471362.69149  24302889.5424
  25397658.124    -8360437.283 7  -6401715.91749  25397662.5424
  27316426.944     -982006.756 5   -698882.27649  27316436.1594
  26131582.765    -4210952.556 6  -3202709.90649  26131587.5114
  24954273.811     4957680.184 7   3894923.41449  24954277.5504
 95  2 12 20 48  0.0110000  0  7 18 28 19 31  2 27 29
  23635755.827    -7791736.754 8  -6017206.29849  23635758.5934
  26769450.765     1509157.591 6   -152149.35849  26769455.4874
  24305349.616    -5824841.562 8  -4461274.55449  24305352.9684
  25396208.421    -8368053.336 7  -6407650.44349  25396212.8744
  27306001.483    -1036792.650 5   -741572.32149  27306010.1244
  26125080.577    -4245118.659 6  -3229332.74449  26125085.8514
  24972203.835     5051904.859 7   3968345.17349  24972207.6084
 95  2 12 20 48 30.0110000  0  7 18 28 19 31  2 27 29
  23644007.843    -7748372.816 8  -5983416.23049  23644010.7494
  26780038.202     1564795.144 6   -108795.45249  26780042.8904
  24307845.952    -5811723.683 8  -4451052.80549  24307849.1404
  25394858.632    -8375145.349 7  -6413176.61949  25394863.3194
  27295616.608    -1091361.033 5   -784092.86649  27295626.0344
  26118588.319    -4279237.810 6  -3255919.00149  26118593.5814
  24990207.390     5146512.315 7   4042065.20049  24990211.1634
 95  2 12 20 49  0.0110000  0  7 18 28 19 31  2 27 29
  23652362.061    -7704470.827 8  -5949206.90349  23652364.8974
  26790731.882     1620992.249 6    -65005.52149  26790736.7104
  24310379.811    -5798406.474 8  -4440675.73749  24310383.0114
  25393612.280    -8381696.969 7  -6418281.71049  25393616.7334
  27285280.944    -1145674.833 5   -826415.03349  27285289.6794
  26112110.655    -4313278.650 6  -3282444.24249  26112115.5544
  25008288.577     5241529.162 7   4116104.23849  25008292.2454
 95  2 12 20 49 30.0110000  0  7 18 28 19 31  2 27 29
  23660810.702    -7660072.880 8  -5914611.11349  23660813.6794
  26801527.147     1677718.293 6    -20803.44149  26801532.2224
  24312943.936    -5784931.851 8  -4430176.01049  24312947.2764
  25392464.600    -8387727.122 7  -6422980.46749  25392468.7724
  27274986.741    -1199773.740 6   -868569.76549  27274995.3824
  26105642.788    -4347265.884 6  -3308927.70149  26105647.9214
  25026444.882     5336939.600 7   4190449.97149  25026448.5034
 95  2 12 20 50  0.0110000  0  7 18 28 19 31  2 27 29
  23669353.061    -7615182.836 8  -5879631.87449  23669355.8504
  26812424.522     1734983.470 6     23818.74749  26812429.1164
  24315540.827    -5771286.028 8  -4419542.88749  24315544.2374
  25391419.140    -8393222.407 7  -6427262.44749  25391423.4644
  27264735.491    -1253641.325 6   -910544.27349  27264744.7294
  26099189.858    -4381176.477 6  -3335351.44849  26099194.8744
  25044681.061     5432772.149 7   4265124.61649  25044684.8114
 95  2 12 20 50 30.0110000  0  7 18 28 19 31  2 27 29
  23677990.468    -7569793.133 8  -5844263.29049  23677993.3044
  26823423.593     1792784.749 6     68858.67749  26823428.3744
  24318164.804    -5757496.601 8  -4408797.86449  24318168.2844
  25390473.850    -8398188.132 7  -6431131.79249  25390478.2454
  27254530.100    -1307270.570 6   -952333.07249  27254538.6124
  26092751.944    -4415008.476 6  -3361713.94949  26092757.0304
  25062996.350     5529019.543 7   4340122.51849  25063000.0774
 95  2 12 20 51  0.0110000  0  7 18 28 19 31  2 27 29
  23686723.358    -7523901.691 8  -5808503.73949  23686726.0894
  26834524.960     1851122.197 6    114316.38849  26834529.7534
  24320814.569    -5743572.495 8  -4397947.90249  24320817.8044
  25389629.968    -8402621.617 7  -6434586.40049  25389634.3514
  27244368.038    -1360673.792 6   -993945.74249  27244376.8084
  26086328.280    -4448761.658 6  -3388015.04449  26086333.6014
  25081389.811     5625678.427 7   4415441.05549  25081393.7964
 95  2 12 20 51 30.0110000  0  7 18 28 19 31  2 27 29
  23695552.468    -7477503.819 8  -5772349.56349  23695555.2104
  26845727.202     1909996.456 6    160192.40649  26845732.3934
  24323490.897    -5729507.276 8  -4386987.97949  24323494.2494
  25388891.140    -8406505.748 7  -6437612.94449  25388895.3004
  27234247.913    -1413855.117 6  -1035385.51849  27234256.3084
  26079920.343    -4482434.757 6  -3414253.72649  26079925.8154
  25099857.632     5722727.963 7   4491063.99949  25099861.6754
 95  2 12 20 52  0.0110000  0  7 18 28 19 31  2 27 29
  23704473.132    -7430625.406 8  -5735820.94049  23704475.9094
  26857026.046     1969369.774 6    206457.29549  26857031.4254
  24326189.772    -5715325.368 8  -4375937.13249  24326193.0074
  25388247.890    -8409887.772 7  -6440248.24349  25388251.8154
  27224162.155    -1466850.804 5  -1076680.66849  27224170.6434
  26073520.249    -4516069.277 6  -3440462.35949  26073525.5464
  25118388.241     5820106.448 7   4566943.26849  25118392.2844
 95  2 12 20 52 30.0110000  0  7 18 28 19 31  2 27 29
  23713491.210    -7383235.503 8  -5698893.75249  23713493.9754
  26868426.061     2029274.318 6    253136.12449  26868431.6044
  24328918.733    -5700984.366 8  -4364762.31649  24328921.9684
  25387705.765    -8412732.848 7  -6442465.14349  25387709.6794
  27214117.538    -1519636.899 6  -1117812.49049  27214125.7804
  26067133.569    -4549633.242 6  -3466616.02249  26067138.9254
  25136984.413     5917827.787 7   4643089.70449  25136988.2454
 95  2 12 20 53  0.0110000  0  7 18 28 19 31  2 27 29
  23722607.171    -7335331.866 8  -5661566.25549  23722609.9134
  26879927.858     2089718.074 6    300235.12149  26879933.5894
  24331684.585    -5686449.454 8  -4353436.40149  24331687.8544
  25387268.741    -8415028.759 7  -6444254.12349  25387272.8434
  27204112.077    -1572214.086 6  -1158781.52449  27204120.1434
  26060761.241    -4583117.900 6  -3492707.89949  26060766.5614
  25155648.671     6015908.830 7   4719516.42149  25155652.6434
 95  2 12 20 53 30.0110000  0  7 18 28 19 31  2 27 29
  23731821.655    -7286907.966 8  -5623833.35549  23731824.2574
  26891531.421     2150693.976 6    347748.78549  26891537.2804
  24334485.444    -5671731.483 8  -4341967.84049  24334488.8434
  25386934.538    -8416783.921 7  -6445621.72349  25386938.7104
  27194148.569    -1624572.448 6  -1199580.07349  27194156.4364
  26054401.468    -4616537.182 6  -3518748.82949  26054407.2454
  25174383.194     6114360.147 7   4796231.66449  25174387.0384
 95  2 12 20 54  0.0110000  0  7 18 28 19 31  2 27 29
  23741136.444    -7237957.752 8  -5585690.33849  23741139.2334
  26903235.311     2212197.744 6    395673.76249  26903241.0304
  24337317.843    -5656845.648 8  -4330368.47849  24337321.3584
  25386703.679    -8417995.587 7  -6446565.81949  25386708.0504
  27184225.382    -1676719.340 6  -1240213.82949  27184233.1674
  26048053.413    -4649897.466 6  -3544743.78349  26048059.0504
  25193192.483     6213202.780 7   4873251.82949  25193196.1634
 95  2 12 20 54 30.0110000  0  7 18 28 19 31  2 27 29
  23750550.952    -7188484.513 8  -5547139.77349  23750553.7414
  26915041.140     2274236.846 6    444015.89249  26915046.6244
  24340180.413    -5641802.568 8  -4318646.58749  24340183.7414
  25386582.890    -8418633.445 7  -6447062.78649  25386587.2844
  27174343.101    -1728651.275 6  -1280680.08049  27174351.7534
  26041717.054    -4683196.246 6  -3570690.81949  26041722.0224
  25212078.358     6312448.947 7   4950586.43249  25212082.1434
 95  2 12 20 55  0.0110000  0  7 18 28 19 31  2 27 29
  23760066.843    -7138478.303 8  -5508173.90549  23760069.5734
  26926947.397     2336807.848 6    492772.49349  26926952.5544
  24343070.952    -5626613.527 8  -4306810.96049  24343074.3974
  25386569.624    -8418701.699 7  -6447115.90249  25386574.0544
  27164500.819    -1780369.647 6  -1320979.94249  27164509.0504
  26035392.561    -4716433.751 7  -3596590.11349  26035396.9914
  25231044.476     6412115.267 7   5028248.43049  25231048.0504
 95  2 12 20 55 30.0110000  0  7 18 28 19 31  2 27 29
  23769683.202    -7087945.221 8  -5468797.48949  23769685.9334
  26938956.147     2399909.819 6    541942.83249  26938961.3514
  24345987.913    -5611285.195 8  -4294866.79649  24345991.1594
  25386663.530    -8418206.974 7  -6446730.32649  25386667.9834
  27154699.476    -1831875.234 6  -1361113.96549  27154706.9794
  26029080.186    -4749600.738 6  -3622434.45549  26029084.6284
  25250090.686     6512202.106 7   5106238.10349  25250094.4254
 95  2 12 20 56  0.0110000  0  7 18 28 19 31  2 27 29
  23779396.155    -7036902.412 8  -5429023.88649  23779399.0384
  26951063.608     2463538.498 6    591523.58449  26951068.5544
  24348934.468    -5595801.417 8  -4282801.50249  24348937.5154
  25386863.975    -8417155.797 7  -6445911.14849  25386868.3474
  27144936.038    -1883180.831 6  -1401092.16449  27144944.0224
  26022782.476    -4782695.311 6  -3648222.36349  26022787.0694
  25269212.483     6612689.059 7   5184539.55349  25269216.2804
 95  2 12 20 56 30.0110000  0  7 18 28 19 31  2 27 29
  23789203.499    -6985364.227 8  -5388864.27549  23789206.3584
  26963270.061     2527683.135 6    641506.37849  26963275.4644
  24351911.780    -5580155.347 8  -4270609.74449  24351915.0384
  25387165.452    -8415572.527 7  -6444677.35949  25387169.7884
  27135213.694    -1934272.588 6  -1440903.73649  27135221.1984
  26016498.616    -4815717.841 6  -3673954.13749  26016503.3744
  25288406.788     6713554.074 7   5263135.59749  25288410.6324
 95  2 12 20 57  0.0110000  0  8 18 16 28 19 31  2 27 29
  23799107.147    -6933321.311 8  -5348311.36949  23799109.9364
  28316752.804      -23281.16014
  26975573.038     2592335.418 6    691884.74549  26975578.3354
  24354921.772    -5564335.931 8  -4258282.91649  24354925.1834
  25387562.507    -8413482.211 7  -6443048.47149  25387566.8544
  27125532.194    -1985146.667 6  -1480545.66849  27125539.6514
  26010226.757    -4848677.181 7  -3699636.66749  26010231.2924
  25307671.468     6814792.761 7   5342022.81449  25307675.5814
 95  2 12 20 57 30.0110000  0  8 18 16 28 19 31  2 27 29
  23809107.647    -6880766.607 8  -5307359.66849  23809110.4484
  28311046.257      -53261.274 3
  26987976.991     2657519.777 6    742677.72449  26987982.7454
  24357969.483    -5548321.181 8  -4245803.87849  24357972.9994
  25388063.421    -8410850.962 7  -6440998.07249  25388068.0384
  27115898.741    -2035772.205 6  -1519993.94549  27115906.8544
  26003968.819    -4881562.081 7  -3725261.18649  26003973.1904
  25327007.538     6916403.778 7   5421200.15749  25327011.5934
 95  2 12 20 58  0.0110000  0  8 18 16 28 19 31  2 27 29
  23819203.397    -6827713.559 8  -5266019.64649  23819206.1864
  28305425.522      -82804.901 3    -16078.67658  28305432.8274
  27000479.999     2723222.984 6    793874.98749  27000485.8824
  24361049.851    -5532132.959 8  -4233189.67249  24361053.0974
  25388667.218    -8407678.037 7  -6438525.59649  25388671.4604
  27106312.765    -2086145.178 5  -1559245.43949  27106321.1714
  25997722.225    -4914387.920 7  -3750839.68049  25997726.8194
  25346408.116     7018352.817 7   5500640.89649  25346411.9954
 95  2 12 20 58 30.0120000  0  8 18 16 28 19 31  2 27 29
  23829392.105    -6774172.873 8  -5224299.64849  23829394.8834
  28299889.887     -111894.274 3    -38745.67647  28299897.3674
  27013081.246     2789442.383 6    845474.47449  27013086.5784
  24364158.660    -5515797.701 8  -4220460.88849  24364161.9184
  25389376.004    -8403953.812 7  -6435623.54449  25389379.9534
  27096774.168    -2136269.317 6  -1598302.99349  27096782.1294
  25991486.152    -4947160.602 7  -3776376.75249  25991490.5234
  25365873.926     7120646.450 7   5580350.14349  25365877.7814
 95  2 12 20 59  0.0120000  0  8 18 16 28 19 31  2 27 29
  23839672.215    -6720149.665 8  -5182203.66149  23839675.0624
  28294441.808     -140519.397 3    -61050.97047  28294448.9494
  27025780.051     2856173.550 6    897472.73849  27025785.1374
  24367292.824    -5499327.920 8  -4207627.28249  24367296.1054
  25390192.621    -8399661.421 7  -6432278.77549  25390196.7114
  27087279.723    -2186162.167 6  -1637180.34549  27087287.6724
  25985257.707    -4979885.101 6  -3801876.26949  25985262.5474
  25385405.973     7223288.588 7   5660330.95649  25385409.8754
 95  2 12 20 59 30.0120000  0  8 18 16 28 19 31  2 27 29
  23850042.418    -6665654.058 8  -5139739.57449  23850045.1014
  28289079.324     -168699.827 3    -83009.65048  28289086.7114
  27038577.058     2923420.341 6    949872.79249  27038582.0624
  24370453.426    -5482718.304 8  -4194684.71049  24370456.6844
  25391119.394    -8394789.673 7  -6428482.55649  25391123.5784
  27077829.348    -2235824.629 6  -1675878.17449  27077837.4144
  25979041.629    -5012551.931 6  -3827330.85249  25979046.0354
  25405006.340     7326291.289 7   5740592.72649  25405010.4304
 95  2 12 21  0  0.0120000  0  8 18 16 28 19 31  2 27 29
  23860506.855    -6610662.960 8  -5096889.38649  23860509.6914
  28283799.324     -196450.239 4   -104633.34649  28283805.3244
  27051472.246     2991185.463 6   1002676.74049  27051476.7234
  24373643.894    -5465950.695 8  -4181619.03049  24373647.2114
  25392157.152    -8389338.051 7  -6424234.49949  25392161.1604
  27068422.582    -2285257.103 6  -1714396.78449  27068430.1334
  25972837.058    -5045157.439 6  -3852737.64949  25972841.4654
  25424679.707     7429675.427 7   5821151.71749  25424683.9734
 95  2 12 21  0 30.0120000  0  8 18 16 28 19 31  2 27 29
  23871071.191    -6555147.094 8  -5053630.29049  23871074.0514
  28278601.144     -223764.363 4   -125917.04548  28278608.5194
  27064466.230     3059466.517 6   1055882.72049  27064471.1524
  24376867.238    -5449013.277 8  -4168421.02449  24376870.4144
  25393303.566    -8383312.940 7  -6419539.57049  25393307.6334
  27059056.816    -2334475.266 6  -1752748.39749  27059064.0984
  25966642.629    -5077707.957 6  -3878101.58949  25966647.1524
  25444428.629     7533454.575 7   5902018.50549  25444432.6374
 95  2 12 21  1  0.0120000  0  8 18 16 28 19 31  2 27 29
  23881737.621    -6499096.029 8  -5009954.15849  23881740.3164
  28273488.652     -250638.134 4   -146857.58048  28273494.6994
  27077557.629     3128264.212 6   1109491.26049  27077562.5044
  24380127.543    -5431880.390 8  -4155070.70449  24380130.8124
  25394556.871    -8376725.993 7  -6414406.83549  25394560.9844
  27049732.152    -2383472.237 6  -1790927.66849  27049739.7154
  25960459.566    -5110198.585 6  -3903418.86049  25960464.7114
  25464250.504     7637619.415 7   5983185.83749  25464254.4764
 95  2 12 21  1 30.0120000  0  8 18 16 28 19 31  2 27 29
  23892506.004    -6442507.097 8  -4965858.90649  23892508.8164
  28268458.613     -277065.087 4   -167449.97549  28268466.2234
  27090747.449     3197575.803 6   1163500.25649  27090752.5124
  24383425.613    -5414548.955 8  -4141565.67749  24383428.7894
  25395914.332    -8369591.325 7  -6408847.31349  25395918.6334
  27040451.191    -2432243.112 6  -1828930.76349  27040459.1874
  25954288.629    -5142629.670 6  -3928689.74449  25954293.5164
  25484141.652     7742146.616 7   6064635.53249  25484145.3204
 95  2 12 21  2  0.0120000  0  8 18 16 28 19 31  2 27 29
  23903381.129    -6385358.490 8  -4921327.54249  23903384.0004
  28263520.152     -303014.566 4   -187670.29547  28263528.3124
  27104035.433     3267405.268 6   1217912.77949  27104040.6834
  24386758.746    -5397033.090 8  -4127916.93149  24386762.1094
  25397376.879    -8361905.211 7  -6402858.07949  25397381.2264
  27031215.262    -2480776.855 6  -1866749.08549  27031222.5904
  25948131.004    -5174986.830 6  -3953903.03649  25948135.5164
  25504099.988     7847029.576 7   6146362.44249  25504104.0084
 95  2 12 21  2 30.0120000  0  7 18 28 19 31  2 27 29
  23914357.738    -6327674.602 8  -4876379.07949  23914360.6214
  27117420.246     3337744.766 6   1272722.72549  27117425.5904
  24390121.683    -5379360.609 8  -4114146.15149  24390124.9064
  25398942.918    -8353675.580 7  -6396445.34249  25398947.1254
  27022025.012    -2529072.867 6  -1904382.17649  27022032.5514
  25941989.230    -5207260.522 6  -3979051.28049  25941994.2814
  25524124.308     7952257.272 7   6228357.97049  25524128.3634
 95  2 12 21  3  0.0120000  0  8 18 16 28 19 31  2 27 29
  23925429.965    -6269490.179 8  -4831040.58249  23925432.8594
  28253916.566      -23323.37514
  27130901.348     3408589.697 6   1327926.52249  27130906.5984
  24393509.504    -5361557.884 8  -4100273.87749  24393512.7264
  25400611.840    -8344906.909 7  -6389612.57349  25400615.9534
  27012881.894    -2577119.873 6  -1941821.23849  27012889.1764
  25935863.832    -5239450.004 6  -4004133.91249  25935868.6724
  25544213.340     8057825.875 7   6310619.13649  25544217.5474
 95  2 12 21  3 30.0120000  0  8 18 16 28 19 31  2 27 29
  23936599.191    -6210797.168 8  -4785305.78949  23936601.9924
  28249244.512      -47873.932 4
  27144479.676     3479942.895 6   1383526.36449  27144484.9144
  24396918.457    -5343641.790 8  -4086313.26449  24396921.7504
  25402385.262    -8335587.876 7  -6382350.96849  25402389.0824
  27003788.973    -2624902.450 6  -1979054.25449  27003795.8324
  25929755.535    -5271549.057 6  -4029146.08749  25929760.1294
  25564370.926     8163754.117 7   6393160.54649  25564375.4844
 95  2 12 21  4  0.0120000  0  8 18 16 28 19 31  2 27 29
  23947864.887    -6151594.491 8  -4739173.85049  23947867.6294
  28244660.480      -71968.020 4    -17511.15458  28244668.7234
  27158155.934     3551812.807 6   1439528.83749  27158161.0664
  24400351.348    -5325601.508 8  -4072255.88349  24400354.6874
  25404269.863    -8325686.190 7  -6374635.34849  25404273.5664
  26994749.293    -2672407.465 6  -2016071.00649  26994756.7974
  25923666.910    -5303544.875 6  -4054077.82449  25923671.4104
  25584601.769     8270068.539 7   6476002.87649  25584606.0944
 95  2 12 21  4 30.0120000  0  8 18 16 28 19 31  2 27 29
  23959223.598    -6091903.105 8  -4692661.10249  23959226.3984
  28240159.934      -95613.285 4    -35935.99647  28240166.7664
  27171930.246     3624197.492 6   1495932.43349  27171935.6014
  24403811.582    -5307419.112 8  -4058087.76449  24403814.8284
  25406265.519    -8315197.168 7  -6366462.06749  25406269.4454
  26985759.965    -2719646.518 6  -2052880.52049  26985767.3054
  25917596.199    -5335447.839 6  -4078937.21149  25917600.8634
  25604907.394     8376771.530 7   6559147.98149  25604911.6604
 95  2 12 21  5  0.0120000  0  8 18 16 28 19 31  2 27 29
  23970676.168    -6031719.956 8  -4645765.16149  23970678.9574
  28235744.683     -118813.904 4    -54014.41149  28235751.6484
  27185800.309     3697086.121 6   1552728.71749  27185805.8284
  24407301.730    -5289078.945 8  -4043796.70649  24407304.9184
  25408372.254    -8304124.355 7  -6357833.88749  25408376.5434
  26976817.973    -2766637.222 6  -2089496.50049  26976824.9614
  25911538.840    -5367276.772 6  -4103738.92149  25911543.1414
  25625283.801     8483849.996 7   6642585.66349  25625287.7854
 95  2 12 21  5 30.0120000  0  8 18 16 28 19 31  2 27 29
  23982224.996    -5971031.035 8  -4598475.10649  23982227.8204
  28231417.199     -141556.555 4    -71735.95149  28231424.4574
  27199766.887     3770479.018 6   1609917.94749  27199772.6414
  24410826.769    -5270554.018 8  -4029361.67949  24410829.8634
  25410594.934    -8292445.689 7  -6348733.60849  25410599.1174
  26967919.426    -2813397.339 6  -2125932.79349  26967926.7074
  25905495.676    -5399035.129 6  -4128485.63949  25905500.1054
  25645729.488     8591291.705 7   6726306.39549  25645733.6834
 95  2 12 21  6  0.0120000  0  8 18 16 28 19 31  2 27 29
  23993870.332    -5909834.027 8  -4550789.14149  23993873.2624
  28227179.355     -163825.036 4    -89088.01449  28227186.7894
  27213829.215     3844377.335 6   1667500.98749  27213834.4654
  24414389.004    -5251835.327 8  -4014775.66949  24414392.0744
  25412934.621    -8280150.389 7  -6339152.84049  25412938.6994
  26959059.879    -2859953.075 6  -2162209.84049  26959067.3124
  25899465.457    -5430722.796 6  -4153177.27349  25899470.0394
  25666240.254     8699078.871 7   6810296.30149  25666244.4264
 95  2 12 21  6 30.0120000  0  8 18 16 28 19 31  2 27 29
  24005613.926    -5848120.501 8  -4502700.69649  24005616.9264
  28223033.949     -185612.173 4   -106065.00247  28223040.8674
  27227989.332     3918784.860 6   1725480.81749  27227994.8164
  24417989.207    -5232914.777 8  -4000032.36949  24417992.3244
  25415389.348    -8267249.167 7  -6329099.91949  25415392.9344
  26950241.269    -2906295.021 6  -2198320.28349  26950248.5164
  25893447.785    -5462348.233 7  -4177820.41049  25893452.4264
  25686818.762     8807217.039 7   6894559.71949  25686822.9454
 95  2 12 21  7  0.0120000  0  8 18 16 28 19 31  2 27 29
  24017458.371    -5785877.787 8  -4454199.89749  24017461.5354
  28218977.637     -206927.855 4   -122674.63749  28218985.9844
  27242244.207     3993698.411 6   1783854.95149  27242249.3514
  24421625.457    -5213804.917 8  -3985141.55249  24421628.6214
  25417959.863    -8253740.816 7  -6318573.91249  25417963.6014
  26941464.019    -2952418.785 6  -2234260.70949  26941470.8054
  25887438.644    -5493925.473 7  -4202426.00449  25887442.7934
  25707463.668     8915706.507 7   6979096.88349  25707467.8754
 95  2 12 21  7 30.0120000  0  8 18 16 28 19 31  2 27 29
  24029402.082    -5723112.449 8  -4405291.85749  24029405.1764
  28215009.527     -227780.359 5   -138923.35747  28215015.2464
  27256596.176     4069115.188 6   1842621.20149  27256601.6014
  24425295.965    -5194517.882 8  -3970112.68149  24425299.3054
  25420644.473    -8239629.609 7  -6307578.13949  25420648.6564
  26932728.012    -2998326.169 6  -2270032.50949  26932734.5044
  25881438.840    -5525454.503 7  -4226994.03849  25881443.1054
  25728173.207     9024536.225 7   7063899.18449  25728177.4264
 95  2 12 21  8  0.0120000  0  8 18 16 28 19 31  2 27 29
  24041443.723    -5659833.397 8  -4355983.52049  24041446.8284
  28211127.629     -248181.958 5   -154820.69448  28211134.6414
  27271041.519     4145029.856 6   1901775.44649  27271046.9454
  24429000.152    -5175052.472 8  -3954944.81649  24429003.3164
  25423439.355    -8224945.944 7  -6296136.29149  25423443.6444
  26924035.418    -3044004.582 6  -2305625.88749  26924042.5824
  25875447.230    -5556940.831 7  -4251528.78149  25875451.6134
  25748948.824     9133714.130 7   7148972.79249  25748952.9844
 95  2 12 21  8 30.0120000  0  8 18 16 28 19 31  2 27 29
  24053580.566    -5596053.195 8  -4306284.67449  24053583.7304
  28207327.519     -268148.973 4   -170379.38648  28207335.5394
  27285582.230     4221438.602 6   1961314.67149  27285587.2694
  24432738.926    -5155405.207 8  -3939635.24649  24432741.9494
  25426338.762    -8209710.303 7  -6284264.33849  25426342.8634
  26915389.996    -3089436.147 6  -2341026.91749  26915396.6874
  25869462.785    -5588388.636 7  -4276033.51349  25869467.1214
  25769791.801     9243242.888 7   7234319.78949  25769796.1484
 95  2 12 21  9  0.0120000  0  8 18 16 28 19 31  2 27 29
  24065815.082    -5531762.855 8  -4256188.32149  24065818.0824
  28203611.418     -287674.949 4   -185594.45149  28203618.6994
  27300218.551     4298349.870 6   2021245.46449  27300224.3404
  24436513.894    -5135567.580 8  -3924177.34649  24436516.8594
  25429344.801    -8193912.801 7  -6271954.56449  25429349.0314
  26906792.543    -3134614.753 6  -2376230.83749  26906799.4494
  25863492.418    -5619762.892 7  -4300480.93349  25863496.7774
  25790700.012     9353114.514 7   7319933.94949  25790704.3834
 95  2 12 21  9 30.0120000  0  8 18 16 28 19 31  2 27 29
  24078140.668    -5466990.955 8  -4205716.73249  24078143.6214
  28199979.012     -306763.209 5   -200468.43649  28199987.7234
  27314946.379     4375747.354 6   2081555.14749  27314952.2384
  24440324.473    -5115543.242 8  -3908573.95549  24440327.5084
  25432453.215    -8177576.739 7  -6259225.12949  25432457.4574
  26898241.324    -3179552.152 6  -2411246.79649  26898248.1834
  25857537.941    -5651053.711 7  -4324863.32749  25857542.2424
  25811670.043     9463314.313 7   7405803.83249  25811674.3914
 95  2 12 21 10  0.0120000  0  8 18 16 28 19 31  2 27 29
  24090555.644    -5401748.775 8  -4154878.68949  24090558.5164
  28196431.973     -325407.180 5   -214996.20348  28196438.2304
  27329765.926     4453624.543 6   2142238.59649  27329771.1414
  24444165.684    -5095357.262 8  -3892844.61449  24444168.6844
  25435664.223    -8160703.043 7  -6246076.75249  25435668.4304
  26889736.754    -3224243.970 6  -2446071.41149  26889743.1294
  25851598.965    -5682262.717 7  -4349181.97649  25851603.5594
  25832704.254     9573849.387 7   7491934.97749  25832708.7074
 95  2 12 21 10 30.0120000  0  8 18 16 28 19 31  2 27 29
  24103062.230    -5336027.402 8  -4103667.24849  24103064.9614
  28192973.512     -343581.828 5   -229158.22949  28192979.4414
  27344678.855     4531991.531 6   2203303.71849  27344684.1294
  24448033.418    -5075032.150 8  -3877006.85649  24448036.6174
  25438982.027    -8143266.481 7  -6232489.78249  25438985.7894
  26881279.965    -3268683.290 6  -2480699.26749  26881286.3514
  25845679.254    -5713370.279 7  -4373421.58649  25845683.8714
  25853804.160     9684728.154 7   7578333.91649  25853808.7074
 95  2 12 21 11  0.0120000  0  8 18 16 28 19 31  2 27 29
  24115660.676    -5269821.965 8  -4052078.61649  24115663.4654
  28189606.191     -361274.701 5   -242944.85948  28189612.4264
  27359681.840     4610833.842 6   2264739.21649  27359686.7504
  24451922.777    -5054593.260 8  -3861080.44049  24451926.0474
  25442409.652    -8125257.538 7  -6218456.79949  25442413.4264
  26872867.574    -3312891.199 6  -2515146.82749  26872873.5164
  25839778.027    -5744382.777 7  -4397587.11749  25839782.4104
  25874965.746     9795934.156 7   7664987.84649  25874970.3984
 95  2 12 21 11 30.0120000  0  8 18 16 28 19 31  2 27 29
  24128355.410    -5203110.547 8  -4000095.71049  24128358.1994
  28186338.871     -378445.620 5   -256324.75048  28186344.4964
  27374779.957     4690172.189 6   2326561.23249  27374784.9614
  24455835.816    -5034028.694 8  -3845056.09949  24455839.0864
  25445949.551    -8106652.541 7  -6203959.36549  25445953.5474
  26864502.246    -3356850.794 6  -2549400.88949  26864508.5274
  25833894.199    -5775299.555 7  -4421678.05849  25833898.3244
  25896194.051     9907491.332 7   7751915.42449  25896198.5514
 95  2 12 21 12  0.0120000  0  8 18 16 28 19 31  2 27 29
  24141149.512    -5135877.735 8  -3947706.52349  24141152.3244
  28183170.543     -395096.475 5   -269299.45849  28183176.8244
  27389970.754     4770002.413 6   2388766.54049  27389976.3794
  24459771.324    -5013348.701 8  -3828941.81249  24459774.6054
  25449605.363    -8087443.048 7  -6188990.89549  25449609.2194
  26856182.934    -3400566.932 6  -2583465.26149  26856189.4024
  25828025.949    -5806138.567 7  -4445708.39349  25828030.1444
  25917488.613    10019393.233 7   7839111.61749  25917493.1834
 95  2 12 21 12 30.0120000  0  8 18 16 28 19 31  2 27 29
  24154043.558    -5068119.049 8  -3894907.57149  24154046.4764
  28180098.808     -411236.919 5   -281876.38149  28180105.0194
  27405253.949     4850317.044 6   2451349.31149  27405259.2114
  24463732.457    -4992532.713 8  -3812721.55949  24463735.5394
  25453376.301    -8067625.214 7  -6173548.39249  25453380.1804
  26847907.957    -3444050.048 6  -2617348.05249  26847914.1334
  25822170.332    -5836912.149 7  -4469687.74249  25822174.3514
  25938845.035    10131621.340 7   7926561.99249  25938849.5234
 95  2 12 21 13  0.0120000  0  8 18 16 28 19 31  2 27 29
  24167039.293    -4999825.184 8  -3841691.59649  24167042.1874
  28177124.949     -426866.873 5   -294055.57149  28177132.0194
  27420630.551     4931120.401 6   2514312.90649  27420635.6604
  24467727.309    -4971538.143 8  -3796362.14949  24467730.3204
  25457264.926    -8047190.383 7  -6157625.11749  25457268.9574
  26839678.691    -3487295.130 6  -2651045.39049  26839685.2664
  25816324.988    -5867627.623 7  -4493621.81549  25816329.0664
  25960262.840    10244174.704 7   8014265.81749  25960267.5164
 95  2 12 21 13 30.0120000  0  8 18 16 28 19 31  2 27 29
  24180133.543    -4931014.944 8  -3788073.25349  24180136.4494
  28174243.473     -442006.928 5   -305852.99049  28174250.8244
  27436098.238     5012404.816 6   2577651.33849  27436103.5124
  24471758.355    -4950355.619 8  -3779856.25349  24471761.3324
  25461267.996    -8026153.884 7  -6141233.11749  25461272.6844
  26831495.293    -3530300.345 6  -2684555.80949  26831502.0084
  25810488.410    -5898299.207 7  -4517521.68149  25810492.5704
  25981743.473    10357054.349 7   8102223.88149  25981748.4064
 95  2 12 21 14  0.0120000  0  8 18 16 28 19 31  2 27 29
  24193325.910    -4861688.559 8  -3734052.71249  24193328.8284
  28171450.848     -456682.638 5   -317288.57549  28171458.1644
  27451657.269     5094163.649 6   2641359.46049  27451663.5744
  24475825.590    -4928981.321 8  -3763200.98449  24475828.7074
  25465386.598    -8004510.587 7  -6124368.08549  25465390.5004
  26823358.394    -3573058.863 6  -2717874.00749  26823365.0864
  25804661.230    -5928920.866 7  -4541382.64949  25804665.2974
  26003284.738    10470255.197 6   8190432.23049  26003289.8014
 95  2 12 21 14 30.0120000  0  8 18 16 28 19 31  2 27 29
  24206615.129    -4791853.428 8  -3679635.74949  24206618.0354
  28168745.988     -470896.817 5   -328364.51549  28168753.7384
  27467306.293     5176402.003 6   2705441.23749  27467311.7074
  24479931.582    -4907405.740 8  -3746388.83649  24479934.7344
  25469619.496    -7982264.674 7  -6107033.58949  25469623.7264
  26815269.051    -3615567.966 6  -2750997.84749  26815275.7664
  25798845.285    -5959482.739 7  -4565197.02349  25798849.5164
  26024886.699    10583770.803 6   8278885.84849  26024891.6214
 95  2 12 21 15  0.0120000  0  8 18 16 28 19 31  2 27 29
  24220006.965    -4721479.754 8  -3624799.13749  24220009.9884
  28166135.527     -484612.863 5   -339052.30448  28166141.0474
  27483054.379     5259158.132 6   2769926.47549  27483059.5354
  24484081.668    -4885596.779 8  -3729394.83349  24484084.8444
  25473971.246    -7959396.277 7  -6089214.04549  25473975.1484
  26807235.723    -3657783.964 6  -2783893.30049  26807242.7694
  25793051.894    -5989927.447 7  -4588920.11449  25793055.9734
  26046557.527    10697654.174 6   8367626.02849  26046562.3794
 95  2 12 21 15 30.0120000  0  8 18 16 28 19 31  2 27 29
  24233493.371    -4650607.990 8  -3569574.40949  24233496.4884
  28163612.027     -497873.942 5   -349385.62648  28163618.3914
  27498892.894     5342390.552 6   2834782.82949  27498898.0624
  24488264.801    -4863612.518 8  -3712264.23849  24488267.9414
  25478435.566    -7935938.821 7  -6070935.49449  25478439.4344
  26799252.918    -3699734.302 6  -2816581.74849  26799260.0004
  25787278.215    -6020266.029 7  -4612560.49949  25787282.6444
  26068293.051    10811871.895 6   8456626.74249  26068298.1374
 95  2 12 21 16  0.0120000  0  8 18 16 28 19 31  2 27 29
  24247076.168    -4579229.753 8  -3513955.02949  24247079.2624
  28161175.879     -510678.189 5   -359362.89449  28161182.3714
  27514823.848     5426107.727 6   2900016.90649  27514829.1914
  24492483.215    -4841444.705 8  -3694990.61349  24492486.4964
  25483014.769    -7911874.760 7  -6052184.27049  25483018.6604
  26791321.973    -3741412.480 6  -2849058.12649  26791328.4414
  25781528.863    -6050479.093 7  -4636103.08949  25781533.1174
  26090091.168    10926422.838 6   8545887.11549  26090095.7384
 95  2 12 21 16 30.0120000  0  8 18 16 28 19 31  2 27 29
  24260752.098    -4507362.022 8  -3457954.22449  24260755.3554
  28158826.426     -523021.935 5   -368981.36249  28158832.1564
  27530844.074     5510296.104 6   2965618.15649  27530849.5354
  24496736.605    -4819093.734 8  -3677574.26349  24496739.8514
  25487707.105    -7887215.796 7  -6032969.48349  25487710.8204
  26783439.816    -3782829.646 6  -2881331.12049  26783445.9804
  25775801.707    -6080577.643 7  -4659556.45449  25775805.2934
  26111953.723    11041309.604 6   8635409.16549  26111958.3754
